<?xml version="1.0" encoding="UTF-8" standalone="no" ?>
<gpx xmlns="http://www.topografix.com/GPX/1/1" xmlns:xsi="http://www.w3.org/2001/XMLSchema-instance" xsi:schemaLocation="http://www.topografix.com/GPX/1/1 http://www.topografix.com/GPX/1/1/gpx.xsd" version="1.1" creator="VisuGPX - https://www.visugpx.com">
  <metadata>
    <name>R.A.F. 2021 / 1100 km</name>
  </metadata>
  <trk>
    <name><![CDATA[R.A.F. 2021 / 1100 km]]></name>
    <extensions>
      <line xmlns="http://www.topografix.com/GPX/gpx_style/0/2">
        <color>0000FF</color>
        <width>4</width>
      </line>
    </extensions>
    <trkseg>
      <trkpt lat="43.94028" lon="5.76835">
        <ele>467</ele>
        <time>2021-03-26T19:34:21.785Z</time>
      </trkpt>
      <trkpt lat="43.93771" lon="5.76593">
        <ele>454</ele>
        <time>2021-03-26T19:35:08.057Z</time>
      </trkpt>
      <trkpt lat="43.93763" lon="5.7659">
        <ele>453</ele>
        <time>2021-03-26T19:35:09.152Z</time>
      </trkpt>
      <trkpt lat="43.93737" lon="5.76599">
        <ele>452</ele>
        <time>2021-03-26T19:35:13.322Z</time>
      </trkpt>
      <trkpt lat="43.93721" lon="5.76602">
        <ele>451</ele>
        <time>2021-03-26T19:35:15.348Z</time>
      </trkpt>
      <trkpt lat="43.93715" lon="5.76601">
        <ele>450</ele>
        <time>2021-03-26T19:35:16.146Z</time>
      </trkpt>
      <trkpt lat="43.93707" lon="5.76595">
        <ele>450</ele>
        <time>2021-03-26T19:35:19.566Z</time>
      </trkpt>
      <trkpt lat="43.93657" lon="5.76544">
        <ele>448</ele>
        <time>2021-03-26T19:35:29.724Z</time>
      </trkpt>
      <trkpt lat="43.93627" lon="5.76517">
        <ele>447</ele>
        <time>2021-03-26T19:35:35.846Z</time>
      </trkpt>
      <trkpt lat="43.93575" lon="5.76465">
        <ele>443</ele>
        <time>2021-03-26T19:35:43.858Z</time>
      </trkpt>
      <trkpt lat="43.93431" lon="5.76328">
        <ele>439</ele>
        <time>2021-03-26T19:36:15.460Z</time>
      </trkpt>
      <trkpt lat="43.93253" lon="5.76148">
        <ele>435</ele>
        <time>2021-03-26T19:36:57.596Z</time>
      </trkpt>
      <trkpt lat="43.93147" lon="5.7605">
        <ele>430</ele>
        <time>2021-03-26T19:37:17.046Z</time>
      </trkpt>
      <trkpt lat="43.93097" lon="5.76006">
        <ele>426</ele>
        <time>2021-03-26T19:37:24.865Z</time>
      </trkpt>
      <trkpt lat="43.93062" lon="5.75969">
        <ele>425</ele>
        <time>2021-03-26T19:37:32.846Z</time>
      </trkpt>
      <trkpt lat="43.92933" lon="5.75847">
        <ele>421</ele>
        <time>2021-03-26T19:38:00.260Z</time>
      </trkpt>
      <trkpt lat="43.92905" lon="5.75819">
        <ele>421</ele>
        <time>2021-03-26T19:38:13.240Z</time>
      </trkpt>
      <trkpt lat="43.92851" lon="5.75768">
        <ele>423</ele>
        <time>2021-03-26T19:38:47.385Z</time>
      </trkpt>
      <trkpt lat="43.92828" lon="5.75748">
        <ele>424</ele>
        <time>2021-03-26T19:39:02.795Z</time>
      </trkpt>
      <trkpt lat="43.92815" lon="5.75741">
        <ele>424</ele>
        <time>2021-03-26T19:39:08.040Z</time>
      </trkpt>
      <trkpt lat="43.92794" lon="5.75733">
        <ele>425</ele>
        <time>2021-03-26T19:39:21.990Z</time>
      </trkpt>
      <trkpt lat="43.9278" lon="5.7573">
        <ele>425</ele>
        <time>2021-03-26T19:39:27.319Z</time>
      </trkpt>
      <trkpt lat="43.92646" lon="5.75728">
        <ele>428</ele>
        <time>2021-03-26T19:40:30.732Z</time>
      </trkpt>
      <trkpt lat="43.92614" lon="5.75734">
        <ele>430</ele>
        <time>2021-03-26T19:40:53.773Z</time>
      </trkpt>
      <trkpt lat="43.92527" lon="5.75764">
        <ele>436</ele>
        <time>2021-03-26T19:42:00.094Z</time>
      </trkpt>
      <trkpt lat="43.92493" lon="5.75774">
        <ele>438</ele>
        <time>2021-03-26T19:42:24.143Z</time>
      </trkpt>
      <trkpt lat="43.92466" lon="5.75778">
        <ele>437</ele>
        <time>2021-03-26T19:42:28.389Z</time>
      </trkpt>
      <trkpt lat="43.92315" lon="5.7577">
        <ele>434</ele>
        <time>2021-03-26T19:42:56.732Z</time>
      </trkpt>
      <trkpt lat="43.92283" lon="5.75765">
        <ele>433</ele>
        <time>2021-03-26T19:43:02.069Z</time>
      </trkpt>
      <trkpt lat="43.92268" lon="5.7576">
        <ele>433</ele>
        <time>2021-03-26T19:43:07.872Z</time>
      </trkpt>
      <trkpt lat="43.92241" lon="5.75745">
        <ele>432</ele>
        <time>2021-03-26T19:43:12.531Z</time>
      </trkpt>
      <trkpt lat="43.92217" lon="5.75721">
        <ele>431</ele>
        <time>2021-03-26T19:43:17.297Z</time>
      </trkpt>
      <trkpt lat="43.92176" lon="5.75675">
        <ele>431</ele>
        <time>2021-03-26T19:43:37.127Z</time>
      </trkpt>
      <trkpt lat="43.92168" lon="5.75668">
        <ele>431</ele>
        <time>2021-03-26T19:43:40.684Z</time>
      </trkpt>
      <trkpt lat="43.9215" lon="5.7566">
        <ele>431</ele>
        <time>2021-03-26T19:43:47.793Z</time>
      </trkpt>
      <trkpt lat="43.92131" lon="5.75658">
        <ele>432</ele>
        <time>2021-03-26T19:44:00.534Z</time>
      </trkpt>
      <trkpt lat="43.92122" lon="5.7566">
        <ele>432</ele>
        <time>2021-03-26T19:44:03.962Z</time>
      </trkpt>
      <trkpt lat="43.92096" lon="5.7567">
        <ele>432</ele>
        <time>2021-03-26T19:44:14.111Z</time>
      </trkpt>
      <trkpt lat="43.92042" lon="5.75691">
        <ele>434</ele>
        <time>2021-03-26T19:44:45.441Z</time>
      </trkpt>
      <trkpt lat="43.92017" lon="5.75694">
        <ele>435</ele>
        <time>2021-03-26T19:45:00.306Z</time>
      </trkpt>
      <trkpt lat="43.92002" lon="5.75693">
        <ele>435</ele>
        <time>2021-03-26T19:45:05.956Z</time>
      </trkpt>
      <trkpt lat="43.9199" lon="5.75689">
        <ele>435</ele>
        <time>2021-03-26T19:45:10.598Z</time>
      </trkpt>
      <trkpt lat="43.91958" lon="5.75673">
        <ele>435</ele>
        <time>2021-03-26T19:45:23.392Z</time>
      </trkpt>
      <trkpt lat="43.91821" lon="5.75591">
        <ele>437</ele>
        <time>2021-03-26T19:46:27.369Z</time>
      </trkpt>
      <trkpt lat="43.91745" lon="5.75549">
        <ele>438</ele>
        <time>2021-03-26T19:47:02.020Z</time>
      </trkpt>
      <trkpt lat="43.91717" lon="5.75537">
        <ele>438</ele>
        <time>2021-03-26T19:47:13.043Z</time>
      </trkpt>
      <trkpt lat="43.91674" lon="5.7553">
        <ele>438</ele>
        <time>2021-03-26T19:47:29.329Z</time>
      </trkpt>
      <trkpt lat="43.91642" lon="5.75522">
        <ele>439</ele>
        <time>2021-03-26T19:47:46.357Z</time>
      </trkpt>
      <trkpt lat="43.91621" lon="5.75514">
        <ele>440</ele>
        <time>2021-03-26T19:48:00.308Z</time>
      </trkpt>
      <trkpt lat="43.9157" lon="5.75485">
        <ele>441</ele>
        <time>2021-03-26T19:48:25.172Z</time>
      </trkpt>
      <trkpt lat="43.91541" lon="5.75462">
        <ele>442</ele>
        <time>2021-03-26T19:48:42.484Z</time>
      </trkpt>
      <trkpt lat="43.91509" lon="5.75424">
        <ele>443</ele>
        <time>2021-03-26T19:49:02.728Z</time>
      </trkpt>
      <trkpt lat="43.91386" lon="5.75272">
        <ele>450</ele>
        <time>2021-03-26T19:50:44.173Z</time>
      </trkpt>
      <trkpt lat="43.91368" lon="5.75251">
        <ele>451</ele>
        <time>2021-03-26T19:50:58.662Z</time>
      </trkpt>
      <trkpt lat="43.91338" lon="5.75224">
        <ele>452</ele>
        <time>2021-03-26T19:51:16.744Z</time>
      </trkpt>
      <trkpt lat="43.91303" lon="5.752">
        <ele>455</ele>
        <time>2021-03-26T19:51:47.902Z</time>
      </trkpt>
      <trkpt lat="43.91246" lon="5.75173">
        <ele>459</ele>
        <time>2021-03-26T19:52:32.291Z</time>
      </trkpt>
      <trkpt lat="43.90888" lon="5.75018">
        <ele>451</ele>
        <time>2021-03-26T19:53:41.427Z</time>
      </trkpt>
      <trkpt lat="43.90854" lon="5.75001">
        <ele>449</ele>
        <time>2021-03-26T19:53:46.210Z</time>
      </trkpt>
      <trkpt lat="43.90829" lon="5.74987">
        <ele>448</ele>
        <time>2021-03-26T19:53:50.415Z</time>
      </trkpt>
      <trkpt lat="43.90796" lon="5.74962">
        <ele>447</ele>
        <time>2021-03-26T19:53:56.949Z</time>
      </trkpt>
      <trkpt lat="43.90583" lon="5.74797">
        <ele>453</ele>
        <time>2021-03-26T19:55:55.393Z</time>
      </trkpt>
      <trkpt lat="43.90569" lon="5.74783">
        <ele>454</ele>
        <time>2021-03-26T19:56:07.367Z</time>
      </trkpt>
      <trkpt lat="43.90544" lon="5.74753">
        <ele>455</ele>
        <time>2021-03-26T19:56:24.565Z</time>
      </trkpt>
      <trkpt lat="43.90525" lon="5.74724">
        <ele>456</ele>
        <time>2021-03-26T19:56:40.288Z</time>
      </trkpt>
      <trkpt lat="43.90507" lon="5.74687">
        <ele>457</ele>
        <time>2021-03-26T19:56:57.206Z</time>
      </trkpt>
      <trkpt lat="43.90472" lon="5.74591">
        <ele>459</ele>
        <time>2021-03-26T19:57:35.390Z</time>
      </trkpt>
      <trkpt lat="43.90452" lon="5.74548">
        <ele>460</ele>
        <time>2021-03-26T19:57:53.846Z</time>
      </trkpt>
      <trkpt lat="43.9043" lon="5.74514">
        <ele>460</ele>
        <time>2021-03-26T19:58:06.231Z</time>
      </trkpt>
      <trkpt lat="43.90417" lon="5.74498">
        <ele>460</ele>
        <time>2021-03-26T19:58:12.767Z</time>
      </trkpt>
      <trkpt lat="43.9039" lon="5.74471">
        <ele>461</ele>
        <time>2021-03-26T19:58:30.040Z</time>
      </trkpt>
      <trkpt lat="43.90347" lon="5.74441">
        <ele>462</ele>
        <time>2021-03-26T19:58:52.399Z</time>
      </trkpt>
      <trkpt lat="43.90274" lon="5.74394">
        <ele>464</ele>
        <time>2021-03-26T19:59:31.593Z</time>
      </trkpt>
      <trkpt lat="43.90244" lon="5.74372">
        <ele>465</ele>
        <time>2021-03-26T19:59:49.076Z</time>
      </trkpt>
      <trkpt lat="43.90228" lon="5.74356">
        <ele>465</ele>
        <time>2021-03-26T19:59:56.494Z</time>
      </trkpt>
      <trkpt lat="43.90206" lon="5.74331">
        <ele>466</ele>
        <time>2021-03-26T20:00:12.273Z</time>
      </trkpt>
      <trkpt lat="43.90184" lon="5.74295">
        <ele>467</ele>
        <time>2021-03-26T20:00:29.783Z</time>
      </trkpt>
      <trkpt lat="43.90172" lon="5.74271">
        <ele>468</ele>
        <time>2021-03-26T20:00:43.406Z</time>
      </trkpt>
      <trkpt lat="43.90127" lon="5.74168">
        <ele>471</ele>
        <time>2021-03-26T20:01:31.180Z</time>
      </trkpt>
      <trkpt lat="43.90099" lon="5.74115">
        <ele>471</ele>
        <time>2021-03-26T20:01:48.993Z</time>
      </trkpt>
      <trkpt lat="43.90075" lon="5.74077">
        <ele>472</ele>
        <time>2021-03-26T20:02:07.293Z</time>
      </trkpt>
      <trkpt lat="43.90038" lon="5.74029">
        <ele>473</ele>
        <time>2021-03-26T20:02:30.552Z</time>
      </trkpt>
      <trkpt lat="43.89997" lon="5.73986">
        <ele>474</ele>
        <time>2021-03-26T20:02:54.076Z</time>
      </trkpt>
      <trkpt lat="43.89941" lon="5.73932">
        <ele>474</ele>
        <time>2021-03-26T20:03:19.727Z</time>
      </trkpt>
      <trkpt lat="43.89884" lon="5.73866">
        <ele>474</ele>
        <time>2021-03-26T20:03:47.652Z</time>
      </trkpt>
      <trkpt lat="43.89678" lon="5.73593">
        <ele>474</ele>
        <time>2021-03-26T20:05:34.800Z</time>
      </trkpt>
      <trkpt lat="43.89599" lon="5.73491">
        <ele>477</ele>
        <time>2021-03-26T20:06:29.259Z</time>
      </trkpt>
      <trkpt lat="43.89509" lon="5.73383">
        <ele>482</ele>
        <time>2021-03-26T20:07:42.026Z</time>
      </trkpt>
      <trkpt lat="43.8944" lon="5.73311">
        <ele>482</ele>
        <time>2021-03-26T20:08:14.501Z</time>
      </trkpt>
      <trkpt lat="43.89419" lon="5.73286">
        <ele>482</ele>
        <time>2021-03-26T20:08:24.909Z</time>
      </trkpt>
      <trkpt lat="43.89397" lon="5.73251">
        <ele>482</ele>
        <time>2021-03-26T20:08:37.499Z</time>
      </trkpt>
      <trkpt lat="43.89363" lon="5.73179">
        <ele>483</ele>
        <time>2021-03-26T20:09:04.876Z</time>
      </trkpt>
      <trkpt lat="43.8934" lon="5.73136">
        <ele>484</ele>
        <time>2021-03-26T20:09:23.911Z</time>
      </trkpt>
      <trkpt lat="43.89328" lon="5.73119">
        <ele>484</ele>
        <time>2021-03-26T20:09:30.362Z</time>
      </trkpt>
      <trkpt lat="43.89284" lon="5.73066">
        <ele>487</ele>
        <time>2021-03-26T20:10:09.063Z</time>
      </trkpt>
      <trkpt lat="43.89239" lon="5.73003">
        <ele>493</ele>
        <time>2021-03-26T20:11:08.066Z</time>
      </trkpt>
      <trkpt lat="43.89199" lon="5.7294">
        <ele>494</ele>
        <time>2021-03-26T20:11:34.887Z</time>
      </trkpt>
      <trkpt lat="43.89185" lon="5.72921">
        <ele>493</ele>
        <time>2021-03-26T20:11:37.575Z</time>
      </trkpt>
      <trkpt lat="43.89132" lon="5.72866">
        <ele>490</ele>
        <time>2021-03-26T20:11:47.128Z</time>
      </trkpt>
      <trkpt lat="43.89061" lon="5.72812">
        <ele>487</ele>
        <time>2021-03-26T20:11:59.762Z</time>
      </trkpt>
      <trkpt lat="43.88982" lon="5.72734">
        <ele>487</ele>
        <time>2021-03-26T20:12:36.234Z</time>
      </trkpt>
      <trkpt lat="43.8897" lon="5.72721">
        <ele>486</ele>
        <time>2021-03-26T20:12:38.090Z</time>
      </trkpt>
      <trkpt lat="43.88946" lon="5.72683">
        <ele>485</ele>
        <time>2021-03-26T20:12:44.360Z</time>
      </trkpt>
      <trkpt lat="43.88881" lon="5.72554">
        <ele>474</ele>
        <time>2021-03-26T20:12:59.344Z</time>
      </trkpt>
      <trkpt lat="43.88871" lon="5.72524">
        <ele>472</ele>
        <time>2021-03-26T20:13:02.490Z</time>
      </trkpt>
      <trkpt lat="43.88868" lon="5.72509">
        <ele>471</ele>
        <time>2021-03-26T20:13:03.972Z</time>
      </trkpt>
      <trkpt lat="43.88867" lon="5.72476">
        <ele>470</ele>
        <time>2021-03-26T20:13:07.515Z</time>
      </trkpt>
      <trkpt lat="43.8887" lon="5.72445">
        <ele>469</ele>
        <time>2021-03-26T20:13:10.798Z</time>
      </trkpt>
      <trkpt lat="43.88874" lon="5.72429">
        <ele>469</ele>
        <time>2021-03-26T20:13:15.389Z</time>
      </trkpt>
      <trkpt lat="43.8888" lon="5.72415">
        <ele>470</ele>
        <time>2021-03-26T20:13:25.424Z</time>
      </trkpt>
      <trkpt lat="43.88887" lon="5.72404">
        <ele>470</ele>
        <time>2021-03-26T20:13:29.402Z</time>
      </trkpt>
      <trkpt lat="43.88899" lon="5.72391">
        <ele>471</ele>
        <time>2021-03-26T20:13:40.563Z</time>
      </trkpt>
      <trkpt lat="43.88945" lon="5.72352">
        <ele>474</ele>
        <time>2021-03-26T20:14:17.384Z</time>
      </trkpt>
      <trkpt lat="43.89062" lon="5.72241">
        <ele>476</ele>
        <time>2021-03-26T20:15:18.613Z</time>
      </trkpt>
      <trkpt lat="43.89071" lon="5.7223">
        <ele>476</ele>
        <time>2021-03-26T20:15:23.125Z</time>
      </trkpt>
      <trkpt lat="43.89078" lon="5.72219">
        <ele>476</ele>
        <time>2021-03-26T20:15:27.103Z</time>
      </trkpt>
      <trkpt lat="43.89082" lon="5.72209">
        <ele>475</ele>
        <time>2021-03-26T20:15:28.192Z</time>
      </trkpt>
      <trkpt lat="43.89084" lon="5.72199">
        <ele>475</ele>
        <time>2021-03-26T20:15:31.005Z</time>
      </trkpt>
      <trkpt lat="43.89083" lon="5.72184">
        <ele>473</ele>
        <time>2021-03-26T20:15:32.439Z</time>
      </trkpt>
      <trkpt lat="43.89077" lon="5.72158">
        <ele>471</ele>
        <time>2021-03-26T20:15:35.038Z</time>
      </trkpt>
      <trkpt lat="43.89066" lon="5.72136">
        <ele>472</ele>
        <time>2021-03-26T20:15:47.884Z</time>
      </trkpt>
      <trkpt lat="43.8905" lon="5.7212">
        <ele>472</ele>
        <time>2021-03-26T20:15:55.303Z</time>
      </trkpt>
      <trkpt lat="43.88935" lon="5.72042">
        <ele>477</ele>
        <time>2021-03-26T20:17:10.280Z</time>
      </trkpt>
      <trkpt lat="43.88923" lon="5.72036">
        <ele>479</ele>
        <time>2021-03-26T20:17:28.787Z</time>
      </trkpt>
      <trkpt lat="43.88915" lon="5.72034">
        <ele>479</ele>
        <time>2021-03-26T20:17:31.845Z</time>
      </trkpt>
      <trkpt lat="43.88905" lon="5.72034">
        <ele>479</ele>
        <time>2021-03-26T20:17:35.607Z</time>
      </trkpt>
      <trkpt lat="43.88896" lon="5.72036">
        <ele>479</ele>
        <time>2021-03-26T20:17:39.035Z</time>
      </trkpt>
      <trkpt lat="43.88863" lon="5.72054">
        <ele>475</ele>
        <time>2021-03-26T20:17:43.719Z</time>
      </trkpt>
      <trkpt lat="43.88841" lon="5.72057">
        <ele>475</ele>
        <time>2021-03-26T20:17:52.035Z</time>
      </trkpt>
      <trkpt lat="43.88832" lon="5.72056">
        <ele>475</ele>
        <time>2021-03-26T20:17:55.431Z</time>
      </trkpt>
      <trkpt lat="43.8882" lon="5.72053">
        <ele>476</ele>
        <time>2021-03-26T20:18:05.580Z</time>
      </trkpt>
      <trkpt lat="43.88738" lon="5.72017">
        <ele>483</ele>
        <time>2021-03-26T20:19:16.798Z</time>
      </trkpt>
      <trkpt lat="43.88705" lon="5.71999">
        <ele>485</ele>
        <time>2021-03-26T20:19:41.142Z</time>
      </trkpt>
      <trkpt lat="43.88689" lon="5.71984">
        <ele>485</ele>
        <time>2021-03-26T20:19:48.406Z</time>
      </trkpt>
      <trkpt lat="43.88679" lon="5.7197">
        <ele>485</ele>
        <time>2021-03-26T20:19:53.750Z</time>
      </trkpt>
      <trkpt lat="43.88666" lon="5.71943">
        <ele>485</ele>
        <time>2021-03-26T20:20:02.553Z</time>
      </trkpt>
      <trkpt lat="43.88627" lon="5.7184">
        <ele>484</ele>
        <time>2021-03-26T20:20:19.896Z</time>
      </trkpt>
      <trkpt lat="43.8861" lon="5.71807">
        <ele>484</ele>
        <time>2021-03-26T20:20:30.894Z</time>
      </trkpt>
      <trkpt lat="43.88578" lon="5.71756">
        <ele>485</ele>
        <time>2021-03-26T20:20:53.469Z</time>
      </trkpt>
      <trkpt lat="43.88555" lon="5.71695">
        <ele>485</ele>
        <time>2021-03-26T20:21:12.134Z</time>
      </trkpt>
      <trkpt lat="43.88537" lon="5.71655">
        <ele>485</ele>
        <time>2021-03-26T20:21:24.918Z</time>
      </trkpt>
      <trkpt lat="43.88508" lon="5.71606">
        <ele>484</ele>
        <time>2021-03-26T20:21:33.290Z</time>
      </trkpt>
      <trkpt lat="43.88079" lon="5.71032">
        <ele>472</ele>
        <time>2021-03-26T20:23:24.705Z</time>
      </trkpt>
      <trkpt lat="43.88063" lon="5.71007">
        <ele>471</ele>
        <time>2021-03-26T20:23:28.309Z</time>
      </trkpt>
      <trkpt lat="43.88057" lon="5.70996">
        <ele>470</ele>
        <time>2021-03-26T20:23:29.622Z</time>
      </trkpt>
      <trkpt lat="43.88049" lon="5.70969">
        <ele>469</ele>
        <time>2021-03-26T20:23:32.600Z</time>
      </trkpt>
      <trkpt lat="43.8802" lon="5.70795">
        <ele>461</ele>
        <time>2021-03-26T20:23:48.730Z</time>
      </trkpt>
      <trkpt lat="43.88019" lon="5.70773">
        <ele>460</ele>
        <time>2021-03-26T20:23:50.708Z</time>
      </trkpt>
      <trkpt lat="43.88021" lon="5.70755">
        <ele>460</ele>
        <time>2021-03-26T20:23:55.647Z</time>
      </trkpt>
      <trkpt lat="43.88026" lon="5.70734">
        <ele>459</ele>
        <time>2021-03-26T20:23:57.635Z</time>
      </trkpt>
      <trkpt lat="43.88049" lon="5.70671">
        <ele>457</ele>
        <time>2021-03-26T20:24:05.407Z</time>
      </trkpt>
      <trkpt lat="43.88054" lon="5.70654">
        <ele>457</ele>
        <time>2021-03-26T20:24:10.386Z</time>
      </trkpt>
      <trkpt lat="43.88057" lon="5.7063">
        <ele>456</ele>
        <time>2021-03-26T20:24:12.679Z</time>
      </trkpt>
      <trkpt lat="43.88056" lon="5.70621">
        <ele>456</ele>
        <time>2021-03-26T20:24:15.148Z</time>
      </trkpt>
      <trkpt lat="43.8805" lon="5.70601">
        <ele>455</ele>
        <time>2021-03-26T20:24:17.076Z</time>
      </trkpt>
      <trkpt lat="43.88023" lon="5.70552">
        <ele>451</ele>
        <time>2021-03-26T20:24:22.948Z</time>
      </trkpt>
      <trkpt lat="43.88015" lon="5.70526">
        <ele>449</ele>
        <time>2021-03-26T20:24:25.640Z</time>
      </trkpt>
      <trkpt lat="43.88008" lon="5.70451">
        <ele>447</ele>
        <time>2021-03-26T20:24:34.175Z</time>
      </trkpt>
      <trkpt lat="43.87997" lon="5.70358">
        <ele>446</ele>
        <time>2021-03-26T20:24:47.734Z</time>
      </trkpt>
      <trkpt lat="43.87988" lon="5.70317">
        <ele>445</ele>
        <time>2021-03-26T20:24:52.785Z</time>
      </trkpt>
      <trkpt lat="43.87982" lon="5.70304">
        <ele>445</ele>
        <time>2021-03-26T20:24:56.971Z</time>
      </trkpt>
      <trkpt lat="43.87978" lon="5.70299">
        <ele>445</ele>
        <time>2021-03-26T20:24:58.996Z</time>
      </trkpt>
      <trkpt lat="43.87972" lon="5.70295">
        <ele>445</ele>
        <time>2021-03-26T20:25:01.500Z</time>
      </trkpt>
      <trkpt lat="43.87959" lon="5.70292">
        <ele>444</ele>
        <time>2021-03-26T20:25:03.241Z</time>
      </trkpt>
      <trkpt lat="43.87945" lon="5.70294">
        <ele>444</ele>
        <time>2021-03-26T20:25:08.535Z</time>
      </trkpt>
      <trkpt lat="43.87911" lon="5.70315">
        <ele>443</ele>
        <time>2021-03-26T20:25:14.984Z</time>
      </trkpt>
      <trkpt lat="43.8787" lon="5.70345">
        <ele>446</ele>
        <time>2021-03-26T20:25:48.728Z</time>
      </trkpt>
      <trkpt lat="43.87865" lon="5.70348">
        <ele>446</ele>
        <time>2021-03-26T20:25:50.777Z</time>
      </trkpt>
      <trkpt lat="43.87858" lon="5.7035">
        <ele>446</ele>
        <time>2021-03-26T20:25:53.465Z</time>
      </trkpt>
      <trkpt lat="43.87853" lon="5.70351">
        <ele>447</ele>
        <time>2021-03-26T20:26:00.795Z</time>
      </trkpt>
      <trkpt lat="43.87835" lon="5.70351">
        <ele>448</ele>
        <time>2021-03-26T20:26:13.082Z</time>
      </trkpt>
      <trkpt lat="43.87793" lon="5.70347">
        <ele>454</ele>
        <time>2021-03-26T20:27:14.165Z</time>
      </trkpt>
      <trkpt lat="43.87766" lon="5.70354">
        <ele>456</ele>
        <time>2021-03-26T20:27:35.407Z</time>
      </trkpt>
      <trkpt lat="43.87753" lon="5.7036">
        <ele>457</ele>
        <time>2021-03-26T20:27:46.017Z</time>
      </trkpt>
      <trkpt lat="43.87729" lon="5.70376">
        <ele>458</ele>
        <time>2021-03-26T20:28:01.285Z</time>
      </trkpt>
      <trkpt lat="43.87706" lon="5.70394">
        <ele>461</ele>
        <time>2021-03-26T20:28:31.066Z</time>
      </trkpt>
      <trkpt lat="43.87693" lon="5.70408">
        <ele>462</ele>
        <time>2021-03-26T20:28:42.712Z</time>
      </trkpt>
      <trkpt lat="43.87669" lon="5.7044">
        <ele>463</ele>
        <time>2021-03-26T20:28:59.987Z</time>
      </trkpt>
      <trkpt lat="43.8766" lon="5.70457">
        <ele>462</ele>
        <time>2021-03-26T20:29:01.840Z</time>
      </trkpt>
      <trkpt lat="43.87649" lon="5.70483">
        <ele>459</ele>
        <time>2021-03-26T20:29:04.710Z</time>
      </trkpt>
      <trkpt lat="43.87642" lon="5.70503">
        <ele>458</ele>
        <time>2021-03-26T20:29:06.715Z</time>
      </trkpt>
      <trkpt lat="43.87609" lon="5.70628">
        <ele>459</ele>
        <time>2021-03-26T20:29:46.620Z</time>
      </trkpt>
      <trkpt lat="43.87604" lon="5.70641">
        <ele>460</ele>
        <time>2021-03-26T20:29:56.450Z</time>
      </trkpt>
      <trkpt lat="43.87595" lon="5.70654">
        <ele>463</ele>
        <time>2021-03-26T20:30:15.302Z</time>
      </trkpt>
      <trkpt lat="43.87588" lon="5.70658">
        <ele>465</ele>
        <time>2021-03-26T20:30:26.286Z</time>
      </trkpt>
      <trkpt lat="43.87574" lon="5.7066">
        <ele>466</ele>
        <time>2021-03-26T20:30:37.025Z</time>
      </trkpt>
      <trkpt lat="43.87567" lon="5.70656">
        <ele>466</ele>
        <time>2021-03-26T20:30:39.873Z</time>
      </trkpt>
      <trkpt lat="43.8756" lon="5.70651">
        <ele>466</ele>
        <time>2021-03-26T20:30:42.834Z</time>
      </trkpt>
      <trkpt lat="43.8755" lon="5.70634">
        <ele>466</ele>
        <time>2021-03-26T20:30:48.784Z</time>
      </trkpt>
      <trkpt lat="43.87548" lon="5.70622">
        <ele>467</ele>
        <time>2021-03-26T20:30:58.688Z</time>
      </trkpt>
      <trkpt lat="43.87547" lon="5.706">
        <ele>468</ele>
        <time>2021-03-26T20:31:10.108Z</time>
      </trkpt>
      <trkpt lat="43.87548" lon="5.70464">
        <ele>470</ele>
        <time>2021-03-26T20:31:55.462Z</time>
      </trkpt>
      <trkpt lat="43.87547" lon="5.70429">
        <ele>470</ele>
        <time>2021-03-26T20:32:04.960Z</time>
      </trkpt>
      <trkpt lat="43.87544" lon="5.70405">
        <ele>470</ele>
        <time>2021-03-26T20:32:11.565Z</time>
      </trkpt>
      <trkpt lat="43.87541" lon="5.70386">
        <ele>470</ele>
        <time>2021-03-26T20:32:16.840Z</time>
      </trkpt>
      <trkpt lat="43.87532" lon="5.70354">
        <ele>470</ele>
        <time>2021-03-26T20:32:26.154Z</time>
      </trkpt>
      <trkpt lat="43.87524" lon="5.70336">
        <ele>469</ele>
        <time>2021-03-26T20:32:28.013Z</time>
      </trkpt>
      <trkpt lat="43.8752" lon="5.70328">
        <ele>469</ele>
        <time>2021-03-26T20:32:30.654Z</time>
      </trkpt>
      <trkpt lat="43.875" lon="5.70287">
        <ele>469</ele>
        <time>2021-03-26T20:32:44.078Z</time>
      </trkpt>
      <trkpt lat="43.8739" lon="5.70075">
        <ele>469</ele>
        <time>2021-03-26T20:33:54.908Z</time>
      </trkpt>
      <trkpt lat="43.87308" lon="5.69925">
        <ele>466</ele>
        <time>2021-03-26T20:34:19.705Z</time>
      </trkpt>
      <trkpt lat="43.87281" lon="5.69872">
        <ele>465</ele>
        <time>2021-03-26T20:34:28.325Z</time>
      </trkpt>
      <trkpt lat="43.87269" lon="5.69847">
        <ele>465</ele>
        <time>2021-03-26T20:34:36.470Z</time>
      </trkpt>
      <trkpt lat="43.87269" lon="5.69847">
        <ele>465</ele>
        <time>2021-03-26T20:34:36.470Z</time>
      </trkpt>
      <trkpt lat="43.87162" lon="5.69633">
        <ele>463</ele>
        <time>2021-03-26T20:35:15.951Z</time>
      </trkpt>
      <trkpt lat="43.87134" lon="5.69576">
        <ele>464</ele>
        <time>2021-03-26T20:35:38.880Z</time>
      </trkpt>
      <trkpt lat="43.87117" lon="5.69541">
        <ele>466</ele>
        <time>2021-03-26T20:36:01.192Z</time>
      </trkpt>
      <trkpt lat="43.87096" lon="5.69499">
        <ele>467</ele>
        <time>2021-03-26T20:36:19.638Z</time>
      </trkpt>
      <trkpt lat="43.86834" lon="5.68971">
        <ele>478</ele>
        <time>2021-03-26T20:40:01.936Z</time>
      </trkpt>
      <trkpt lat="43.86799" lon="5.689">
        <ele>478</ele>
        <time>2021-03-26T20:40:25.262Z</time>
      </trkpt>
      <trkpt lat="43.86786" lon="5.68871">
        <ele>479</ele>
        <time>2021-03-26T20:40:40.010Z</time>
      </trkpt>
      <trkpt lat="43.86734" lon="5.68735">
        <ele>481</ele>
        <time>2021-03-26T20:41:30.012Z</time>
      </trkpt>
      <trkpt lat="43.8666" lon="5.6856">
        <ele>482</ele>
        <time>2021-03-26T20:42:28.709Z</time>
      </trkpt>
      <trkpt lat="43.86572" lon="5.68326">
        <ele>487</ele>
        <time>2021-03-26T20:44:02.975Z</time>
      </trkpt>
      <trkpt lat="43.86499" lon="5.68143">
        <ele>491</ele>
        <time>2021-03-26T20:45:17.902Z</time>
      </trkpt>
      <trkpt lat="43.86487" lon="5.68115">
        <ele>491</ele>
        <time>2021-03-26T20:45:26.736Z</time>
      </trkpt>
      <trkpt lat="43.86478" lon="5.68093">
        <ele>492</ele>
        <time>2021-03-26T20:45:39.124Z</time>
      </trkpt>
      <trkpt lat="43.86466" lon="5.6807">
        <ele>492</ele>
        <time>2021-03-26T20:45:46.824Z</time>
      </trkpt>
      <trkpt lat="43.86437" lon="5.68021">
        <ele>491</ele>
        <time>2021-03-26T20:45:55.197Z</time>
      </trkpt>
      <trkpt lat="43.86432" lon="5.68012">
        <ele>491</ele>
        <time>2021-03-26T20:45:58.279Z</time>
      </trkpt>
      <trkpt lat="43.86417" lon="5.67986">
        <ele>491</ele>
        <time>2021-03-26T20:46:07.310Z</time>
      </trkpt>
      <trkpt lat="43.86409" lon="5.67972">
        <ele>490</ele>
        <time>2021-03-26T20:46:09.011Z</time>
      </trkpt>
      <trkpt lat="43.86377" lon="5.67915">
        <ele>488</ele>
        <time>2021-03-26T20:46:17.033Z</time>
      </trkpt>
      <trkpt lat="43.86355" lon="5.67873">
        <ele>486</ele>
        <time>2021-03-26T20:46:22.067Z</time>
      </trkpt>
      <trkpt lat="43.86344" lon="5.67847">
        <ele>485</ele>
        <time>2021-03-26T20:46:25.186Z</time>
      </trkpt>
      <trkpt lat="43.86332" lon="5.67817">
        <ele>484</ele>
        <time>2021-03-26T20:46:28.922Z</time>
      </trkpt>
      <trkpt lat="43.86318" lon="5.67764">
        <ele>482</ele>
        <time>2021-03-26T20:46:34.601Z</time>
      </trkpt>
      <trkpt lat="43.86311" lon="5.67735">
        <ele>481</ele>
        <time>2021-03-26T20:46:37.783Z</time>
      </trkpt>
      <trkpt lat="43.86306" lon="5.67702">
        <ele>478</ele>
        <time>2021-03-26T20:46:40.995Z</time>
      </trkpt>
      <trkpt lat="43.86301" lon="5.67664">
        <ele>475</ele>
        <time>2021-03-26T20:46:44.673Z</time>
      </trkpt>
      <trkpt lat="43.863" lon="5.67633">
        <ele>474</ele>
        <time>2021-03-26T20:46:47.922Z</time>
      </trkpt>
      <trkpt lat="43.863" lon="5.67468">
        <ele>466</ele>
        <time>2021-03-26T20:47:03.636Z</time>
      </trkpt>
      <trkpt lat="43.86301" lon="5.67278">
        <ele>456</ele>
        <time>2021-03-26T20:47:21.732Z</time>
      </trkpt>
      <trkpt lat="43.86303" lon="5.66988">
        <ele>443</ele>
        <time>2021-03-26T20:47:47.927Z</time>
      </trkpt>
      <trkpt lat="43.86303" lon="5.66941">
        <ele>442</ele>
        <time>2021-03-26T20:47:53.635Z</time>
      </trkpt>
      <trkpt lat="43.86308" lon="5.66855">
        <ele>441</ele>
        <time>2021-03-26T20:48:05.845Z</time>
      </trkpt>
      <trkpt lat="43.86327" lon="5.66653">
        <ele>438</ele>
        <time>2021-03-26T20:48:33.209Z</time>
      </trkpt>
      <trkpt lat="43.86335" lon="5.66541">
        <ele>436</ele>
        <time>2021-03-26T20:48:47.617Z</time>
      </trkpt>
      <trkpt lat="43.86343" lon="5.66467">
        <ele>434</ele>
        <time>2021-03-26T20:48:56.034Z</time>
      </trkpt>
      <trkpt lat="43.86344" lon="5.66436">
        <ele>434</ele>
        <time>2021-03-26T20:49:04.450Z</time>
      </trkpt>
      <trkpt lat="43.86345" lon="5.66367">
        <ele>434</ele>
        <time>2021-03-26T20:49:23.168Z</time>
      </trkpt>
      <trkpt lat="43.86344" lon="5.66346">
        <ele>434</ele>
        <time>2021-03-26T20:49:28.875Z</time>
      </trkpt>
      <trkpt lat="43.86343" lon="5.66328">
        <ele>434</ele>
        <time>2021-03-26T20:49:33.772Z</time>
      </trkpt>
      <trkpt lat="43.86342" lon="5.66311">
        <ele>434</ele>
        <time>2021-03-26T20:49:38.398Z</time>
      </trkpt>
      <trkpt lat="43.86341" lon="5.66299">
        <ele>433</ele>
        <time>2021-03-26T20:49:39.548Z</time>
      </trkpt>
      <trkpt lat="43.86339" lon="5.66277">
        <ele>433</ele>
        <time>2021-03-26T20:49:45.562Z</time>
      </trkpt>
      <trkpt lat="43.8633" lon="5.66218">
        <ele>432</ele>
        <time>2021-03-26T20:49:53.427Z</time>
      </trkpt>
      <trkpt lat="43.86307" lon="5.66103">
        <ele>429</ele>
        <time>2021-03-26T20:50:07.146Z</time>
      </trkpt>
      <trkpt lat="43.86281" lon="5.65888">
        <ele>426</ele>
        <time>2021-03-26T20:50:36.895Z</time>
      </trkpt>
      <trkpt lat="43.86276" lon="5.65861">
        <ele>425</ele>
        <time>2021-03-26T20:50:39.685Z</time>
      </trkpt>
      <trkpt lat="43.86274" lon="5.6585">
        <ele>424</ele>
        <time>2021-03-26T20:50:40.765Z</time>
      </trkpt>
      <trkpt lat="43.86272" lon="5.65839">
        <ele>424</ele>
        <time>2021-03-26T20:50:43.842Z</time>
      </trkpt>
      <trkpt lat="43.86266" lon="5.65817">
        <ele>423</ele>
        <time>2021-03-26T20:50:46.021Z</time>
      </trkpt>
      <trkpt lat="43.86249" lon="5.65769">
        <ele>424</ele>
        <time>2021-03-26T20:51:05.045Z</time>
      </trkpt>
      <trkpt lat="43.86232" lon="5.65733">
        <ele>424</ele>
        <time>2021-03-26T20:51:16.716Z</time>
      </trkpt>
      <trkpt lat="43.86213" lon="5.65699">
        <ele>425</ele>
        <time>2021-03-26T20:51:33.273Z</time>
      </trkpt>
      <trkpt lat="43.86196" lon="5.65675">
        <ele>425</ele>
        <time>2021-03-26T20:51:42.398Z</time>
      </trkpt>
      <trkpt lat="43.86178" lon="5.6565">
        <ele>425</ele>
        <time>2021-03-26T20:51:51.981Z</time>
      </trkpt>
      <trkpt lat="43.86147" lon="5.65607">
        <ele>425</ele>
        <time>2021-03-26T20:52:08.473Z</time>
      </trkpt>
      <trkpt lat="43.86137" lon="5.65588">
        <ele>426</ele>
        <time>2021-03-26T20:52:20.325Z</time>
      </trkpt>
      <trkpt lat="43.86124" lon="5.6556">
        <ele>426</ele>
        <time>2021-03-26T20:52:29.357Z</time>
      </trkpt>
      <trkpt lat="43.86114" lon="5.65537">
        <ele>426</ele>
        <time>2021-03-26T20:52:36.642Z</time>
      </trkpt>
      <trkpt lat="43.86104" lon="5.65508">
        <ele>427</ele>
        <time>2021-03-26T20:52:51.058Z</time>
      </trkpt>
      <trkpt lat="43.86094" lon="5.65472">
        <ele>427</ele>
        <time>2021-03-26T20:53:01.522Z</time>
      </trkpt>
      <trkpt lat="43.8608" lon="5.65432">
        <ele>427</ele>
        <time>2021-03-26T20:53:13.581Z</time>
      </trkpt>
      <trkpt lat="43.86064" lon="5.65394">
        <ele>426</ele>
        <time>2021-03-26T20:53:18.815Z</time>
      </trkpt>
      <trkpt lat="43.8605" lon="5.65364">
        <ele>426</ele>
        <time>2021-03-26T20:53:28.508Z</time>
      </trkpt>
      <trkpt lat="43.86012" lon="5.6529">
        <ele>426</ele>
        <time>2021-03-26T20:53:53.149Z</time>
      </trkpt>
      <trkpt lat="43.85998" lon="5.65259">
        <ele>426</ele>
        <time>2021-03-26T20:54:03.070Z</time>
      </trkpt>
      <trkpt lat="43.85989" lon="5.65235">
        <ele>425</ele>
        <time>2021-03-26T20:54:05.742Z</time>
      </trkpt>
      <trkpt lat="43.85922" lon="5.65056">
        <ele>418</ele>
        <time>2021-03-26T20:54:26.215Z</time>
      </trkpt>
      <trkpt lat="43.85889" lon="5.64965">
        <ele>415</ele>
        <time>2021-03-26T20:54:37.265Z</time>
      </trkpt>
      <trkpt lat="43.8587" lon="5.64909">
        <ele>414</ele>
        <time>2021-03-26T20:54:45.391Z</time>
      </trkpt>
      <trkpt lat="43.85858" lon="5.64863">
        <ele>412</ele>
        <time>2021-03-26T20:54:50.008Z</time>
      </trkpt>
      <trkpt lat="43.8582" lon="5.64675">
        <ele>409</ele>
        <time>2021-03-26T20:55:15.969Z</time>
      </trkpt>
      <trkpt lat="43.85793" lon="5.64538">
        <ele>407</ele>
        <time>2021-03-26T20:55:35.250Z</time>
      </trkpt>
      <trkpt lat="43.85788" lon="5.64507">
        <ele>407</ele>
        <time>2021-03-26T20:55:43.867Z</time>
      </trkpt>
      <trkpt lat="43.85783" lon="5.64465">
        <ele>406</ele>
        <time>2021-03-26T20:55:48.875Z</time>
      </trkpt>
      <trkpt lat="43.85785" lon="5.64419">
        <ele>405</ele>
        <time>2021-03-26T20:55:54.438Z</time>
      </trkpt>
      <trkpt lat="43.85862" lon="5.64084">
        <ele>408</ele>
        <time>2021-03-26T20:57:41.402Z</time>
      </trkpt>
      <trkpt lat="43.85883" lon="5.63973">
        <ele>406</ele>
        <time>2021-03-26T20:57:56.172Z</time>
      </trkpt>
      <trkpt lat="43.85892" lon="5.63944">
        <ele>405</ele>
        <time>2021-03-26T20:57:59.501Z</time>
      </trkpt>
      <trkpt lat="43.85898" lon="5.63929">
        <ele>404</ele>
        <time>2021-03-26T20:58:01.135Z</time>
      </trkpt>
      <trkpt lat="43.85927" lon="5.63875">
        <ele>404</ele>
        <time>2021-03-26T20:58:19.397Z</time>
      </trkpt>
      <trkpt lat="43.8594" lon="5.63847">
        <ele>403</ele>
        <time>2021-03-26T20:58:22.983Z</time>
      </trkpt>
      <trkpt lat="43.85946" lon="5.63829">
        <ele>402</ele>
        <time>2021-03-26T20:58:24.872Z</time>
      </trkpt>
      <trkpt lat="43.85955" lon="5.63793">
        <ele>401</ele>
        <time>2021-03-26T20:58:29.186Z</time>
      </trkpt>
      <trkpt lat="43.85962" lon="5.63756">
        <ele>400</ele>
        <time>2021-03-26T20:58:33.524Z</time>
      </trkpt>
      <trkpt lat="43.85967" lon="5.63697">
        <ele>399</ele>
        <time>2021-03-26T20:58:41.241Z</time>
      </trkpt>
      <trkpt lat="43.85966" lon="5.63649">
        <ele>398</ele>
        <time>2021-03-26T20:58:47.112Z</time>
      </trkpt>
      <trkpt lat="43.8596" lon="5.63577">
        <ele>398</ele>
        <time>2021-03-26T20:59:06.771Z</time>
      </trkpt>
      <trkpt lat="43.85958" lon="5.63543">
        <ele>397</ele>
        <time>2021-03-26T20:59:10.479Z</time>
      </trkpt>
      <trkpt lat="43.85957" lon="5.63534">
        <ele>397</ele>
        <time>2021-03-26T20:59:12.948Z</time>
      </trkpt>
      <trkpt lat="43.85953" lon="5.6348">
        <ele>397</ele>
        <time>2021-03-26T20:59:27.672Z</time>
      </trkpt>
      <trkpt lat="43.85947" lon="5.63432">
        <ele>398</ele>
        <time>2021-03-26T20:59:45.547Z</time>
      </trkpt>
      <trkpt lat="43.85923" lon="5.6333">
        <ele>397</ele>
        <time>2021-03-26T21:00:01.342Z</time>
      </trkpt>
      <trkpt lat="43.85914" lon="5.63289">
        <ele>396</ele>
        <time>2021-03-26T21:00:06.396Z</time>
      </trkpt>
      <trkpt lat="43.85913" lon="5.63265">
        <ele>395</ele>
        <time>2021-03-26T21:00:08.647Z</time>
      </trkpt>
      <trkpt lat="43.85914" lon="5.63246">
        <ele>395</ele>
        <time>2021-03-26T21:00:13.814Z</time>
      </trkpt>
      <trkpt lat="43.85936" lon="5.63088">
        <ele>399</ele>
        <time>2021-03-26T21:01:17.604Z</time>
      </trkpt>
      <trkpt lat="43.86016" lon="5.62637">
        <ele>400</ele>
        <time>2021-03-26T21:03:27.119Z</time>
      </trkpt>
      <trkpt lat="43.86015" lon="5.62584">
        <ele>399</ele>
        <time>2021-03-26T21:03:33.795Z</time>
      </trkpt>
      <trkpt lat="43.85987" lon="5.62285">
        <ele>398</ele>
        <time>2021-03-26T21:04:50.190Z</time>
      </trkpt>
      <trkpt lat="43.85969" lon="5.62167">
        <ele>399</ele>
        <time>2021-03-26T21:05:26.755Z</time>
      </trkpt>
      <trkpt lat="43.8594" lon="5.62043">
        <ele>397</ele>
        <time>2021-03-26T21:05:44.095Z</time>
      </trkpt>
      <trkpt lat="43.85924" lon="5.61947">
        <ele>394</ele>
        <time>2021-03-26T21:05:54.646Z</time>
      </trkpt>
      <trkpt lat="43.85866" lon="5.61633">
        <ele>387</ele>
        <time>2021-03-26T21:06:33.834Z</time>
      </trkpt>
      <trkpt lat="43.85856" lon="5.61592">
        <ele>385</ele>
        <time>2021-03-26T21:06:37.686Z</time>
      </trkpt>
      <trkpt lat="43.85802" lon="5.61393">
        <ele>378</ele>
        <time>2021-03-26T21:06:59.753Z</time>
      </trkpt>
      <trkpt lat="43.85789" lon="5.61341">
        <ele>378</ele>
        <time>2021-03-26T21:07:14.681Z</time>
      </trkpt>
      <trkpt lat="43.85784" lon="5.61318">
        <ele>378</ele>
        <time>2021-03-26T21:07:21.197Z</time>
      </trkpt>
      <trkpt lat="43.85759" lon="5.61224">
        <ele>379</ele>
        <time>2021-03-26T21:07:52.318Z</time>
      </trkpt>
      <trkpt lat="43.85676" lon="5.60857">
        <ele>378</ele>
        <time>2021-03-26T21:09:31.185Z</time>
      </trkpt>
      <trkpt lat="43.85673" lon="5.60835">
        <ele>378</ele>
        <time>2021-03-26T21:09:37.258Z</time>
      </trkpt>
      <trkpt lat="43.85672" lon="5.60814">
        <ele>377</ele>
        <time>2021-03-26T21:09:39.105Z</time>
      </trkpt>
      <trkpt lat="43.85675" lon="5.60732">
        <ele>376</ele>
        <time>2021-03-26T21:09:50.610Z</time>
      </trkpt>
      <trkpt lat="43.85691" lon="5.60506">
        <ele>376</ele>
        <time>2021-03-26T21:10:52.206Z</time>
      </trkpt>
      <trkpt lat="43.8573" lon="5.60192">
        <ele>376</ele>
        <time>2021-03-26T21:12:18.631Z</time>
      </trkpt>
      <trkpt lat="43.85743" lon="5.60054">
        <ele>375</ele>
        <time>2021-03-26T21:12:39.927Z</time>
      </trkpt>
      <trkpt lat="43.85761" lon="5.59892">
        <ele>373</ele>
        <time>2021-03-26T21:13:02.886Z</time>
      </trkpt>
      <trkpt lat="43.85769" lon="5.59867">
        <ele>372</ele>
        <time>2021-03-26T21:13:05.601Z</time>
      </trkpt>
      <trkpt lat="43.85772" lon="5.59863">
        <ele>372</ele>
        <time>2021-03-26T21:13:07.166Z</time>
      </trkpt>
      <trkpt lat="43.85774" lon="5.59858">
        <ele>372</ele>
        <time>2021-03-26T21:13:08.717Z</time>
      </trkpt>
      <trkpt lat="43.85773" lon="5.59852">
        <ele>372</ele>
        <time>2021-03-26T21:13:10.388Z</time>
      </trkpt>
      <trkpt lat="43.8577" lon="5.59847">
        <ele>372</ele>
        <time>2021-03-26T21:13:12.152Z</time>
      </trkpt>
      <trkpt lat="43.85765" lon="5.59816">
        <ele>372</ele>
        <time>2021-03-26T21:13:20.768Z</time>
      </trkpt>
      <trkpt lat="43.85757" lon="5.59637">
        <ele>367</ele>
        <time>2021-03-26T21:13:40.633Z</time>
      </trkpt>
      <trkpt lat="43.85756" lon="5.59615">
        <ele>367</ele>
        <time>2021-03-26T21:13:46.612Z</time>
      </trkpt>
      <trkpt lat="43.8575" lon="5.59471">
        <ele>375</ele>
        <time>2021-03-26T21:15:09.673Z</time>
      </trkpt>
      <trkpt lat="43.85747" lon="5.59446">
        <ele>376</ele>
        <time>2021-03-26T21:15:22.076Z</time>
      </trkpt>
      <trkpt lat="43.85742" lon="5.59419">
        <ele>377</ele>
        <time>2021-03-26T21:15:35.276Z</time>
      </trkpt>
      <trkpt lat="43.85738" lon="5.59404">
        <ele>377</ele>
        <time>2021-03-26T21:15:39.614Z</time>
      </trkpt>
      <trkpt lat="43.85709" lon="5.59343">
        <ele>378</ele>
        <time>2021-03-26T21:16:03.603Z</time>
      </trkpt>
      <trkpt lat="43.85634" lon="5.59175">
        <ele>384</ele>
        <time>2021-03-26T21:17:30.855Z</time>
      </trkpt>
      <trkpt lat="43.85624" lon="5.59142">
        <ele>386</ele>
        <time>2021-03-26T21:17:51.561Z</time>
      </trkpt>
      <trkpt lat="43.85621" lon="5.59126">
        <ele>387</ele>
        <time>2021-03-26T21:18:01.640Z</time>
      </trkpt>
      <trkpt lat="43.85616" lon="5.59066">
        <ele>391</ele>
        <time>2021-03-26T21:18:41.108Z</time>
      </trkpt>
      <trkpt lat="43.85614" lon="5.59028">
        <ele>394</ele>
        <time>2021-03-26T21:19:10.628Z</time>
      </trkpt>
      <trkpt lat="43.85621" lon="5.58999">
        <ele>396</ele>
        <time>2021-03-26T21:19:30.407Z</time>
      </trkpt>
      <trkpt lat="43.85675" lon="5.58835">
        <ele>397</ele>
        <time>2021-03-26T21:20:23.016Z</time>
      </trkpt>
      <trkpt lat="43.85694" lon="5.58816">
        <ele>394</ele>
        <time>2021-03-26T21:20:26.111Z</time>
      </trkpt>
      <trkpt lat="43.85699" lon="5.58816">
        <ele>394</ele>
        <time>2021-03-26T21:20:27.991Z</time>
      </trkpt>
      <trkpt lat="43.85701" lon="5.58812">
        <ele>393</ele>
        <time>2021-03-26T21:20:28.455Z</time>
      </trkpt>
      <trkpt lat="43.85736" lon="5.5879">
        <ele>390</ele>
        <time>2021-03-26T21:20:33.531Z</time>
      </trkpt>
      <trkpt lat="43.85751" lon="5.58777">
        <ele>389</ele>
        <time>2021-03-26T21:20:35.849Z</time>
      </trkpt>
      <trkpt lat="43.85763" lon="5.58758">
        <ele>387</ele>
        <time>2021-03-26T21:20:38.255Z</time>
      </trkpt>
      <trkpt lat="43.85795" lon="5.58683">
        <ele>391</ele>
        <time>2021-03-26T21:21:23.648Z</time>
      </trkpt>
      <trkpt lat="43.85806" lon="5.58664">
        <ele>391</ele>
        <time>2021-03-26T21:21:30.258Z</time>
      </trkpt>
      <trkpt lat="43.8582" lon="5.58643">
        <ele>393</ele>
        <time>2021-03-26T21:21:49.855Z</time>
      </trkpt>
      <trkpt lat="43.85836" lon="5.58629">
        <ele>394</ele>
        <time>2021-03-26T21:22:02.536Z</time>
      </trkpt>
      <trkpt lat="43.85868" lon="5.58606">
        <ele>392</ele>
        <time>2021-03-26T21:22:07.301Z</time>
      </trkpt>
      <trkpt lat="43.85907" lon="5.58558">
        <ele>392</ele>
        <time>2021-03-26T21:22:26.915Z</time>
      </trkpt>
      <trkpt lat="43.85954" lon="5.5851">
        <ele>389</ele>
        <time>2021-03-26T21:22:34.903Z</time>
      </trkpt>
      <trkpt lat="43.85965" lon="5.58491">
        <ele>387</ele>
        <time>2021-03-26T21:22:37.224Z</time>
      </trkpt>
      <trkpt lat="43.85969" lon="5.58474">
        <ele>386</ele>
        <time>2021-03-26T21:22:38.927Z</time>
      </trkpt>
      <trkpt lat="43.8597" lon="5.58367">
        <ele>390</ele>
        <time>2021-03-26T21:23:30.298Z</time>
      </trkpt>
      <trkpt lat="43.85972" lon="5.58345">
        <ele>390</ele>
        <time>2021-03-26T21:23:36.312Z</time>
      </trkpt>
      <trkpt lat="43.85979" lon="5.5831">
        <ele>387</ele>
        <time>2021-03-26T21:23:39.771Z</time>
      </trkpt>
      <trkpt lat="43.85996" lon="5.58253">
        <ele>381</ele>
        <time>2021-03-26T21:23:45.646Z</time>
      </trkpt>
      <trkpt lat="43.86001" lon="5.58229">
        <ele>379</ele>
        <time>2021-03-26T21:23:48.026Z</time>
      </trkpt>
      <trkpt lat="43.86003" lon="5.5821">
        <ele>379</ele>
        <time>2021-03-26T21:23:53.234Z</time>
      </trkpt>
      <trkpt lat="43.86001" lon="5.58151">
        <ele>380</ele>
        <time>2021-03-26T21:24:13.644Z</time>
      </trkpt>
      <trkpt lat="43.86003" lon="5.58092">
        <ele>380</ele>
        <time>2021-03-26T21:24:29.664Z</time>
      </trkpt>
      <trkpt lat="43.86019" lon="5.57999">
        <ele>376</ele>
        <time>2021-03-26T21:24:38.591Z</time>
      </trkpt>
      <trkpt lat="43.86021" lon="5.57921">
        <ele>376</ele>
        <time>2021-03-26T21:24:59.760Z</time>
      </trkpt>
      <trkpt lat="43.86029" lon="5.57844">
        <ele>372</ele>
        <time>2021-03-26T21:25:07.170Z</time>
      </trkpt>
      <trkpt lat="43.86028" lon="5.57807">
        <ele>372</ele>
        <time>2021-03-26T21:25:17.212Z</time>
      </trkpt>
      <trkpt lat="43.86014" lon="5.57704">
        <ele>374</ele>
        <time>2021-03-26T21:25:54.737Z</time>
      </trkpt>
      <trkpt lat="43.86012" lon="5.57683">
        <ele>374</ele>
        <time>2021-03-26T21:26:00.483Z</time>
      </trkpt>
      <trkpt lat="43.86012" lon="5.57669">
        <ele>374</ele>
        <time>2021-03-26T21:26:04.280Z</time>
      </trkpt>
      <trkpt lat="43.86012" lon="5.57655">
        <ele>375</ele>
        <time>2021-03-26T21:26:14.065Z</time>
      </trkpt>
      <trkpt lat="43.86034" lon="5.57506">
        <ele>373</ele>
        <time>2021-03-26T21:26:35.032Z</time>
      </trkpt>
      <trkpt lat="43.86034" lon="5.57438">
        <ele>373</ele>
        <time>2021-03-26T21:26:53.475Z</time>
      </trkpt>
      <trkpt lat="43.8603" lon="5.57336">
        <ele>373</ele>
        <time>2021-03-26T21:27:21.182Z</time>
      </trkpt>
      <trkpt lat="43.86025" lon="5.57312">
        <ele>372</ele>
        <time>2021-03-26T21:27:23.563Z</time>
      </trkpt>
      <trkpt lat="43.86001" lon="5.5724">
        <ele>371</ele>
        <time>2021-03-26T21:27:34.597Z</time>
      </trkpt>
      <trkpt lat="43.85987" lon="5.57212">
        <ele>369</ele>
        <time>2021-03-26T21:27:37.842Z</time>
      </trkpt>
      <trkpt lat="43.85966" lon="5.57182">
        <ele>368</ele>
        <time>2021-03-26T21:27:42.732Z</time>
      </trkpt>
      <trkpt lat="43.85939" lon="5.57154">
        <ele>367</ele>
        <time>2021-03-26T21:27:48.402Z</time>
      </trkpt>
      <trkpt lat="43.85914" lon="5.57119">
        <ele>366</ele>
        <time>2021-03-26T21:27:54.473Z</time>
      </trkpt>
      <trkpt lat="43.85894" lon="5.57082">
        <ele>365</ele>
        <time>2021-03-26T21:28:00.061Z</time>
      </trkpt>
      <trkpt lat="43.85884" lon="5.57059">
        <ele>365</ele>
        <time>2021-03-26T21:28:07.346Z</time>
      </trkpt>
      <trkpt lat="43.85869" lon="5.57013">
        <ele>365</ele>
        <time>2021-03-26T21:28:21.039Z</time>
      </trkpt>
      <trkpt lat="43.85866" lon="5.56979">
        <ele>365</ele>
        <time>2021-03-26T21:28:30.330Z</time>
      </trkpt>
      <trkpt lat="43.85866" lon="5.56959">
        <ele>365</ele>
        <time>2021-03-26T21:28:35.755Z</time>
      </trkpt>
      <trkpt lat="43.85874" lon="5.56866">
        <ele>365</ele>
        <time>2021-03-26T21:29:01.159Z</time>
      </trkpt>
      <trkpt lat="43.85883" lon="5.56798">
        <ele>364</ele>
        <time>2021-03-26T21:29:10.486Z</time>
      </trkpt>
      <trkpt lat="43.85884" lon="5.56779">
        <ele>363</ele>
        <time>2021-03-26T21:29:12.301Z</time>
      </trkpt>
      <trkpt lat="43.85883" lon="5.56745">
        <ele>363</ele>
        <time>2021-03-26T21:29:21.530Z</time>
      </trkpt>
      <trkpt lat="43.85873" lon="5.56698">
        <ele>363</ele>
        <time>2021-03-26T21:29:34.822Z</time>
      </trkpt>
      <trkpt lat="43.85867" lon="5.56677">
        <ele>363</ele>
        <time>2021-03-26T21:29:40.949Z</time>
      </trkpt>
      <trkpt lat="43.85852" lon="5.56642">
        <ele>361</ele>
        <time>2021-03-26T21:29:44.827Z</time>
      </trkpt>
      <trkpt lat="43.85831" lon="5.56604">
        <ele>357</ele>
        <time>2021-03-26T21:29:49.387Z</time>
      </trkpt>
      <trkpt lat="43.85803" lon="5.56564">
        <ele>354</ele>
        <time>2021-03-26T21:29:54.696Z</time>
      </trkpt>
      <trkpt lat="43.85768" lon="5.56527">
        <ele>352</ele>
        <time>2021-03-26T21:30:01.043Z</time>
      </trkpt>
      <trkpt lat="43.85755" lon="5.56515">
        <ele>352</ele>
        <time>2021-03-26T21:30:06.917Z</time>
      </trkpt>
      <trkpt lat="43.85725" lon="5.56495">
        <ele>350</ele>
        <time>2021-03-26T21:30:11.157Z</time>
      </trkpt>
      <trkpt lat="43.85709" lon="5.56487">
        <ele>350</ele>
        <time>2021-03-26T21:30:17.554Z</time>
      </trkpt>
      <trkpt lat="43.85684" lon="5.56479">
        <ele>349</ele>
        <time>2021-03-26T21:30:21.484Z</time>
      </trkpt>
      <trkpt lat="43.85627" lon="5.56465">
        <ele>349</ele>
        <time>2021-03-26T21:30:43.259Z</time>
      </trkpt>
      <trkpt lat="43.85613" lon="5.56459">
        <ele>348</ele>
        <time>2021-03-26T21:30:45.195Z</time>
      </trkpt>
      <trkpt lat="43.85593" lon="5.56443">
        <ele>346</ele>
        <time>2021-03-26T21:30:48.245Z</time>
      </trkpt>
      <trkpt lat="43.85585" lon="5.56429">
        <ele>345</ele>
        <time>2021-03-26T21:30:49.946Z</time>
      </trkpt>
      <trkpt lat="43.85579" lon="5.56403">
        <ele>342</ele>
        <time>2021-03-26T21:30:52.546Z</time>
      </trkpt>
      <trkpt lat="43.8558" lon="5.5639">
        <ele>341</ele>
        <time>2021-03-26T21:30:53.792Z</time>
      </trkpt>
      <trkpt lat="43.85584" lon="5.56368">
        <ele>340</ele>
        <time>2021-03-26T21:30:55.858Z</time>
      </trkpt>
      <trkpt lat="43.8559" lon="5.56356">
        <ele>339</ele>
        <time>2021-03-26T21:30:57.249Z</time>
      </trkpt>
      <trkpt lat="43.85718" lon="5.56176">
        <ele>331</ele>
        <time>2021-03-26T21:31:23.912Z</time>
      </trkpt>
      <trkpt lat="43.85755" lon="5.56121">
        <ele>329</ele>
        <time>2021-03-26T21:31:32.390Z</time>
      </trkpt>
      <trkpt lat="43.85766" lon="5.56106">
        <ele>329</ele>
        <time>2021-03-26T21:31:38.193Z</time>
      </trkpt>
      <trkpt lat="43.85775" lon="5.56088">
        <ele>329</ele>
        <time>2021-03-26T21:31:44.134Z</time>
      </trkpt>
      <trkpt lat="43.8578" lon="5.56075">
        <ele>329</ele>
        <time>2021-03-26T21:31:48.131Z</time>
      </trkpt>
      <trkpt lat="43.85787" lon="5.56049">
        <ele>329</ele>
        <time>2021-03-26T21:31:55.658Z</time>
      </trkpt>
      <trkpt lat="43.85791" lon="5.56023">
        <ele>328</ele>
        <time>2021-03-26T21:31:58.265Z</time>
      </trkpt>
      <trkpt lat="43.85796" lon="5.55935">
        <ele>329</ele>
        <time>2021-03-26T21:32:26.233Z</time>
      </trkpt>
      <trkpt lat="43.85807" lon="5.55859">
        <ele>329</ele>
        <time>2021-03-26T21:32:47.258Z</time>
      </trkpt>
      <trkpt lat="43.85812" lon="5.55816">
        <ele>329</ele>
        <time>2021-03-26T21:32:59.072Z</time>
      </trkpt>
      <trkpt lat="43.85812" lon="5.55785">
        <ele>330</ele>
        <time>2021-03-26T21:33:13.284Z</time>
      </trkpt>
      <trkpt lat="43.85806" lon="5.55725">
        <ele>331</ele>
        <time>2021-03-26T21:33:34.075Z</time>
      </trkpt>
      <trkpt lat="43.85801" lon="5.55703">
        <ele>331</ele>
        <time>2021-03-26T21:33:40.331Z</time>
      </trkpt>
      <trkpt lat="43.85708" lon="5.5543">
        <ele>335</ele>
        <time>2021-03-26T21:35:18.800Z</time>
      </trkpt>
      <trkpt lat="43.85697" lon="5.55403">
        <ele>334</ele>
        <time>2021-03-26T21:35:22.046Z</time>
      </trkpt>
      <trkpt lat="43.85677" lon="5.55364">
        <ele>333</ele>
        <time>2021-03-26T21:35:27.891Z</time>
      </trkpt>
      <trkpt lat="43.85591" lon="5.55224">
        <ele>330</ele>
        <time>2021-03-26T21:35:51.981Z</time>
      </trkpt>
      <trkpt lat="43.85578" lon="5.55194">
        <ele>331</ele>
        <time>2021-03-26T21:36:06.884Z</time>
      </trkpt>
      <trkpt lat="43.85565" lon="5.55146">
        <ele>331</ele>
        <time>2021-03-26T21:36:20.792Z</time>
      </trkpt>
      <trkpt lat="43.85515" lon="5.5494">
        <ele>329</ele>
        <time>2021-03-26T21:36:52.861Z</time>
      </trkpt>
      <trkpt lat="43.85503" lon="5.54897">
        <ele>328</ele>
        <time>2021-03-26T21:36:58.429Z</time>
      </trkpt>
      <trkpt lat="43.85488" lon="5.54854">
        <ele>328</ele>
        <time>2021-03-26T21:37:11.386Z</time>
      </trkpt>
      <trkpt lat="43.85444" lon="5.54737">
        <ele>329</ele>
        <time>2021-03-26T21:37:50.992Z</time>
      </trkpt>
      <trkpt lat="43.85431" lon="5.547">
        <ele>328</ele>
        <time>2021-03-26T21:37:55.780Z</time>
      </trkpt>
      <trkpt lat="43.85423" lon="5.54674">
        <ele>328</ele>
        <time>2021-03-26T21:38:03.448Z</time>
      </trkpt>
      <trkpt lat="43.8541" lon="5.54621">
        <ele>328</ele>
        <time>2021-03-26T21:38:18.634Z</time>
      </trkpt>
      <trkpt lat="43.8538" lon="5.54461">
        <ele>326</ele>
        <time>2021-03-26T21:38:41.832Z</time>
      </trkpt>
      <trkpt lat="43.85376" lon="5.54426">
        <ele>326</ele>
        <time>2021-03-26T21:38:51.444Z</time>
      </trkpt>
      <trkpt lat="43.85373" lon="5.54379">
        <ele>327</ele>
        <time>2021-03-26T21:39:08.958Z</time>
      </trkpt>
      <trkpt lat="43.85371" lon="5.54315">
        <ele>328</ele>
        <time>2021-03-26T21:39:30.633Z</time>
      </trkpt>
      <trkpt lat="43.85369" lon="5.5428">
        <ele>328</ele>
        <time>2021-03-26T21:39:40.157Z</time>
      </trkpt>
      <trkpt lat="43.85364" lon="5.54246">
        <ele>328</ele>
        <time>2021-03-26T21:39:49.570Z</time>
      </trkpt>
      <trkpt lat="43.85357" lon="5.54212">
        <ele>327</ele>
        <time>2021-03-26T21:39:53.466Z</time>
      </trkpt>
      <trkpt lat="43.85346" lon="5.54174">
        <ele>326</ele>
        <time>2021-03-26T21:39:58.221Z</time>
      </trkpt>
      <trkpt lat="43.85334" lon="5.54144">
        <ele>324</ele>
        <time>2021-03-26T21:40:01.489Z</time>
      </trkpt>
      <trkpt lat="43.853" lon="5.54063">
        <ele>323</ele>
        <time>2021-03-26T21:40:14.966Z</time>
      </trkpt>
      <trkpt lat="43.85271" lon="5.53999">
        <ele>323</ele>
        <time>2021-03-26T21:40:35.470Z</time>
      </trkpt>
      <trkpt lat="43.85256" lon="5.53952">
        <ele>322</ele>
        <time>2021-03-26T21:40:41.884Z</time>
      </trkpt>
      <trkpt lat="43.85188" lon="5.53706">
        <ele>322</ele>
        <time>2021-03-26T21:41:53.350Z</time>
      </trkpt>
      <trkpt lat="43.85179" lon="5.53643">
        <ele>322</ele>
        <time>2021-03-26T21:42:10.772Z</time>
      </trkpt>
      <trkpt lat="43.85177" lon="5.53618">
        <ele>322</ele>
        <time>2021-03-26T21:42:17.596Z</time>
      </trkpt>
      <trkpt lat="43.85172" lon="5.53265">
        <ele>319</ele>
        <time>2021-03-26T21:43:10.353Z</time>
      </trkpt>
      <trkpt lat="43.85175" lon="5.53224">
        <ele>319</ele>
        <time>2021-03-26T21:43:21.532Z</time>
      </trkpt>
      <trkpt lat="43.85189" lon="5.53164">
        <ele>320</ele>
        <time>2021-03-26T21:43:42.953Z</time>
      </trkpt>
      <trkpt lat="43.85194" lon="5.53112">
        <ele>318</ele>
        <time>2021-03-26T21:43:48.066Z</time>
      </trkpt>
      <trkpt lat="43.85199" lon="5.52945">
        <ele>319</ele>
        <time>2021-03-26T21:44:37.136Z</time>
      </trkpt>
      <trkpt lat="43.85195" lon="5.52916">
        <ele>319</ele>
        <time>2021-03-26T21:44:45.145Z</time>
      </trkpt>
      <trkpt lat="43.85191" lon="5.52895">
        <ele>319</ele>
        <time>2021-03-26T21:44:51.037Z</time>
      </trkpt>
      <trkpt lat="43.85145" lon="5.52704">
        <ele>320</ele>
        <time>2021-03-26T21:45:49.340Z</time>
      </trkpt>
      <trkpt lat="43.85143" lon="5.52687">
        <ele>321</ele>
        <time>2021-03-26T21:45:59.551Z</time>
      </trkpt>
      <trkpt lat="43.85141" lon="5.52648">
        <ele>321</ele>
        <time>2021-03-26T21:46:10.158Z</time>
      </trkpt>
      <trkpt lat="43.85143" lon="5.52607">
        <ele>322</ele>
        <time>2021-03-26T21:46:26.292Z</time>
      </trkpt>
      <trkpt lat="43.85169" lon="5.52458">
        <ele>322</ele>
        <time>2021-03-26T21:47:07.878Z</time>
      </trkpt>
      <trkpt lat="43.85172" lon="5.5244">
        <ele>322</ele>
        <time>2021-03-26T21:47:12.889Z</time>
      </trkpt>
      <trkpt lat="43.85174" lon="5.5241">
        <ele>322</ele>
        <time>2021-03-26T21:47:21.062Z</time>
      </trkpt>
      <trkpt lat="43.85162" lon="5.52274">
        <ele>317</ele>
        <time>2021-03-26T21:47:34.676Z</time>
      </trkpt>
      <trkpt lat="43.85162" lon="5.52236">
        <ele>316</ele>
        <time>2021-03-26T21:47:38.975Z</time>
      </trkpt>
      <trkpt lat="43.85223" lon="5.51955">
        <ele>314</ele>
        <time>2021-03-26T21:48:24.193Z</time>
      </trkpt>
      <trkpt lat="43.85231" lon="5.5192">
        <ele>313</ele>
        <time>2021-03-26T21:48:28.296Z</time>
      </trkpt>
      <trkpt lat="43.85264" lon="5.51769">
        <ele>318</ele>
        <time>2021-03-26T21:49:39.931Z</time>
      </trkpt>
      <trkpt lat="43.85275" lon="5.51741">
        <ele>319</ele>
        <time>2021-03-26T21:49:54.307Z</time>
      </trkpt>
      <trkpt lat="43.85281" lon="5.51728">
        <ele>319</ele>
        <time>2021-03-26T21:49:58.494Z</time>
      </trkpt>
      <trkpt lat="43.85331" lon="5.51652">
        <ele>319</ele>
        <time>2021-03-26T21:50:26.401Z</time>
      </trkpt>
      <trkpt lat="43.85356" lon="5.51577">
        <ele>323</ele>
        <time>2021-03-26T21:51:10.547Z</time>
      </trkpt>
      <trkpt lat="43.85362" lon="5.51551">
        <ele>325</ele>
        <time>2021-03-26T21:51:30.109Z</time>
      </trkpt>
      <trkpt lat="43.85364" lon="5.5152">
        <ele>325</ele>
        <time>2021-03-26T21:51:38.551Z</time>
      </trkpt>
      <trkpt lat="43.85361" lon="5.51264">
        <ele>314</ele>
        <time>2021-03-26T21:52:02.162Z</time>
      </trkpt>
      <trkpt lat="43.85359" lon="5.51204">
        <ele>313</ele>
        <time>2021-03-26T21:52:09.988Z</time>
      </trkpt>
      <trkpt lat="43.85357" lon="5.51175">
        <ele>313</ele>
        <time>2021-03-26T21:52:17.890Z</time>
      </trkpt>
      <trkpt lat="43.85346" lon="5.5112">
        <ele>310</ele>
        <time>2021-03-26T21:52:23.327Z</time>
      </trkpt>
      <trkpt lat="43.85338" lon="5.51089">
        <ele>309</ele>
        <time>2021-03-26T21:52:26.857Z</time>
      </trkpt>
      <trkpt lat="43.85331" lon="5.51069">
        <ele>309</ele>
        <time>2021-03-26T21:52:32.888Z</time>
      </trkpt>
      <trkpt lat="43.85319" lon="5.51039">
        <ele>310</ele>
        <time>2021-03-26T21:52:47.665Z</time>
      </trkpt>
      <trkpt lat="43.85297" lon="5.50997">
        <ele>310</ele>
        <time>2021-03-26T21:53:01.747Z</time>
      </trkpt>
      <trkpt lat="43.85252" lon="5.50919">
        <ele>310</ele>
        <time>2021-03-26T21:53:28.843Z</time>
      </trkpt>
      <trkpt lat="43.85128" lon="5.50689">
        <ele>304</ele>
        <time>2021-03-26T21:54:03.926Z</time>
      </trkpt>
      <trkpt lat="43.85112" lon="5.50658">
        <ele>303</ele>
        <time>2021-03-26T21:54:08.244Z</time>
      </trkpt>
      <trkpt lat="43.85094" lon="5.50618">
        <ele>302</ele>
        <time>2021-03-26T21:54:13.978Z</time>
      </trkpt>
      <trkpt lat="43.85084" lon="5.50583">
        <ele>302</ele>
        <time>2021-03-26T21:54:24.190Z</time>
      </trkpt>
      <trkpt lat="43.85074" lon="5.50507">
        <ele>305</ele>
        <time>2021-03-26T21:55:01.783Z</time>
      </trkpt>
      <trkpt lat="43.85071" lon="5.50482">
        <ele>305</ele>
        <time>2021-03-26T21:55:08.658Z</time>
      </trkpt>
      <trkpt lat="43.85052" lon="5.50332">
        <ele>304</ele>
        <time>2021-03-26T21:55:32.234Z</time>
      </trkpt>
      <trkpt lat="43.85049" lon="5.50284">
        <ele>303</ele>
        <time>2021-03-26T21:55:38.133Z</time>
      </trkpt>
      <trkpt lat="43.8507" lon="5.49927">
        <ele>301</ele>
        <time>2021-03-26T21:56:34.617Z</time>
      </trkpt>
      <trkpt lat="43.85072" lon="5.49906">
        <ele>301</ele>
        <time>2021-03-26T21:56:40.363Z</time>
      </trkpt>
      <trkpt lat="43.85075" lon="5.49841">
        <ele>301</ele>
        <time>2021-03-26T21:56:58.032Z</time>
      </trkpt>
      <trkpt lat="43.85053" lon="5.49448">
        <ele>303</ele>
        <time>2021-03-26T21:58:52.329Z</time>
      </trkpt>
      <trkpt lat="43.85052" lon="5.49402">
        <ele>302</ele>
        <time>2021-03-26T21:58:57.883Z</time>
      </trkpt>
      <trkpt lat="43.85054" lon="5.49385">
        <ele>302</ele>
        <time>2021-03-26T21:59:02.556Z</time>
      </trkpt>
      <trkpt lat="43.85058" lon="5.49357">
        <ele>302</ele>
        <time>2021-03-26T21:59:10.299Z</time>
      </trkpt>
      <trkpt lat="43.85063" lon="5.49317">
        <ele>303</ele>
        <time>2021-03-26T21:59:26.326Z</time>
      </trkpt>
      <trkpt lat="43.85061" lon="5.49289">
        <ele>303</ele>
        <time>2021-03-26T21:59:33.959Z</time>
      </trkpt>
      <trkpt lat="43.85038" lon="5.49154">
        <ele>303</ele>
        <time>2021-03-26T22:00:11.589Z</time>
      </trkpt>
      <trkpt lat="43.85036" lon="5.49128">
        <ele>303</ele>
        <time>2021-03-26T22:00:18.683Z</time>
      </trkpt>
      <trkpt lat="43.85036" lon="5.4911">
        <ele>302</ele>
        <time>2021-03-26T22:00:20.397Z</time>
      </trkpt>
      <trkpt lat="43.8504" lon="5.49076">
        <ele>303</ele>
        <time>2021-03-26T22:00:35.200Z</time>
      </trkpt>
      <trkpt lat="43.85052" lon="5.49018">
        <ele>302</ele>
        <time>2021-03-26T22:00:43.073Z</time>
      </trkpt>
      <trkpt lat="43.85063" lon="5.48988">
        <ele>302</ele>
        <time>2021-03-26T22:00:52.202Z</time>
      </trkpt>
      <trkpt lat="43.85073" lon="5.48971">
        <ele>302</ele>
        <time>2021-03-26T22:00:58.154Z</time>
      </trkpt>
      <trkpt lat="43.85121" lon="5.48897">
        <ele>308</ele>
        <time>2021-03-26T22:01:58.689Z</time>
      </trkpt>
      <trkpt lat="43.85148" lon="5.48845">
        <ele>311</ele>
        <time>2021-03-26T22:02:32.377Z</time>
      </trkpt>
      <trkpt lat="43.85162" lon="5.4881">
        <ele>312</ele>
        <time>2021-03-26T22:02:48.281Z</time>
      </trkpt>
      <trkpt lat="43.8517" lon="5.48776">
        <ele>312</ele>
        <time>2021-03-26T22:02:57.983Z</time>
      </trkpt>
      <trkpt lat="43.85176" lon="5.48731">
        <ele>311</ele>
        <time>2021-03-26T22:03:03.496Z</time>
      </trkpt>
      <trkpt lat="43.85177" lon="5.4869">
        <ele>309</ele>
        <time>2021-03-26T22:03:07.404Z</time>
      </trkpt>
      <trkpt lat="43.85182" lon="5.48609">
        <ele>309</ele>
        <time>2021-03-26T22:03:29.457Z</time>
      </trkpt>
      <trkpt lat="43.85182" lon="5.48588">
        <ele>309</ele>
        <time>2021-03-26T22:03:35.153Z</time>
      </trkpt>
      <trkpt lat="43.85176" lon="5.48474">
        <ele>307</ele>
        <time>2021-03-26T22:03:49.852Z</time>
      </trkpt>
      <trkpt lat="43.85167" lon="5.4839">
        <ele>306</ele>
        <time>2021-03-26T22:04:01.834Z</time>
      </trkpt>
      <trkpt lat="43.85164" lon="5.48373">
        <ele>306</ele>
        <time>2021-03-26T22:04:06.582Z</time>
      </trkpt>
      <trkpt lat="43.85153" lon="5.48339">
        <ele>306</ele>
        <time>2021-03-26T22:04:16.691Z</time>
      </trkpt>
      <trkpt lat="43.85145" lon="5.48325">
        <ele>305</ele>
        <time>2021-03-26T22:04:18.392Z</time>
      </trkpt>
      <trkpt lat="43.8509" lon="5.48242">
        <ele>301</ele>
        <time>2021-03-26T22:04:29.729Z</time>
      </trkpt>
      <trkpt lat="43.85082" lon="5.48225">
        <ele>300</ele>
        <time>2021-03-26T22:04:31.663Z</time>
      </trkpt>
      <trkpt lat="43.85076" lon="5.48201">
        <ele>301</ele>
        <time>2021-03-26T22:04:44.085Z</time>
      </trkpt>
      <trkpt lat="43.85063" lon="5.4814">
        <ele>301</ele>
        <time>2021-03-26T22:05:01.340Z</time>
      </trkpt>
      <trkpt lat="43.8506" lon="5.48108">
        <ele>300</ele>
        <time>2021-03-26T22:05:04.773Z</time>
      </trkpt>
      <trkpt lat="43.85064" lon="5.48083">
        <ele>300</ele>
        <time>2021-03-26T22:05:11.719Z</time>
      </trkpt>
      <trkpt lat="43.85073" lon="5.48059">
        <ele>300</ele>
        <time>2021-03-26T22:05:19.058Z</time>
      </trkpt>
      <trkpt lat="43.85082" lon="5.48044">
        <ele>300</ele>
        <time>2021-03-26T22:05:24.351Z</time>
      </trkpt>
      <trkpt lat="43.8509" lon="5.48034">
        <ele>300</ele>
        <time>2021-03-26T22:05:28.402Z</time>
      </trkpt>
      <trkpt lat="43.85099" lon="5.48029">
        <ele>300</ele>
        <time>2021-03-26T22:05:32.050Z</time>
      </trkpt>
      <trkpt lat="43.85173" lon="5.47997">
        <ele>302</ele>
        <time>2021-03-26T22:06:10.232Z</time>
      </trkpt>
      <trkpt lat="43.85223" lon="5.47978">
        <ele>302</ele>
        <time>2021-03-26T22:06:29.734Z</time>
      </trkpt>
      <trkpt lat="43.85249" lon="5.47964">
        <ele>301</ele>
        <time>2021-03-26T22:06:34.138Z</time>
      </trkpt>
      <trkpt lat="43.85266" lon="5.4795">
        <ele>302</ele>
        <time>2021-03-26T22:06:47.192Z</time>
      </trkpt>
      <trkpt lat="43.85279" lon="5.47928">
        <ele>301</ele>
        <time>2021-03-26T22:06:50.064Z</time>
      </trkpt>
      <trkpt lat="43.85289" lon="5.479">
        <ele>300</ele>
        <time>2021-03-26T22:06:53.345Z</time>
      </trkpt>
      <trkpt lat="43.85293" lon="5.47886">
        <ele>299</ele>
        <time>2021-03-26T22:06:54.779Z</time>
      </trkpt>
      <trkpt lat="43.85302" lon="5.4782">
        <ele>295</ele>
        <time>2021-03-26T22:07:01.177Z</time>
      </trkpt>
      <trkpt lat="43.85309" lon="5.47801">
        <ele>294</ele>
        <time>2021-03-26T22:07:03.063Z</time>
      </trkpt>
      <trkpt lat="43.85317" lon="5.47784">
        <ele>293</ele>
        <time>2021-03-26T22:07:04.996Z</time>
      </trkpt>
      <trkpt lat="43.85328" lon="5.47769">
        <ele>291</ele>
        <time>2021-03-26T22:07:07.034Z</time>
      </trkpt>
      <trkpt lat="43.85342" lon="5.47755">
        <ele>290</ele>
        <time>2021-03-26T22:07:09.271Z</time>
      </trkpt>
      <trkpt lat="43.8537" lon="5.4774">
        <ele>289</ele>
        <time>2021-03-26T22:07:14.132Z</time>
      </trkpt>
      <trkpt lat="43.85381" lon="5.47738">
        <ele>289</ele>
        <time>2021-03-26T22:07:18.305Z</time>
      </trkpt>
      <trkpt lat="43.85476" lon="5.4773">
        <ele>288</ele>
        <time>2021-03-26T22:07:38.358Z</time>
      </trkpt>
      <trkpt lat="43.85496" lon="5.47726">
        <ele>287</ele>
        <time>2021-03-26T22:07:41.170Z</time>
      </trkpt>
      <trkpt lat="43.85531" lon="5.47711">
        <ele>286</ele>
        <time>2021-03-26T22:07:47.488Z</time>
      </trkpt>
      <trkpt lat="43.85766" lon="5.47549">
        <ele>283</ele>
        <time>2021-03-26T22:08:42.115Z</time>
      </trkpt>
      <trkpt lat="43.8579" lon="5.4753">
        <ele>284</ele>
        <time>2021-03-26T22:08:57.664Z</time>
      </trkpt>
      <trkpt lat="43.85818" lon="5.47503">
        <ele>282</ele>
        <time>2021-03-26T22:09:02.058Z</time>
      </trkpt>
      <trkpt lat="43.85844" lon="5.47472">
        <ele>282</ele>
        <time>2021-03-26T22:09:14.956Z</time>
      </trkpt>
      <trkpt lat="43.85865" lon="5.4744">
        <ele>283</ele>
        <time>2021-03-26T22:09:31.570Z</time>
      </trkpt>
      <trkpt lat="43.85878" lon="5.47412">
        <ele>281</ele>
        <time>2021-03-26T22:09:34.742Z</time>
      </trkpt>
      <trkpt lat="43.85977" lon="5.47152">
        <ele>271</ele>
        <time>2021-03-26T22:10:04.845Z</time>
      </trkpt>
      <trkpt lat="43.86149" lon="5.46754">
        <ele>275</ele>
        <time>2021-03-26T22:12:26.176Z</time>
      </trkpt>
      <trkpt lat="43.86158" lon="5.46737">
        <ele>275</ele>
        <time>2021-03-26T22:12:31.897Z</time>
      </trkpt>
      <trkpt lat="43.86347" lon="5.46461">
        <ele>269</ele>
        <time>2021-03-26T22:13:22.185Z</time>
      </trkpt>
      <trkpt lat="43.86569" lon="5.46156">
        <ele>263</ele>
        <time>2021-03-26T22:14:21.245Z</time>
      </trkpt>
      <trkpt lat="43.86603" lon="5.46105">
        <ele>263</ele>
        <time>2021-03-26T22:14:40.083Z</time>
      </trkpt>
      <trkpt lat="43.86623" lon="5.46061">
        <ele>262</ele>
        <time>2021-03-26T22:14:46.596Z</time>
      </trkpt>
      <trkpt lat="43.86638" lon="5.46015">
        <ele>262</ele>
        <time>2021-03-26T22:15:00.288Z</time>
      </trkpt>
      <trkpt lat="43.86648" lon="5.45977">
        <ele>262</ele>
        <time>2021-03-26T22:15:11.259Z</time>
      </trkpt>
      <trkpt lat="43.86661" lon="5.45895">
        <ele>261</ele>
        <time>2021-03-26T22:15:23.074Z</time>
      </trkpt>
      <trkpt lat="43.86671" lon="5.45839">
        <ele>262</ele>
        <time>2021-03-26T22:15:43.139Z</time>
      </trkpt>
      <trkpt lat="43.86696" lon="5.45772">
        <ele>263</ele>
        <time>2021-03-26T22:16:07.742Z</time>
      </trkpt>
      <trkpt lat="43.86718" lon="5.4573">
        <ele>265</ele>
        <time>2021-03-26T22:16:32.928Z</time>
      </trkpt>
      <trkpt lat="43.86797" lon="5.45599">
        <ele>267</ele>
        <time>2021-03-26T22:17:27.341Z</time>
      </trkpt>
      <trkpt lat="43.86816" lon="5.45576">
        <ele>266</ele>
        <time>2021-03-26T22:17:31.178Z</time>
      </trkpt>
      <trkpt lat="43.86844" lon="5.45548">
        <ele>266</ele>
        <time>2021-03-26T22:17:44.163Z</time>
      </trkpt>
      <trkpt lat="43.8686" lon="5.45525">
        <ele>267</ele>
        <time>2021-03-26T22:17:58.549Z</time>
      </trkpt>
      <trkpt lat="43.86887" lon="5.45455">
        <ele>268</ele>
        <time>2021-03-26T22:18:24.181Z</time>
      </trkpt>
      <trkpt lat="43.86907" lon="5.45409">
        <ele>269</ele>
        <time>2021-03-26T22:18:43.262Z</time>
      </trkpt>
      <trkpt lat="43.86929" lon="5.45373">
        <ele>269</ele>
        <time>2021-03-26T22:18:56.061Z</time>
      </trkpt>
      <trkpt lat="43.86963" lon="5.45328">
        <ele>268</ele>
        <time>2021-03-26T22:19:04.730Z</time>
      </trkpt>
      <trkpt lat="43.8703" lon="5.4525">
        <ele>267</ele>
        <time>2021-03-26T22:19:22.937Z</time>
      </trkpt>
      <trkpt lat="43.87184" lon="5.45021">
        <ele>262</ele>
        <time>2021-03-26T22:20:04.170Z</time>
      </trkpt>
      <trkpt lat="43.87234" lon="5.44929">
        <ele>264</ele>
        <time>2021-03-26T22:20:44.255Z</time>
      </trkpt>
      <trkpt lat="43.87246" lon="5.44911">
        <ele>264</ele>
        <time>2021-03-26T22:20:50.904Z</time>
      </trkpt>
      <trkpt lat="43.8726" lon="5.44894">
        <ele>266</ele>
        <time>2021-03-26T22:21:10.538Z</time>
      </trkpt>
      <trkpt lat="43.87304" lon="5.44857">
        <ele>268</ele>
        <time>2021-03-26T22:21:40.594Z</time>
      </trkpt>
      <trkpt lat="43.87333" lon="5.44839">
        <ele>267</ele>
        <time>2021-03-26T22:21:45.837Z</time>
      </trkpt>
      <trkpt lat="43.87354" lon="5.44829">
        <ele>267</ele>
        <time>2021-03-26T22:21:54.189Z</time>
      </trkpt>
      <trkpt lat="43.8745" lon="5.44794">
        <ele>266</ele>
        <time>2021-03-26T22:22:15.223Z</time>
      </trkpt>
      <trkpt lat="43.87572" lon="5.44733">
        <ele>264</ele>
        <time>2021-03-26T22:22:40.882Z</time>
      </trkpt>
      <trkpt lat="43.87668" lon="5.4468">
        <ele>264</ele>
        <time>2021-03-26T22:23:19.749Z</time>
      </trkpt>
      <trkpt lat="43.87715" lon="5.44643">
        <ele>263</ele>
        <time>2021-03-26T22:23:30.048Z</time>
      </trkpt>
      <trkpt lat="43.878" lon="5.44605">
        <ele>259</ele>
        <time>2021-03-26T22:23:43.002Z</time>
      </trkpt>
      <trkpt lat="43.87826" lon="5.44593">
        <ele>259</ele>
        <time>2021-03-26T22:23:53.310Z</time>
      </trkpt>
      <trkpt lat="43.87848" lon="5.44568">
        <ele>258</ele>
        <time>2021-03-26T22:23:57.831Z</time>
      </trkpt>
      <trkpt lat="43.87855" lon="5.44569">
        <ele>258</ele>
        <time>2021-03-26T22:24:00.478Z</time>
      </trkpt>
      <trkpt lat="43.87867" lon="5.44579">
        <ele>257</ele>
        <time>2021-03-26T22:24:02.327Z</time>
      </trkpt>
      <trkpt lat="43.87875" lon="5.44583">
        <ele>257</ele>
        <time>2021-03-26T22:24:05.526Z</time>
      </trkpt>
      <trkpt lat="43.87885" lon="5.44593">
        <ele>256</ele>
        <time>2021-03-26T22:24:07.154Z</time>
      </trkpt>
      <trkpt lat="43.87897" lon="5.44602">
        <ele>254</ele>
        <time>2021-03-26T22:24:08.956Z</time>
      </trkpt>
      <trkpt lat="43.87916" lon="5.44616">
        <ele>253</ele>
        <time>2021-03-26T22:24:12.029Z</time>
      </trkpt>
      <trkpt lat="43.87954" lon="5.44646">
        <ele>250</ele>
        <time>2021-03-26T22:24:17.805Z</time>
      </trkpt>
      <trkpt lat="43.87979" lon="5.44668">
        <ele>250</ele>
        <time>2021-03-26T22:24:28.941Z</time>
      </trkpt>
      <trkpt lat="43.88015" lon="5.44693">
        <ele>251</ele>
        <time>2021-03-26T22:24:48.546Z</time>
      </trkpt>
      <trkpt lat="43.88054" lon="5.44717">
        <ele>254</ele>
        <time>2021-03-26T22:25:20.917Z</time>
      </trkpt>
      <trkpt lat="43.88155" lon="5.4465">
        <ele>253</ele>
        <time>2021-03-26T22:25:45.006Z</time>
      </trkpt>
      <trkpt lat="43.88328" lon="5.44489">
        <ele>250</ele>
        <time>2021-03-26T22:26:26.751Z</time>
      </trkpt>
      <trkpt lat="43.88333" lon="5.44484">
        <ele>250</ele>
        <time>2021-03-26T22:26:29.069Z</time>
      </trkpt>
      <trkpt lat="43.88343" lon="5.44464">
        <ele>250</ele>
        <time>2021-03-26T22:26:35.669Z</time>
      </trkpt>
      <trkpt lat="43.88346" lon="5.44439">
        <ele>250</ele>
        <time>2021-03-26T22:26:42.540Z</time>
      </trkpt>
      <trkpt lat="43.88352" lon="5.44306">
        <ele>248</ele>
        <time>2021-03-26T22:27:00.352Z</time>
      </trkpt>
      <trkpt lat="43.88352" lon="5.44281">
        <ele>248</ele>
        <time>2021-03-26T22:27:07.130Z</time>
      </trkpt>
      <trkpt lat="43.88349" lon="5.44261">
        <ele>247</ele>
        <time>2021-03-26T22:27:09.075Z</time>
      </trkpt>
      <trkpt lat="43.88345" lon="5.44237">
        <ele>246</ele>
        <time>2021-03-26T22:27:11.406Z</time>
      </trkpt>
      <trkpt lat="43.883" lon="5.44113">
        <ele>244</ele>
        <time>2021-03-26T22:27:30.145Z</time>
      </trkpt>
      <trkpt lat="43.8829" lon="5.44075">
        <ele>243</ele>
        <time>2021-03-26T22:27:34.820Z</time>
      </trkpt>
      <trkpt lat="43.88287" lon="5.44055">
        <ele>243</ele>
        <time>2021-03-26T22:27:40.359Z</time>
      </trkpt>
      <trkpt lat="43.88262" lon="5.43714">
        <ele>240</ele>
        <time>2021-03-26T22:28:31.310Z</time>
      </trkpt>
      <trkpt lat="43.88246" lon="5.436">
        <ele>241</ele>
        <time>2021-03-26T22:29:06.668Z</time>
      </trkpt>
      <trkpt lat="43.88242" lon="5.43532">
        <ele>241</ele>
        <time>2021-03-26T22:29:25.166Z</time>
      </trkpt>
      <trkpt lat="43.88243" lon="5.43489">
        <ele>241</ele>
        <time>2021-03-26T22:29:36.831Z</time>
      </trkpt>
      <trkpt lat="43.88258" lon="5.43294">
        <ele>242</ele>
        <time>2021-03-26T22:30:33.686Z</time>
      </trkpt>
      <trkpt lat="43.88259" lon="5.43261">
        <ele>242</ele>
        <time>2021-03-26T22:30:42.641Z</time>
      </trkpt>
      <trkpt lat="43.88252" lon="5.43184">
        <ele>244</ele>
        <time>2021-03-26T22:31:13.930Z</time>
      </trkpt>
      <trkpt lat="43.88238" lon="5.43127">
        <ele>248</ele>
        <time>2021-03-26T22:31:53.375Z</time>
      </trkpt>
      <trkpt lat="43.882" lon="5.43019">
        <ele>249</ele>
        <time>2021-03-26T22:32:29.813Z</time>
      </trkpt>
      <trkpt lat="43.88189" lon="5.42981">
        <ele>247</ele>
        <time>2021-03-26T22:32:33.711Z</time>
      </trkpt>
      <trkpt lat="43.88176" lon="5.4293">
        <ele>245</ele>
        <time>2021-03-26T22:32:39.052Z</time>
      </trkpt>
      <trkpt lat="43.88171" lon="5.42882">
        <ele>245</ele>
        <time>2021-03-26T22:32:52.201Z</time>
      </trkpt>
      <trkpt lat="43.88168" lon="5.42824">
        <ele>245</ele>
        <time>2021-03-26T22:33:07.968Z</time>
      </trkpt>
      <trkpt lat="43.88166" lon="5.42718">
        <ele>244</ele>
        <time>2021-03-26T22:33:23.541Z</time>
      </trkpt>
      <trkpt lat="43.88164" lon="5.42688">
        <ele>245</ele>
        <time>2021-03-26T22:33:37.464Z</time>
      </trkpt>
      <trkpt lat="43.88158" lon="5.4266">
        <ele>245</ele>
        <time>2021-03-26T22:33:45.384Z</time>
      </trkpt>
      <trkpt lat="43.88131" lon="5.42565">
        <ele>246</ele>
        <time>2021-03-26T22:34:17.007Z</time>
      </trkpt>
      <trkpt lat="43.8812" lon="5.42508">
        <ele>247</ele>
        <time>2021-03-26T22:34:37.398Z</time>
      </trkpt>
      <trkpt lat="43.88113" lon="5.42454">
        <ele>244</ele>
        <time>2021-03-26T22:34:42.621Z</time>
      </trkpt>
      <trkpt lat="43.88107" lon="5.42376">
        <ele>240</ele>
        <time>2021-03-26T22:34:50.090Z</time>
      </trkpt>
      <trkpt lat="43.88107" lon="5.42337">
        <ele>239</ele>
        <time>2021-03-26T22:34:54.540Z</time>
      </trkpt>
      <trkpt lat="43.88109" lon="5.42287">
        <ele>237</ele>
        <time>2021-03-26T22:34:59.316Z</time>
      </trkpt>
      <trkpt lat="43.88119" lon="5.42238">
        <ele>235</ele>
        <time>2021-03-26T22:35:04.209Z</time>
      </trkpt>
      <trkpt lat="43.88144" lon="5.42147">
        <ele>237</ele>
        <time>2021-03-26T22:35:39.939Z</time>
      </trkpt>
      <trkpt lat="43.88153" lon="5.42118">
        <ele>238</ele>
        <time>2021-03-26T22:35:54.266Z</time>
      </trkpt>
      <trkpt lat="43.88159" lon="5.42096">
        <ele>240</ele>
        <time>2021-03-26T22:36:14.371Z</time>
      </trkpt>
      <trkpt lat="43.88292" lon="5.42163">
        <ele>244</ele>
        <time>2021-03-26T22:37:26.195Z</time>
      </trkpt>
      <trkpt lat="43.88488" lon="5.42347">
        <ele>245</ele>
        <time>2021-03-26T22:38:58.800Z</time>
      </trkpt>
      <trkpt lat="43.88499" lon="5.42362">
        <ele>245</ele>
        <time>2021-03-26T22:39:04.602Z</time>
      </trkpt>
      <trkpt lat="43.88572" lon="5.42481">
        <ele>247</ele>
        <time>2021-03-26T22:39:55.199Z</time>
      </trkpt>
      <trkpt lat="43.88582" lon="5.42494">
        <ele>247</ele>
        <time>2021-03-26T22:40:00.354Z</time>
      </trkpt>
      <trkpt lat="43.88599" lon="5.42512">
        <ele>248</ele>
        <time>2021-03-26T22:40:14.127Z</time>
      </trkpt>
      <trkpt lat="43.88884" lon="5.42717">
        <ele>253</ele>
        <time>2021-03-26T22:42:34.980Z</time>
      </trkpt>
      <trkpt lat="43.88919" lon="5.42733">
        <ele>254</ele>
        <time>2021-03-26T22:42:53.427Z</time>
      </trkpt>
      <trkpt lat="43.89066" lon="5.42772">
        <ele>259</ele>
        <time>2021-03-26T22:44:14.551Z</time>
      </trkpt>
      <trkpt lat="43.89099" lon="5.42784">
        <ele>258</ele>
        <time>2021-03-26T22:44:20.309Z</time>
      </trkpt>
      <trkpt lat="43.89125" lon="5.42799">
        <ele>257</ele>
        <time>2021-03-26T22:44:24.770Z</time>
      </trkpt>
      <trkpt lat="43.89299" lon="5.42943">
        <ele>259</ele>
        <time>2021-03-26T22:45:48.556Z</time>
      </trkpt>
      <trkpt lat="43.89316" lon="5.42957">
        <ele>259</ele>
        <time>2021-03-26T22:45:55.993Z</time>
      </trkpt>
      <trkpt lat="43.89338" lon="5.4297">
        <ele>259</ele>
        <time>2021-03-26T22:46:04.987Z</time>
      </trkpt>
      <trkpt lat="43.89505" lon="5.43023">
        <ele>261</ele>
        <time>2021-03-26T22:47:17.146Z</time>
      </trkpt>
      <trkpt lat="43.89525" lon="5.43033">
        <ele>261</ele>
        <time>2021-03-26T22:47:25.143Z</time>
      </trkpt>
      <trkpt lat="43.89576" lon="5.43073">
        <ele>261</ele>
        <time>2021-03-26T22:47:47.180Z</time>
      </trkpt>
      <trkpt lat="43.89745" lon="5.43218">
        <ele>262</ele>
        <time>2021-03-26T22:49:05.533Z</time>
      </trkpt>
      <trkpt lat="43.89901" lon="5.43346">
        <ele>268</ele>
        <time>2021-03-26T22:50:43.377Z</time>
      </trkpt>
      <trkpt lat="43.89929" lon="5.43365">
        <ele>268</ele>
        <time>2021-03-26T22:50:55.102Z</time>
      </trkpt>
      <trkpt lat="43.90418" lon="5.43565">
        <ele>271</ele>
        <time>2021-03-26T22:54:17.795Z</time>
      </trkpt>
      <trkpt lat="43.90493" lon="5.43599">
        <ele>270</ele>
        <time>2021-03-26T22:54:33.957Z</time>
      </trkpt>
      <trkpt lat="43.9061" lon="5.43648">
        <ele>273</ele>
        <time>2021-03-26T22:55:33.264Z</time>
      </trkpt>
      <trkpt lat="43.90626" lon="5.43658">
        <ele>273</ele>
        <time>2021-03-26T22:55:39.865Z</time>
      </trkpt>
      <trkpt lat="43.90638" lon="5.4367">
        <ele>273</ele>
        <time>2021-03-26T22:55:45.428Z</time>
      </trkpt>
      <trkpt lat="43.90776" lon="5.4383">
        <ele>277</ele>
        <time>2021-03-26T22:57:10.377Z</time>
      </trkpt>
      <trkpt lat="43.90909" lon="5.43985">
        <ele>279</ele>
        <time>2021-03-26T22:58:23.408Z</time>
      </trkpt>
      <trkpt lat="43.90944" lon="5.44024">
        <ele>279</ele>
        <time>2021-03-26T22:58:40.292Z</time>
      </trkpt>
      <trkpt lat="43.91203" lon="5.44451">
        <ele>286</ele>
        <time>2021-03-26T23:01:40.256Z</time>
      </trkpt>
      <trkpt lat="43.91243" lon="5.4451">
        <ele>284</ele>
        <time>2021-03-26T23:01:49.618Z</time>
      </trkpt>
      <trkpt lat="43.91289" lon="5.44577">
        <ele>283</ele>
        <time>2021-03-26T23:02:02.881Z</time>
      </trkpt>
      <trkpt lat="43.91307" lon="5.44614">
        <ele>284</ele>
        <time>2021-03-26T23:02:19.797Z</time>
      </trkpt>
      <trkpt lat="43.91321" lon="5.44648">
        <ele>284</ele>
        <time>2021-03-26T23:02:30.410Z</time>
      </trkpt>
      <trkpt lat="43.91333" lon="5.44678">
        <ele>285</ele>
        <time>2021-03-26T23:02:45.182Z</time>
      </trkpt>
      <trkpt lat="43.91344" lon="5.44701">
        <ele>287</ele>
        <time>2021-03-26T23:03:04.745Z</time>
      </trkpt>
      <trkpt lat="43.91359" lon="5.44724">
        <ele>288</ele>
        <time>2021-03-26T23:03:18.956Z</time>
      </trkpt>
      <trkpt lat="43.91407" lon="5.44787">
        <ele>288</ele>
        <time>2021-03-26T23:03:43.805Z</time>
      </trkpt>
      <trkpt lat="43.91449" lon="5.44849">
        <ele>288</ele>
        <time>2021-03-26T23:04:06.868Z</time>
      </trkpt>
      <trkpt lat="43.9153" lon="5.44984">
        <ele>291</ele>
        <time>2021-03-26T23:05:07.681Z</time>
      </trkpt>
      <trkpt lat="43.91542" lon="5.45016">
        <ele>291</ele>
        <time>2021-03-26T23:05:17.457Z</time>
      </trkpt>
      <trkpt lat="43.91548" lon="5.45037">
        <ele>291</ele>
        <time>2021-03-26T23:05:23.579Z</time>
      </trkpt>
      <trkpt lat="43.9156" lon="5.45079">
        <ele>291</ele>
        <time>2021-03-26T23:05:35.822Z</time>
      </trkpt>
      <trkpt lat="43.91563" lon="5.45097">
        <ele>290</ele>
        <time>2021-03-26T23:05:37.580Z</time>
      </trkpt>
      <trkpt lat="43.91564" lon="5.45115">
        <ele>290</ele>
        <time>2021-03-26T23:05:42.473Z</time>
      </trkpt>
      <trkpt lat="43.91564" lon="5.45134">
        <ele>290</ele>
        <time>2021-03-26T23:05:47.621Z</time>
      </trkpt>
      <trkpt lat="43.91567" lon="5.45135">
        <ele>290</ele>
        <time>2021-03-26T23:05:48.782Z</time>
      </trkpt>
      <trkpt lat="43.91604" lon="5.45147">
        <ele>292</ele>
        <time>2021-03-26T23:06:14.213Z</time>
      </trkpt>
      <trkpt lat="43.91648" lon="5.4517">
        <ele>295</ele>
        <time>2021-03-26T23:06:48.214Z</time>
      </trkpt>
      <trkpt lat="43.91673" lon="5.45181">
        <ele>297</ele>
        <time>2021-03-26T23:07:09.049Z</time>
      </trkpt>
      <trkpt lat="43.91703" lon="5.45185">
        <ele>298</ele>
        <time>2021-03-26T23:07:25.336Z</time>
      </trkpt>
      <trkpt lat="43.91799" lon="5.45191">
        <ele>303</ele>
        <time>2021-03-26T23:08:29.397Z</time>
      </trkpt>
      <trkpt lat="43.91858" lon="5.45197">
        <ele>305</ele>
        <time>2021-03-26T23:09:01.633Z</time>
      </trkpt>
      <trkpt lat="43.91892" lon="5.45209">
        <ele>306</ele>
        <time>2021-03-26T23:09:19.493Z</time>
      </trkpt>
      <trkpt lat="43.91987" lon="5.45253">
        <ele>310</ele>
        <time>2021-03-26T23:10:18.899Z</time>
      </trkpt>
      <trkpt lat="43.92006" lon="5.45256">
        <ele>311</ele>
        <time>2021-03-26T23:10:31.669Z</time>
      </trkpt>
      <trkpt lat="43.92038" lon="5.45252">
        <ele>314</ele>
        <time>2021-03-26T23:11:01.192Z</time>
      </trkpt>
      <trkpt lat="43.92052" lon="5.45248">
        <ele>315</ele>
        <time>2021-03-26T23:11:12.008Z</time>
      </trkpt>
      <trkpt lat="43.9208" lon="5.45232">
        <ele>317</ele>
        <time>2021-03-26T23:11:34.265Z</time>
      </trkpt>
      <trkpt lat="43.92116" lon="5.45213">
        <ele>318</ele>
        <time>2021-03-26T23:11:53.274Z</time>
      </trkpt>
      <trkpt lat="43.92182" lon="5.45183">
        <ele>322</ele>
        <time>2021-03-26T23:12:41.346Z</time>
      </trkpt>
      <trkpt lat="43.92389" lon="5.4509">
        <ele>331</ele>
        <time>2021-03-26T23:14:53.118Z</time>
      </trkpt>
      <trkpt lat="43.92392" lon="5.45088">
        <ele>331</ele>
        <time>2021-03-26T23:14:54.369Z</time>
      </trkpt>
      <trkpt lat="43.9239" lon="5.45081">
        <ele>332</ele>
        <time>2021-03-26T23:15:02.239Z</time>
      </trkpt>
      <trkpt lat="43.92387" lon="5.45059">
        <ele>332</ele>
        <time>2021-03-26T23:15:08.306Z</time>
      </trkpt>
      <trkpt lat="43.9239" lon="5.45038">
        <ele>332</ele>
        <time>2021-03-26T23:15:14.107Z</time>
      </trkpt>
      <trkpt lat="43.924" lon="5.45018">
        <ele>333</ele>
        <time>2021-03-26T23:15:26.197Z</time>
      </trkpt>
      <trkpt lat="43.92406" lon="5.4501">
        <ele>333</ele>
        <time>2021-03-26T23:15:29.327Z</time>
      </trkpt>
      <trkpt lat="43.92427" lon="5.44992">
        <ele>335</ele>
        <time>2021-03-26T23:15:49.704Z</time>
      </trkpt>
      <trkpt lat="43.92506" lon="5.44924">
        <ele>339</ele>
        <time>2021-03-26T23:16:47.419Z</time>
      </trkpt>
      <trkpt lat="43.92599" lon="5.44844">
        <ele>340</ele>
        <time>2021-03-26T23:17:32.334Z</time>
      </trkpt>
      <trkpt lat="43.92612" lon="5.44831">
        <ele>340</ele>
        <time>2021-03-26T23:17:38.360Z</time>
      </trkpt>
      <trkpt lat="43.9264" lon="5.44797">
        <ele>341</ele>
        <time>2021-03-26T23:17:56.924Z</time>
      </trkpt>
      <trkpt lat="43.92655" lon="5.44776">
        <ele>342</ele>
        <time>2021-03-26T23:18:10.660Z</time>
      </trkpt>
      <trkpt lat="43.92773" lon="5.44576">
        <ele>341</ele>
        <time>2021-03-26T23:19:15.380Z</time>
      </trkpt>
      <trkpt lat="43.92782" lon="5.44557">
        <ele>342</ele>
        <time>2021-03-26T23:19:26.994Z</time>
      </trkpt>
      <trkpt lat="43.92802" lon="5.44508">
        <ele>343</ele>
        <time>2021-03-26T23:19:46.704Z</time>
      </trkpt>
      <trkpt lat="43.92815" lon="5.4447">
        <ele>344</ele>
        <time>2021-03-26T23:20:03.040Z</time>
      </trkpt>
      <trkpt lat="43.92834" lon="5.44417">
        <ele>344</ele>
        <time>2021-03-26T23:20:19.079Z</time>
      </trkpt>
      <trkpt lat="43.92903" lon="5.44222">
        <ele>341</ele>
        <time>2021-03-26T23:20:48.664Z</time>
      </trkpt>
      <trkpt lat="43.9291" lon="5.44202">
        <ele>341</ele>
        <time>2021-03-26T23:20:54.688Z</time>
      </trkpt>
      <trkpt lat="43.92926" lon="5.44173">
        <ele>341</ele>
        <time>2021-03-26T23:21:04.585Z</time>
      </trkpt>
      <trkpt lat="43.92934" lon="5.4416">
        <ele>342</ele>
        <time>2021-03-26T23:21:14.767Z</time>
      </trkpt>
      <trkpt lat="43.92957" lon="5.44132">
        <ele>343</ele>
        <time>2021-03-26T23:21:31.192Z</time>
      </trkpt>
      <trkpt lat="43.92978" lon="5.44112">
        <ele>345</ele>
        <time>2021-03-26T23:21:51.794Z</time>
      </trkpt>
      <trkpt lat="43.93055" lon="5.44066">
        <ele>349</ele>
        <time>2021-03-26T23:22:46.118Z</time>
      </trkpt>
      <trkpt lat="43.93076" lon="5.44045">
        <ele>350</ele>
        <time>2021-03-26T23:23:01.186Z</time>
      </trkpt>
      <trkpt lat="43.93097" lon="5.44011">
        <ele>352</ele>
        <time>2021-03-26T23:23:24.215Z</time>
      </trkpt>
      <trkpt lat="43.93108" lon="5.43981">
        <ele>353</ele>
        <time>2021-03-26T23:23:38.872Z</time>
      </trkpt>
      <trkpt lat="43.93188" lon="5.43695">
        <ele>355</ele>
        <time>2021-03-26T23:25:09.505Z</time>
      </trkpt>
      <trkpt lat="43.93213" lon="5.436">
        <ele>358</ele>
        <time>2021-03-26T23:25:53.504Z</time>
      </trkpt>
      <trkpt lat="43.93226" lon="5.43551">
        <ele>357</ele>
        <time>2021-03-26T23:26:00.040Z</time>
      </trkpt>
      <trkpt lat="43.93254" lon="5.43447">
        <ele>355</ele>
        <time>2021-03-26T23:26:14.180Z</time>
      </trkpt>
      <trkpt lat="43.93258" lon="5.43418">
        <ele>355</ele>
        <time>2021-03-26T23:26:22.179Z</time>
      </trkpt>
      <trkpt lat="43.93272" lon="5.43266">
        <ele>350</ele>
        <time>2021-03-26T23:26:38.112Z</time>
      </trkpt>
      <trkpt lat="43.93288" lon="5.43173">
        <ele>345</ele>
        <time>2021-03-26T23:26:47.208Z</time>
      </trkpt>
      <trkpt lat="43.93293" lon="5.43149">
        <ele>344</ele>
        <time>2021-03-26T23:26:49.585Z</time>
      </trkpt>
      <trkpt lat="43.93305" lon="5.43091">
        <ele>342</ele>
        <time>2021-03-26T23:26:55.820Z</time>
      </trkpt>
      <trkpt lat="43.93313" lon="5.43051">
        <ele>341</ele>
        <time>2021-03-26T23:27:00.655Z</time>
      </trkpt>
      <trkpt lat="43.9332" lon="5.43024">
        <ele>341</ele>
        <time>2021-03-26T23:27:08.428Z</time>
      </trkpt>
      <trkpt lat="43.93349" lon="5.42946">
        <ele>341</ele>
        <time>2021-03-26T23:27:32.208Z</time>
      </trkpt>
      <trkpt lat="43.93364" lon="5.42904">
        <ele>340</ele>
        <time>2021-03-26T23:27:37.889Z</time>
      </trkpt>
      <trkpt lat="43.93369" lon="5.42892">
        <ele>340</ele>
        <time>2021-03-26T23:27:41.645Z</time>
      </trkpt>
      <trkpt lat="43.93403" lon="5.42804">
        <ele>336</ele>
        <time>2021-03-26T23:27:51.142Z</time>
      </trkpt>
      <trkpt lat="43.9341" lon="5.42781">
        <ele>334</ele>
        <time>2021-03-26T23:27:53.518Z</time>
      </trkpt>
      <trkpt lat="43.93415" lon="5.42764">
        <ele>333</ele>
        <time>2021-03-26T23:27:55.264Z</time>
      </trkpt>
      <trkpt lat="43.9342" lon="5.42732">
        <ele>332</ele>
        <time>2021-03-26T23:27:58.761Z</time>
      </trkpt>
      <trkpt lat="43.93422" lon="5.42655">
        <ele>330</ele>
        <time>2021-03-26T23:28:07.505Z</time>
      </trkpt>
      <trkpt lat="43.93425" lon="5.42469">
        <ele>326</ele>
        <time>2021-03-26T23:28:29.991Z</time>
      </trkpt>
      <trkpt lat="43.93422" lon="5.42437">
        <ele>327</ele>
        <time>2021-03-26T23:28:44.420Z</time>
      </trkpt>
      <trkpt lat="43.93415" lon="5.42407">
        <ele>327</ele>
        <time>2021-03-26T23:28:52.963Z</time>
      </trkpt>
      <trkpt lat="43.9341" lon="5.42392">
        <ele>328</ele>
        <time>2021-03-26T23:29:03.038Z</time>
      </trkpt>
      <trkpt lat="43.93367" lon="5.42292">
        <ele>329</ele>
        <time>2021-03-26T23:29:38.457Z</time>
      </trkpt>
      <trkpt lat="43.93353" lon="5.42259">
        <ele>329</ele>
        <time>2021-03-26T23:29:48.832Z</time>
      </trkpt>
      <trkpt lat="43.9334" lon="5.42222">
        <ele>328</ele>
        <time>2021-03-26T23:29:53.614Z</time>
      </trkpt>
      <trkpt lat="43.93329" lon="5.42183">
        <ele>327</ele>
        <time>2021-03-26T23:29:58.506Z</time>
      </trkpt>
      <trkpt lat="43.93324" lon="5.42147">
        <ele>326</ele>
        <time>2021-03-26T23:30:02.593Z</time>
      </trkpt>
      <trkpt lat="43.93322" lon="5.42072">
        <ele>324</ele>
        <time>2021-03-26T23:30:11.031Z</time>
      </trkpt>
      <trkpt lat="43.93323" lon="5.42058">
        <ele>324</ele>
        <time>2021-03-26T23:30:14.842Z</time>
      </trkpt>
      <trkpt lat="43.93325" lon="5.42046">
        <ele>324</ele>
        <time>2021-03-26T23:30:18.179Z</time>
      </trkpt>
      <trkpt lat="43.93338" lon="5.41986">
        <ele>323</ele>
        <time>2021-03-26T23:30:26.418Z</time>
      </trkpt>
      <trkpt lat="43.93372" lon="5.41847">
        <ele>318</ele>
        <time>2021-03-26T23:30:41.412Z</time>
      </trkpt>
      <trkpt lat="43.93404" lon="5.4175">
        <ele>316</ele>
        <time>2021-03-26T23:30:54.848Z</time>
      </trkpt>
      <trkpt lat="43.93468" lon="5.41562">
        <ele>313</ele>
        <time>2021-03-26T23:31:22.876Z</time>
      </trkpt>
      <trkpt lat="43.9348" lon="5.41529">
        <ele>313</ele>
        <time>2021-03-26T23:31:32.891Z</time>
      </trkpt>
      <trkpt lat="43.93487" lon="5.41493">
        <ele>313</ele>
        <time>2021-03-26T23:31:42.992Z</time>
      </trkpt>
      <trkpt lat="43.9349" lon="5.41474">
        <ele>313</ele>
        <time>2021-03-26T23:31:48.261Z</time>
      </trkpt>
      <trkpt lat="43.93493" lon="5.41454">
        <ele>313</ele>
        <time>2021-03-26T23:31:53.795Z</time>
      </trkpt>
      <trkpt lat="43.93536" lon="5.41126">
        <ele>320</ele>
        <time>2021-03-26T23:33:57.015Z</time>
      </trkpt>
      <trkpt lat="43.93539" lon="5.41086">
        <ele>320</ele>
        <time>2021-03-26T23:34:07.910Z</time>
      </trkpt>
      <trkpt lat="43.9354" lon="5.41076">
        <ele>321</ele>
        <time>2021-03-26T23:34:18.458Z</time>
      </trkpt>
      <trkpt lat="43.9354" lon="5.41071">
        <ele>321</ele>
        <time>2021-03-26T23:34:19.813Z</time>
      </trkpt>
      <trkpt lat="43.9354" lon="5.41053">
        <ele>322</ele>
        <time>2021-03-26T23:34:30.183Z</time>
      </trkpt>
      <trkpt lat="43.93523" lon="5.40714">
        <ele>331</ele>
        <time>2021-03-26T23:36:49.001Z</time>
      </trkpt>
      <trkpt lat="43.93523" lon="5.4068">
        <ele>332</ele>
        <time>2021-03-26T23:37:03.717Z</time>
      </trkpt>
      <trkpt lat="43.93525" lon="5.40663">
        <ele>333</ele>
        <time>2021-03-26T23:37:13.923Z</time>
      </trkpt>
      <trkpt lat="43.93528" lon="5.40648">
        <ele>333</ele>
        <time>2021-03-26T23:37:18.140Z</time>
      </trkpt>
      <trkpt lat="43.93536" lon="5.40622">
        <ele>334</ele>
        <time>2021-03-26T23:37:31.455Z</time>
      </trkpt>
      <trkpt lat="43.9363" lon="5.40423">
        <ele>340</ele>
        <time>2021-03-26T23:39:06.357Z</time>
      </trkpt>
      <trkpt lat="43.93645" lon="5.40392">
        <ele>342</ele>
        <time>2021-03-26T23:39:27.408Z</time>
      </trkpt>
      <trkpt lat="43.93648" lon="5.40385">
        <ele>342</ele>
        <time>2021-03-26T23:39:29.614Z</time>
      </trkpt>
      <trkpt lat="43.93674" lon="5.40331">
        <ele>346</ele>
        <time>2021-03-26T23:40:09.712Z</time>
      </trkpt>
      <trkpt lat="43.93687" lon="5.40294">
        <ele>347</ele>
        <time>2021-03-26T23:40:25.850Z</time>
      </trkpt>
      <trkpt lat="43.93694" lon="5.40267">
        <ele>347</ele>
        <time>2021-03-26T23:40:33.623Z</time>
      </trkpt>
      <trkpt lat="43.93733" lon="5.40088">
        <ele>346</ele>
        <time>2021-03-26T23:41:03.200Z</time>
      </trkpt>
      <trkpt lat="43.93736" lon="5.40073">
        <ele>346</ele>
        <time>2021-03-26T23:41:07.417Z</time>
      </trkpt>
      <trkpt lat="43.93737" lon="5.40058">
        <ele>346</ele>
        <time>2021-03-26T23:41:11.498Z</time>
      </trkpt>
      <trkpt lat="43.93738" lon="5.39939">
        <ele>345</ele>
        <time>2021-03-26T23:41:29.281Z</time>
      </trkpt>
      <trkpt lat="43.9374" lon="5.399">
        <ele>344</ele>
        <time>2021-03-26T23:41:33.741Z</time>
      </trkpt>
      <trkpt lat="43.93744" lon="5.39872">
        <ele>343</ele>
        <time>2021-03-26T23:41:36.622Z</time>
      </trkpt>
      <trkpt lat="43.93746" lon="5.39857">
        <ele>342</ele>
        <time>2021-03-26T23:41:38.073Z</time>
      </trkpt>
      <trkpt lat="43.93765" lon="5.39741">
        <ele>338</ele>
        <time>2021-03-26T23:41:50.289Z</time>
      </trkpt>
      <trkpt lat="43.93765" lon="5.39711">
        <ele>337</ele>
        <time>2021-03-26T23:41:53.380Z</time>
      </trkpt>
      <trkpt lat="43.93758" lon="5.39655">
        <ele>335</ele>
        <time>2021-03-26T23:41:59.105Z</time>
      </trkpt>
      <trkpt lat="43.93757" lon="5.3963">
        <ele>334</ele>
        <time>2021-03-26T23:42:01.490Z</time>
      </trkpt>
      <trkpt lat="43.93758" lon="5.39611">
        <ele>333</ele>
        <time>2021-03-26T23:42:03.302Z</time>
      </trkpt>
      <trkpt lat="43.9376" lon="5.39603">
        <ele>332</ele>
        <time>2021-03-26T23:42:04.107Z</time>
      </trkpt>
      <trkpt lat="43.93762" lon="5.39597">
        <ele>332</ele>
        <time>2021-03-26T23:42:05.898Z</time>
      </trkpt>
      <trkpt lat="43.93799" lon="5.39509">
        <ele>328</ele>
        <time>2021-03-26T23:42:15.679Z</time>
      </trkpt>
      <trkpt lat="43.93806" lon="5.39488">
        <ele>327</ele>
        <time>2021-03-26T23:42:17.802Z</time>
      </trkpt>
      <trkpt lat="43.93812" lon="5.3947">
        <ele>326</ele>
        <time>2021-03-26T23:42:19.689Z</time>
      </trkpt>
      <trkpt lat="43.93843" lon="5.39365">
        <ele>321</ele>
        <time>2021-03-26T23:42:30.006Z</time>
      </trkpt>
      <trkpt lat="43.93864" lon="5.39277">
        <ele>317</ele>
        <time>2021-03-26T23:42:38.520Z</time>
      </trkpt>
      <trkpt lat="43.93883" lon="5.39166">
        <ele>316</ele>
        <time>2021-03-26T23:42:55.457Z</time>
      </trkpt>
      <trkpt lat="43.93897" lon="5.39082">
        <ele>320</ele>
        <time>2021-03-26T23:43:40.558Z</time>
      </trkpt>
      <trkpt lat="43.93899" lon="5.39069">
        <ele>321</ele>
        <time>2021-03-26T23:43:50.348Z</time>
      </trkpt>
      <trkpt lat="43.93899" lon="5.39056">
        <ele>322</ele>
        <time>2021-03-26T23:44:00.158Z</time>
      </trkpt>
      <trkpt lat="43.93897" lon="5.39046">
        <ele>322</ele>
        <time>2021-03-26T23:44:02.969Z</time>
      </trkpt>
      <trkpt lat="43.93893" lon="5.39036">
        <ele>323</ele>
        <time>2021-03-26T23:44:13.150Z</time>
      </trkpt>
      <trkpt lat="43.93866" lon="5.39008">
        <ele>323</ele>
        <time>2021-03-26T23:44:25.826Z</time>
      </trkpt>
      <trkpt lat="43.93859" lon="5.38995">
        <ele>323</ele>
        <time>2021-03-26T23:44:30.223Z</time>
      </trkpt>
      <trkpt lat="43.93857" lon="5.38986">
        <ele>324</ele>
        <time>2021-03-26T23:44:40.064Z</time>
      </trkpt>
      <trkpt lat="43.9386" lon="5.38962">
        <ele>324</ele>
        <time>2021-03-26T23:44:46.662Z</time>
      </trkpt>
      <trkpt lat="43.93877" lon="5.38899">
        <ele>327</ele>
        <time>2021-03-26T23:45:21.228Z</time>
      </trkpt>
      <trkpt lat="43.93882" lon="5.38862">
        <ele>329</ele>
        <time>2021-03-26T23:45:42.349Z</time>
      </trkpt>
      <trkpt lat="43.93883" lon="5.38826">
        <ele>330</ele>
        <time>2021-03-26T23:45:57.434Z</time>
      </trkpt>
      <trkpt lat="43.93883" lon="5.38817">
        <ele>331</ele>
        <time>2021-03-26T23:46:06.837Z</time>
      </trkpt>
      <trkpt lat="43.93886" lon="5.38727">
        <ele>333</ele>
        <time>2021-03-26T23:46:40.845Z</time>
      </trkpt>
      <trkpt lat="43.93892" lon="5.38704">
        <ele>333</ele>
        <time>2021-03-26T23:46:47.471Z</time>
      </trkpt>
      <trkpt lat="43.93894" lon="5.387">
        <ele>334</ele>
        <time>2021-03-26T23:46:52.559Z</time>
      </trkpt>
      <trkpt lat="43.93899" lon="5.38703">
        <ele>334</ele>
        <time>2021-03-26T23:46:54.608Z</time>
      </trkpt>
      <trkpt lat="43.93907" lon="5.38706">
        <ele>335</ele>
        <time>2021-03-26T23:47:04.759Z</time>
      </trkpt>
      <trkpt lat="43.93969" lon="5.38716">
        <ele>339</ele>
        <time>2021-03-26T23:47:49.988Z</time>
      </trkpt>
      <trkpt lat="43.94015" lon="5.38723">
        <ele>341</ele>
        <time>2021-03-26T23:48:18.803Z</time>
      </trkpt>
      <trkpt lat="43.94026" lon="5.38724">
        <ele>342</ele>
        <time>2021-03-26T23:48:28.691Z</time>
      </trkpt>
      <trkpt lat="43.94086" lon="5.38733">
        <ele>345</ele>
        <time>2021-03-26T23:49:08.311Z</time>
      </trkpt>
      <trkpt lat="43.94136" lon="5.38741">
        <ele>345</ele>
        <time>2021-03-26T23:49:27.244Z</time>
      </trkpt>
      <trkpt lat="43.94154" lon="5.3874">
        <ele>346</ele>
        <time>2021-03-26T23:49:39.537Z</time>
      </trkpt>
      <trkpt lat="43.9416" lon="5.38738">
        <ele>346</ele>
        <time>2021-03-26T23:49:41.858Z</time>
      </trkpt>
      <trkpt lat="43.94171" lon="5.38729">
        <ele>347</ele>
        <time>2021-03-26T23:49:52.169Z</time>
      </trkpt>
      <trkpt lat="43.94212" lon="5.3869">
        <ele>352</ele>
        <time>2021-03-26T23:50:41.075Z</time>
      </trkpt>
      <trkpt lat="43.94241" lon="5.38664">
        <ele>356</ele>
        <time>2021-03-26T23:51:21.024Z</time>
      </trkpt>
      <trkpt lat="43.94287" lon="5.38621">
        <ele>359</ele>
        <time>2021-03-26T23:51:58.503Z</time>
      </trkpt>
      <trkpt lat="43.94303" lon="5.38611">
        <ele>360</ele>
        <time>2021-03-26T23:52:10.598Z</time>
      </trkpt>
      <trkpt lat="43.9432" lon="5.38608">
        <ele>361</ele>
        <time>2021-03-26T23:52:22.523Z</time>
      </trkpt>
      <trkpt lat="43.9434" lon="5.38617">
        <ele>362</ele>
        <time>2021-03-26T23:52:36.134Z</time>
      </trkpt>
      <trkpt lat="43.94375" lon="5.38639">
        <ele>362</ele>
        <time>2021-03-26T23:52:50.586Z</time>
      </trkpt>
      <trkpt lat="43.94383" lon="5.3864">
        <ele>362</ele>
        <time>2021-03-26T23:52:53.607Z</time>
      </trkpt>
      <trkpt lat="43.94394" lon="5.38635">
        <ele>363</ele>
        <time>2021-03-26T23:53:03.604Z</time>
      </trkpt>
      <trkpt lat="43.94397" lon="5.38632">
        <ele>364</ele>
        <time>2021-03-26T23:53:08.968Z</time>
      </trkpt>
      <trkpt lat="43.94401" lon="5.38627">
        <ele>365</ele>
        <time>2021-03-26T23:53:16.776Z</time>
      </trkpt>
      <trkpt lat="43.94406" lon="5.38612">
        <ele>367</ele>
        <time>2021-03-26T23:53:34.045Z</time>
      </trkpt>
      <trkpt lat="43.94406" lon="5.38606">
        <ele>368</ele>
        <time>2021-03-26T23:53:40.313Z</time>
      </trkpt>
      <trkpt lat="43.94406" lon="5.38594">
        <ele>370</ele>
        <time>2021-03-26T23:53:52.849Z</time>
      </trkpt>
      <trkpt lat="43.94403" lon="5.38586">
        <ele>370</ele>
        <time>2021-03-26T23:53:55.292Z</time>
      </trkpt>
      <trkpt lat="43.94399" lon="5.38578">
        <ele>371</ele>
        <time>2021-03-26T23:54:05.467Z</time>
      </trkpt>
      <trkpt lat="43.94394" lon="5.38571">
        <ele>371</ele>
        <time>2021-03-26T23:54:08.138Z</time>
      </trkpt>
      <trkpt lat="43.94367" lon="5.38551">
        <ele>371</ele>
        <time>2021-03-26T23:54:19.649Z</time>
      </trkpt>
      <trkpt lat="43.94361" lon="5.38545">
        <ele>370</ele>
        <time>2021-03-26T23:54:20.626Z</time>
      </trkpt>
      <trkpt lat="43.94354" lon="5.38532">
        <ele>371</ele>
        <time>2021-03-26T23:54:30.649Z</time>
      </trkpt>
      <trkpt lat="43.94352" lon="5.38524">
        <ele>371</ele>
        <time>2021-03-26T23:54:32.942Z</time>
      </trkpt>
      <trkpt lat="43.94347" lon="5.38506">
        <ele>372</ele>
        <time>2021-03-26T23:54:43.617Z</time>
      </trkpt>
      <trkpt lat="43.9434" lon="5.38471">
        <ele>374</ele>
        <time>2021-03-26T23:55:04.430Z</time>
      </trkpt>
      <trkpt lat="43.94339" lon="5.38462">
        <ele>375</ele>
        <time>2021-03-26T23:55:13.944Z</time>
      </trkpt>
      <trkpt lat="43.94336" lon="5.38453">
        <ele>376</ele>
        <time>2021-03-26T23:55:24.305Z</time>
      </trkpt>
      <trkpt lat="43.94334" lon="5.38442">
        <ele>376</ele>
        <time>2021-03-26T23:55:27.378Z</time>
      </trkpt>
      <trkpt lat="43.94332" lon="5.38436">
        <ele>377</ele>
        <time>2021-03-26T23:55:34.285Z</time>
      </trkpt>
      <trkpt lat="43.94327" lon="5.38426">
        <ele>377</ele>
        <time>2021-03-26T23:55:37.583Z</time>
      </trkpt>
      <trkpt lat="43.94322" lon="5.38414">
        <ele>378</ele>
        <time>2021-03-26T23:55:47.365Z</time>
      </trkpt>
      <trkpt lat="43.94321" lon="5.3841">
        <ele>378</ele>
        <time>2021-03-26T23:55:48.511Z</time>
      </trkpt>
      <trkpt lat="43.94315" lon="5.38397">
        <ele>379</ele>
        <time>2021-03-26T23:55:58.417Z</time>
      </trkpt>
      <trkpt lat="43.9431" lon="5.3839">
        <ele>379</ele>
        <time>2021-03-26T23:56:01.087Z</time>
      </trkpt>
      <trkpt lat="43.94282" lon="5.38354">
        <ele>379</ele>
        <time>2021-03-26T23:56:15.441Z</time>
      </trkpt>
      <trkpt lat="43.94274" lon="5.38339">
        <ele>379</ele>
        <time>2021-03-26T23:56:20.497Z</time>
      </trkpt>
      <trkpt lat="43.94269" lon="5.38321">
        <ele>379</ele>
        <time>2021-03-26T23:56:25.722Z</time>
      </trkpt>
      <trkpt lat="43.94265" lon="5.3831">
        <ele>379</ele>
        <time>2021-03-26T23:56:29.060Z</time>
      </trkpt>
      <trkpt lat="43.94263" lon="5.38303">
        <ele>379</ele>
        <time>2021-03-26T23:56:31.100Z</time>
      </trkpt>
      <trkpt lat="43.94241" lon="5.38232">
        <ele>380</ele>
        <time>2021-03-26T23:56:56.160Z</time>
      </trkpt>
      <trkpt lat="43.94239" lon="5.38223">
        <ele>380</ele>
        <time>2021-03-26T23:56:58.711Z</time>
      </trkpt>
      <trkpt lat="43.94238" lon="5.38208">
        <ele>380</ele>
        <time>2021-03-26T23:57:02.792Z</time>
      </trkpt>
      <trkpt lat="43.94237" lon="5.38195">
        <ele>380</ele>
        <time>2021-03-26T23:57:06.333Z</time>
      </trkpt>
      <trkpt lat="43.94236" lon="5.38188">
        <ele>380</ele>
        <time>2021-03-26T23:57:08.266Z</time>
      </trkpt>
      <trkpt lat="43.94193" lon="5.38074">
        <ele>374</ele>
        <time>2021-03-26T23:57:19.644Z</time>
      </trkpt>
      <trkpt lat="43.94174" lon="5.38035">
        <ele>371</ele>
        <time>2021-03-26T23:57:24.123Z</time>
      </trkpt>
      <trkpt lat="43.94172" lon="5.38022">
        <ele>371</ele>
        <time>2021-03-26T23:57:27.724Z</time>
      </trkpt>
      <trkpt lat="43.9417" lon="5.38012">
        <ele>371</ele>
        <time>2021-03-26T23:57:30.535Z</time>
      </trkpt>
      <trkpt lat="43.94168" lon="5.38012">
        <ele>371</ele>
        <time>2021-03-26T23:57:31.287Z</time>
      </trkpt>
      <trkpt lat="43.94164" lon="5.38012">
        <ele>370</ele>
        <time>2021-03-26T23:57:31.816Z</time>
      </trkpt>
      <trkpt lat="43.9416" lon="5.38009">
        <ele>370</ele>
        <time>2021-03-26T23:57:33.526Z</time>
      </trkpt>
      <trkpt lat="43.94158" lon="5.38002">
        <ele>369</ele>
        <time>2021-03-26T23:57:34.242Z</time>
      </trkpt>
      <trkpt lat="43.94158" lon="5.37995">
        <ele>369</ele>
        <time>2021-03-26T23:57:36.138Z</time>
      </trkpt>
      <trkpt lat="43.94158" lon="5.37979">
        <ele>369</ele>
        <time>2021-03-26T23:57:40.472Z</time>
      </trkpt>
      <trkpt lat="43.94159" lon="5.3796">
        <ele>369</ele>
        <time>2021-03-26T23:57:45.632Z</time>
      </trkpt>
      <trkpt lat="43.94162" lon="5.37931">
        <ele>369</ele>
        <time>2021-03-26T23:57:53.567Z</time>
      </trkpt>
      <trkpt lat="43.94173" lon="5.37843">
        <ele>366</ele>
        <time>2021-03-26T23:58:02.742Z</time>
      </trkpt>
      <trkpt lat="43.94178" lon="5.37774">
        <ele>364</ele>
        <time>2021-03-26T23:58:10.311Z</time>
      </trkpt>
      <trkpt lat="43.94178" lon="5.37751">
        <ele>363</ele>
        <time>2021-03-26T23:58:12.415Z</time>
      </trkpt>
      <trkpt lat="43.94173" lon="5.3768">
        <ele>359</ele>
        <time>2021-03-26T23:58:19.201Z</time>
      </trkpt>
      <trkpt lat="43.94166" lon="5.37641">
        <ele>357</ele>
        <time>2021-03-26T23:58:23.023Z</time>
      </trkpt>
      <trkpt lat="43.9416" lon="5.37624">
        <ele>356</ele>
        <time>2021-03-26T23:58:24.824Z</time>
      </trkpt>
      <trkpt lat="43.94149" lon="5.37602">
        <ele>355</ele>
        <time>2021-03-26T23:58:27.453Z</time>
      </trkpt>
      <trkpt lat="43.94109" lon="5.37534">
        <ele>351</ele>
        <time>2021-03-26T23:58:35.306Z</time>
      </trkpt>
      <trkpt lat="43.94105" lon="5.37528">
        <ele>351</ele>
        <time>2021-03-26T23:58:37.521Z</time>
      </trkpt>
      <trkpt lat="43.94071" lon="5.37473">
        <ele>349</ele>
        <time>2021-03-26T23:58:45.566Z</time>
      </trkpt>
      <trkpt lat="43.94033" lon="5.37409">
        <ele>345</ele>
        <time>2021-03-26T23:58:53.456Z</time>
      </trkpt>
      <trkpt lat="43.94019" lon="5.37386">
        <ele>343</ele>
        <time>2021-03-26T23:58:56.320Z</time>
      </trkpt>
      <trkpt lat="43.94011" lon="5.37373">
        <ele>342</ele>
        <time>2021-03-26T23:58:57.947Z</time>
      </trkpt>
      <trkpt lat="43.93976" lon="5.37315">
        <ele>339</ele>
        <time>2021-03-26T23:59:05.177Z</time>
      </trkpt>
      <trkpt lat="43.93951" lon="5.37275">
        <ele>336</ele>
        <time>2021-03-26T23:59:10.215Z</time>
      </trkpt>
      <trkpt lat="43.93934" lon="5.37247">
        <ele>335</ele>
        <time>2021-03-26T23:59:14.295Z</time>
      </trkpt>
      <trkpt lat="43.9389" lon="5.37175">
        <ele>330</ele>
        <time>2021-03-26T23:59:23.278Z</time>
      </trkpt>
      <trkpt lat="43.93858" lon="5.3712">
        <ele>327</ele>
        <time>2021-03-26T23:59:29.823Z</time>
      </trkpt>
      <trkpt lat="43.93841" lon="5.37085">
        <ele>326</ele>
        <time>2021-03-26T23:59:34.768Z</time>
      </trkpt>
      <trkpt lat="43.93558" lon="5.36482">
        <ele>311</ele>
        <time>2021-03-27T00:01:02.604Z</time>
      </trkpt>
      <trkpt lat="43.93548" lon="5.36457">
        <ele>311</ele>
        <time>2021-03-27T00:01:10.350Z</time>
      </trkpt>
      <trkpt lat="43.93512" lon="5.36356">
        <ele>309</ele>
        <time>2021-03-27T00:01:24.761Z</time>
      </trkpt>
      <trkpt lat="43.93501" lon="5.36328">
        <ele>308</ele>
        <time>2021-03-27T00:01:28.131Z</time>
      </trkpt>
      <trkpt lat="43.93472" lon="5.36264">
        <ele>305</ele>
        <time>2021-03-27T00:01:35.354Z</time>
      </trkpt>
      <trkpt lat="43.93417" lon="5.36146">
        <ele>302</ele>
        <time>2021-03-27T00:01:52.382Z</time>
      </trkpt>
      <trkpt lat="43.93387" lon="5.36083">
        <ele>299</ele>
        <time>2021-03-27T00:01:59.592Z</time>
      </trkpt>
      <trkpt lat="43.93338" lon="5.35978">
        <ele>295</ele>
        <time>2021-03-27T00:02:12.710Z</time>
      </trkpt>
      <trkpt lat="43.93326" lon="5.35951">
        <ele>294</ele>
        <time>2021-03-27T00:02:16.056Z</time>
      </trkpt>
      <trkpt lat="43.93313" lon="5.35914">
        <ele>292</ele>
        <time>2021-03-27T00:02:19.972Z</time>
      </trkpt>
      <trkpt lat="43.93308" lon="5.35896">
        <ele>292</ele>
        <time>2021-03-27T00:02:25.199Z</time>
      </trkpt>
      <trkpt lat="43.93304" lon="5.3587">
        <ele>291</ele>
        <time>2021-03-27T00:02:27.800Z</time>
      </trkpt>
      <trkpt lat="43.93242" lon="5.35547">
        <ele>286</ele>
        <time>2021-03-27T00:03:12.471Z</time>
      </trkpt>
      <trkpt lat="43.93207" lon="5.35359">
        <ele>282</ele>
        <time>2021-03-27T00:03:36.254Z</time>
      </trkpt>
      <trkpt lat="43.93202" lon="5.35333">
        <ele>282</ele>
        <time>2021-03-27T00:03:43.545Z</time>
      </trkpt>
      <trkpt lat="43.9319" lon="5.35264">
        <ele>281</ele>
        <time>2021-03-27T00:03:53.165Z</time>
      </trkpt>
      <trkpt lat="43.93179" lon="5.35122">
        <ele>277</ele>
        <time>2021-03-27T00:04:08.931Z</time>
      </trkpt>
      <trkpt lat="43.93174" lon="5.35082">
        <ele>276</ele>
        <time>2021-03-27T00:04:13.623Z</time>
      </trkpt>
      <trkpt lat="43.93168" lon="5.35056">
        <ele>276</ele>
        <time>2021-03-27T00:04:21.020Z</time>
      </trkpt>
      <trkpt lat="43.93148" lon="5.35005">
        <ele>277</ele>
        <time>2021-03-27T00:04:41.163Z</time>
      </trkpt>
      <trkpt lat="43.9312" lon="5.34939">
        <ele>275</ele>
        <time>2021-03-27T00:04:49.839Z</time>
      </trkpt>
      <trkpt lat="43.93106" lon="5.34905">
        <ele>274</ele>
        <time>2021-03-27T00:04:54.310Z</time>
      </trkpt>
      <trkpt lat="43.93098" lon="5.34885">
        <ele>273</ele>
        <time>2021-03-27T00:04:56.398Z</time>
      </trkpt>
      <trkpt lat="43.93089" lon="5.34851">
        <ele>272</ele>
        <time>2021-03-27T00:05:00.418Z</time>
      </trkpt>
      <trkpt lat="43.93075" lon="5.34741">
        <ele>272</ele>
        <time>2021-03-27T00:05:30.680Z</time>
      </trkpt>
      <trkpt lat="43.93067" lon="5.34702">
        <ele>272</ele>
        <time>2021-03-27T00:05:41.666Z</time>
      </trkpt>
      <trkpt lat="43.93062" lon="5.34684">
        <ele>272</ele>
        <time>2021-03-27T00:05:46.892Z</time>
      </trkpt>
      <trkpt lat="43.93049" lon="5.34649">
        <ele>272</ele>
        <time>2021-03-27T00:05:57.561Z</time>
      </trkpt>
      <trkpt lat="43.93017" lon="5.34582">
        <ele>272</ele>
        <time>2021-03-27T00:06:19.341Z</time>
      </trkpt>
      <trkpt lat="43.92985" lon="5.34514">
        <ele>272</ele>
        <time>2021-03-27T00:06:41.347Z</time>
      </trkpt>
      <trkpt lat="43.92967" lon="5.34476">
        <ele>272</ele>
        <time>2021-03-27T00:06:53.669Z</time>
      </trkpt>
      <trkpt lat="43.92955" lon="5.3445">
        <ele>272</ele>
        <time>2021-03-27T00:07:02.035Z</time>
      </trkpt>
      <trkpt lat="43.92935" lon="5.34416">
        <ele>272</ele>
        <time>2021-03-27T00:07:13.928Z</time>
      </trkpt>
      <trkpt lat="43.92904" lon="5.34376">
        <ele>271</ele>
        <time>2021-03-27T00:07:21.528Z</time>
      </trkpt>
      <trkpt lat="43.92897" lon="5.34366">
        <ele>271</ele>
        <time>2021-03-27T00:07:25.306Z</time>
      </trkpt>
      <trkpt lat="43.92891" lon="5.34358">
        <ele>271</ele>
        <time>2021-03-27T00:07:28.435Z</time>
      </trkpt>
      <trkpt lat="43.92873" lon="5.34335">
        <ele>270</ele>
        <time>2021-03-27T00:07:32.114Z</time>
      </trkpt>
      <trkpt lat="43.9286" lon="5.34319">
        <ele>271</ele>
        <time>2021-03-27T00:07:44.137Z</time>
      </trkpt>
      <trkpt lat="43.92842" lon="5.34294">
        <ele>272</ele>
        <time>2021-03-27T00:07:59.096Z</time>
      </trkpt>
      <trkpt lat="43.92835" lon="5.34279">
        <ele>272</ele>
        <time>2021-03-27T00:08:03.938Z</time>
      </trkpt>
      <trkpt lat="43.92822" lon="5.34245">
        <ele>273</ele>
        <time>2021-03-27T00:08:19.513Z</time>
      </trkpt>
      <trkpt lat="43.92814" lon="5.34211">
        <ele>274</ele>
        <time>2021-03-27T00:08:34.550Z</time>
      </trkpt>
      <trkpt lat="43.9281" lon="5.34195">
        <ele>274</ele>
        <time>2021-03-27T00:08:39.138Z</time>
      </trkpt>
      <trkpt lat="43.92802" lon="5.34155">
        <ele>275</ele>
        <time>2021-03-27T00:08:55.353Z</time>
      </trkpt>
      <trkpt lat="43.92798" lon="5.34124">
        <ele>275</ele>
        <time>2021-03-27T00:09:03.885Z</time>
      </trkpt>
      <trkpt lat="43.92799" lon="5.34096">
        <ele>275</ele>
        <time>2021-03-27T00:09:11.480Z</time>
      </trkpt>
      <trkpt lat="43.92812" lon="5.33989">
        <ele>277</ele>
        <time>2021-03-27T00:09:49.879Z</time>
      </trkpt>
      <trkpt lat="43.92815" lon="5.33976">
        <ele>277</ele>
        <time>2021-03-27T00:09:53.578Z</time>
      </trkpt>
      <trkpt lat="43.92817" lon="5.33966">
        <ele>277</ele>
        <time>2021-03-27T00:09:56.390Z</time>
      </trkpt>
      <trkpt lat="43.92822" lon="5.33945">
        <ele>278</ele>
        <time>2021-03-27T00:10:07.824Z</time>
      </trkpt>
      <trkpt lat="43.92843" lon="5.33884">
        <ele>278</ele>
        <time>2021-03-27T00:10:26.142Z</time>
      </trkpt>
      <trkpt lat="43.92844" lon="5.33881">
        <ele>278</ele>
        <time>2021-03-27T00:10:27.037Z</time>
      </trkpt>
      <trkpt lat="43.92848" lon="5.33869">
        <ele>278</ele>
        <time>2021-03-27T00:10:30.619Z</time>
      </trkpt>
      <trkpt lat="43.92861" lon="5.33826">
        <ele>278</ele>
        <time>2021-03-27T00:10:43.254Z</time>
      </trkpt>
      <trkpt lat="43.92867" lon="5.33795">
        <ele>278</ele>
        <time>2021-03-27T00:10:51.950Z</time>
      </trkpt>
      <trkpt lat="43.9288" lon="5.33621">
        <ele>281</ele>
        <time>2021-03-27T00:11:52.563Z</time>
      </trkpt>
      <trkpt lat="43.92879" lon="5.33584">
        <ele>282</ele>
        <time>2021-03-27T00:12:07.843Z</time>
      </trkpt>
      <trkpt lat="43.92861" lon="5.33359">
        <ele>285</ele>
        <time>2021-03-27T00:13:21.607Z</time>
      </trkpt>
      <trkpt lat="43.9286" lon="5.33344">
        <ele>285</ele>
        <time>2021-03-27T00:13:25.688Z</time>
      </trkpt>
      <trkpt lat="43.92862" lon="5.33316">
        <ele>286</ele>
        <time>2021-03-27T00:13:38.960Z</time>
      </trkpt>
      <trkpt lat="43.9287" lon="5.33279">
        <ele>287</ele>
        <time>2021-03-27T00:13:54.563Z</time>
      </trkpt>
      <trkpt lat="43.92925" lon="5.33083">
        <ele>288</ele>
        <time>2021-03-27T00:14:55.218Z</time>
      </trkpt>
      <trkpt lat="43.92936" lon="5.3306">
        <ele>288</ele>
        <time>2021-03-27T00:15:02.698Z</time>
      </trkpt>
      <trkpt lat="43.9295" lon="5.33047">
        <ele>288</ele>
        <time>2021-03-27T00:15:09.034Z</time>
      </trkpt>
      <trkpt lat="43.92957" lon="5.33043">
        <ele>287</ele>
        <time>2021-03-27T00:15:10.033Z</time>
      </trkpt>
      <trkpt lat="43.93007" lon="5.33041">
        <ele>288</ele>
        <time>2021-03-27T00:15:33.068Z</time>
      </trkpt>
      <trkpt lat="43.93015" lon="5.33038">
        <ele>288</ele>
        <time>2021-03-27T00:15:36.185Z</time>
      </trkpt>
      <trkpt lat="43.93021" lon="5.33032">
        <ele>288</ele>
        <time>2021-03-27T00:15:38.966Z</time>
      </trkpt>
      <trkpt lat="43.93035" lon="5.3301">
        <ele>288</ele>
        <time>2021-03-27T00:15:46.920Z</time>
      </trkpt>
      <trkpt lat="43.93077" lon="5.32912">
        <ele>280</ele>
        <time>2021-03-27T00:15:57.768Z</time>
      </trkpt>
      <trkpt lat="43.93086" lon="5.32896">
        <ele>279</ele>
        <time>2021-03-27T00:15:59.700Z</time>
      </trkpt>
      <trkpt lat="43.93105" lon="5.32875">
        <ele>276</ele>
        <time>2021-03-27T00:16:02.907Z</time>
      </trkpt>
      <trkpt lat="43.93127" lon="5.32859">
        <ele>274</ele>
        <time>2021-03-27T00:16:06.188Z</time>
      </trkpt>
      <trkpt lat="43.93147" lon="5.32849">
        <ele>273</ele>
        <time>2021-03-27T00:16:09.210Z</time>
      </trkpt>
      <trkpt lat="43.93201" lon="5.32836">
        <ele>272</ele>
        <time>2021-03-27T00:16:19.687Z</time>
      </trkpt>
      <trkpt lat="43.93227" lon="5.32822">
        <ele>272</ele>
        <time>2021-03-27T00:16:30.177Z</time>
      </trkpt>
      <trkpt lat="43.93248" lon="5.32807">
        <ele>271</ele>
        <time>2021-03-27T00:16:33.680Z</time>
      </trkpt>
      <trkpt lat="43.93259" lon="5.32792">
        <ele>270</ele>
        <time>2021-03-27T00:16:35.572Z</time>
      </trkpt>
      <trkpt lat="43.93262" lon="5.32783">
        <ele>270</ele>
        <time>2021-03-27T00:16:38.259Z</time>
      </trkpt>
      <trkpt lat="43.93263" lon="5.32764">
        <ele>268</ele>
        <time>2021-03-27T00:16:40.071Z</time>
      </trkpt>
      <trkpt lat="43.93259" lon="5.32746">
        <ele>266</ele>
        <time>2021-03-27T00:16:41.863Z</time>
      </trkpt>
      <trkpt lat="43.93114" lon="5.3241">
        <ele>260</ele>
        <time>2021-03-27T00:17:33.907Z</time>
      </trkpt>
      <trkpt lat="43.93106" lon="5.32397">
        <ele>260</ele>
        <time>2021-03-27T00:17:38.539Z</time>
      </trkpt>
      <trkpt lat="43.93073" lon="5.32349">
        <ele>258</ele>
        <time>2021-03-27T00:17:45.662Z</time>
      </trkpt>
      <trkpt lat="43.93063" lon="5.32328">
        <ele>258</ele>
        <time>2021-03-27T00:17:52.482Z</time>
      </trkpt>
      <trkpt lat="43.93056" lon="5.32307">
        <ele>258</ele>
        <time>2021-03-27T00:17:58.751Z</time>
      </trkpt>
      <trkpt lat="43.9305" lon="5.32274">
        <ele>258</ele>
        <time>2021-03-27T00:18:07.972Z</time>
      </trkpt>
      <trkpt lat="43.93049" lon="5.32251">
        <ele>258</ele>
        <time>2021-03-27T00:18:14.214Z</time>
      </trkpt>
      <trkpt lat="43.93051" lon="5.32232">
        <ele>258</ele>
        <time>2021-03-27T00:18:19.416Z</time>
      </trkpt>
      <trkpt lat="43.93094" lon="5.31975">
        <ele>256</ele>
        <time>2021-03-27T00:18:59.442Z</time>
      </trkpt>
      <trkpt lat="43.93096" lon="5.31954">
        <ele>256</ele>
        <time>2021-03-27T00:19:05.180Z</time>
      </trkpt>
      <trkpt lat="43.93066" lon="5.31003">
        <ele>247</ele>
        <time>2021-03-27T00:21:24.792Z</time>
      </trkpt>
      <trkpt lat="43.93066" lon="5.30972">
        <ele>247</ele>
        <time>2021-03-27T00:21:33.190Z</time>
      </trkpt>
      <trkpt lat="43.93078" lon="5.30788">
        <ele>247</ele>
        <time>2021-03-27T00:22:23.241Z</time>
      </trkpt>
      <trkpt lat="43.93078" lon="5.30753">
        <ele>247</ele>
        <time>2021-03-27T00:22:32.723Z</time>
      </trkpt>
      <trkpt lat="43.93074" lon="5.30718">
        <ele>246</ele>
        <time>2021-03-27T00:22:36.624Z</time>
      </trkpt>
      <trkpt lat="43.93047" lon="5.3059">
        <ele>241</ele>
        <time>2021-03-27T00:22:49.696Z</time>
      </trkpt>
      <trkpt lat="43.93036" lon="5.3055">
        <ele>240</ele>
        <time>2021-03-27T00:22:54.735Z</time>
      </trkpt>
      <trkpt lat="43.9294" lon="5.30279">
        <ele>233</ele>
        <time>2021-03-27T00:23:30.368Z</time>
      </trkpt>
      <trkpt lat="43.92929" lon="5.30241">
        <ele>232</ele>
        <time>2021-03-27T00:23:35.116Z</time>
      </trkpt>
      <trkpt lat="43.92918" lon="5.30162">
        <ele>230</ele>
        <time>2021-03-27T00:23:44.389Z</time>
      </trkpt>
      <trkpt lat="43.92908" lon="5.30112">
        <ele>229</ele>
        <time>2021-03-27T00:23:50.872Z</time>
      </trkpt>
      <trkpt lat="43.92868" lon="5.3001">
        <ele>227</ele>
        <time>2021-03-27T00:24:05.847Z</time>
      </trkpt>
      <trkpt lat="43.92866" lon="5.30003">
        <ele>227</ele>
        <time>2021-03-27T00:24:07.887Z</time>
      </trkpt>
      <trkpt lat="43.92852" lon="5.2995">
        <ele>226</ele>
        <time>2021-03-27T00:24:15.110Z</time>
      </trkpt>
      <trkpt lat="43.92834" lon="5.29851">
        <ele>224</ele>
        <time>2021-03-27T00:24:27.808Z</time>
      </trkpt>
      <trkpt lat="43.92823" lon="5.29807">
        <ele>223</ele>
        <time>2021-03-27T00:24:33.440Z</time>
      </trkpt>
      <trkpt lat="43.92805" lon="5.29749">
        <ele>221</ele>
        <time>2021-03-27T00:24:40.088Z</time>
      </trkpt>
      <trkpt lat="43.92694" lon="5.29419">
        <ele>216</ele>
        <time>2021-03-27T00:25:29.750Z</time>
      </trkpt>
      <trkpt lat="43.92678" lon="5.2936">
        <ele>215</ele>
        <time>2021-03-27T00:25:38.055Z</time>
      </trkpt>
      <trkpt lat="43.92671" lon="5.29315">
        <ele>215</ele>
        <time>2021-03-27T00:25:50.527Z</time>
      </trkpt>
      <trkpt lat="43.92668" lon="5.29272">
        <ele>214</ele>
        <time>2021-03-27T00:25:55.627Z</time>
      </trkpt>
      <trkpt lat="43.9267" lon="5.29225">
        <ele>214</ele>
        <time>2021-03-27T00:26:08.383Z</time>
      </trkpt>
      <trkpt lat="43.92683" lon="5.29082">
        <ele>216</ele>
        <time>2021-03-27T00:26:55.801Z</time>
      </trkpt>
      <trkpt lat="43.92684" lon="5.29054">
        <ele>216</ele>
        <time>2021-03-27T00:27:03.396Z</time>
      </trkpt>
      <trkpt lat="43.92683" lon="5.29007">
        <ele>215</ele>
        <time>2021-03-27T00:27:09.100Z</time>
      </trkpt>
      <trkpt lat="43.9268" lon="5.28989">
        <ele>215</ele>
        <time>2021-03-27T00:27:14.105Z</time>
      </trkpt>
      <trkpt lat="43.92666" lon="5.28937">
        <ele>215</ele>
        <time>2021-03-27T00:27:29.146Z</time>
      </trkpt>
      <trkpt lat="43.92588" lon="5.28705">
        <ele>213</ele>
        <time>2021-03-27T00:28:07.826Z</time>
      </trkpt>
      <trkpt lat="43.92581" lon="5.28685">
        <ele>213</ele>
        <time>2021-03-27T00:28:13.850Z</time>
      </trkpt>
      <trkpt lat="43.92545" lon="5.28583">
        <ele>213</ele>
        <time>2021-03-27T00:28:44.625Z</time>
      </trkpt>
      <trkpt lat="43.92387" lon="5.28203">
        <ele>211</ele>
        <time>2021-03-27T00:30:32.997Z</time>
      </trkpt>
      <trkpt lat="43.92365" lon="5.28162">
        <ele>211</ele>
        <time>2021-03-27T00:30:46.849Z</time>
      </trkpt>
      <trkpt lat="43.92338" lon="5.28118">
        <ele>209</ele>
        <time>2021-03-27T00:30:52.715Z</time>
      </trkpt>
      <trkpt lat="43.92305" lon="5.28079">
        <ele>209</ele>
        <time>2021-03-27T00:31:09.017Z</time>
      </trkpt>
      <trkpt lat="43.92268" lon="5.28043">
        <ele>208</ele>
        <time>2021-03-27T00:31:17.271Z</time>
      </trkpt>
      <trkpt lat="43.92236" lon="5.28018">
        <ele>207</ele>
        <time>2021-03-27T00:31:23.608Z</time>
      </trkpt>
      <trkpt lat="43.92177" lon="5.2798">
        <ele>209</ele>
        <time>2021-03-27T00:31:57.667Z</time>
      </trkpt>
      <trkpt lat="43.92148" lon="5.27959">
        <ele>209</ele>
        <time>2021-03-27T00:32:09.971Z</time>
      </trkpt>
      <trkpt lat="43.92121" lon="5.27934">
        <ele>209</ele>
        <time>2021-03-27T00:32:22.179Z</time>
      </trkpt>
      <trkpt lat="43.92042" lon="5.27835">
        <ele>209</ele>
        <time>2021-03-27T00:33:02.213Z</time>
      </trkpt>
      <trkpt lat="43.91985" lon="5.27771">
        <ele>210</ele>
        <time>2021-03-27T00:33:33.727Z</time>
      </trkpt>
      <trkpt lat="43.9196" lon="5.27739">
        <ele>210</ele>
        <time>2021-03-27T00:33:46.518Z</time>
      </trkpt>
      <trkpt lat="43.91937" lon="5.277">
        <ele>209</ele>
        <time>2021-03-27T00:33:52.764Z</time>
      </trkpt>
      <trkpt lat="43.91907" lon="5.27627">
        <ele>208</ele>
        <time>2021-03-27T00:34:04.581Z</time>
      </trkpt>
      <trkpt lat="43.91889" lon="5.27589">
        <ele>209</ele>
        <time>2021-03-27T00:34:21.688Z</time>
      </trkpt>
      <trkpt lat="43.91841" lon="5.27503">
        <ele>208</ele>
        <time>2021-03-27T00:34:37.723Z</time>
      </trkpt>
      <trkpt lat="43.91812" lon="5.27433">
        <ele>208</ele>
        <time>2021-03-27T00:34:59.604Z</time>
      </trkpt>
      <trkpt lat="43.91795" lon="5.27379">
        <ele>208</ele>
        <time>2021-03-27T00:35:15.572Z</time>
      </trkpt>
      <trkpt lat="43.91775" lon="5.27305">
        <ele>206</ele>
        <time>2021-03-27T00:35:24.626Z</time>
      </trkpt>
      <trkpt lat="43.91728" lon="5.27111">
        <ele>205</ele>
        <time>2021-03-27T00:36:14.866Z</time>
      </trkpt>
      <trkpt lat="43.91717" lon="5.27053">
        <ele>205</ele>
        <time>2021-03-27T00:36:31.118Z</time>
      </trkpt>
      <trkpt lat="43.91715" lon="5.27034">
        <ele>205</ele>
        <time>2021-03-27T00:36:36.321Z</time>
      </trkpt>
      <trkpt lat="43.91709" lon="5.26881">
        <ele>205</ele>
        <time>2021-03-27T00:37:17.841Z</time>
      </trkpt>
      <trkpt lat="43.91691" lon="5.26759">
        <ele>204</ele>
        <time>2021-03-27T00:37:36.584Z</time>
      </trkpt>
      <trkpt lat="43.91644" lon="5.26467">
        <ele>201</ele>
        <time>2021-03-27T00:38:20.038Z</time>
      </trkpt>
      <trkpt lat="43.91634" lon="5.26412">
        <ele>200</ele>
        <time>2021-03-27T00:38:27.307Z</time>
      </trkpt>
      <trkpt lat="43.91515" lon="5.25995">
        <ele>197</ele>
        <time>2021-03-27T00:39:36.499Z</time>
      </trkpt>
      <trkpt lat="43.91504" lon="5.25952">
        <ele>196</ele>
        <time>2021-03-27T00:39:41.984Z</time>
      </trkpt>
      <trkpt lat="43.91496" lon="5.25912">
        <ele>196</ele>
        <time>2021-03-27T00:39:53.233Z</time>
      </trkpt>
      <trkpt lat="43.91422" lon="5.25346">
        <ele>190</ele>
        <time>2021-03-27T00:41:16.195Z</time>
      </trkpt>
      <trkpt lat="43.91419" lon="5.25324">
        <ele>190</ele>
        <time>2021-03-27T00:41:22.262Z</time>
      </trkpt>
      <trkpt lat="43.91221" lon="5.23786">
        <ele>184</ele>
        <time>2021-03-27T00:47:53.676Z</time>
      </trkpt>
      <trkpt lat="43.91212" lon="5.23745">
        <ele>185</ele>
        <time>2021-03-27T00:48:10.190Z</time>
      </trkpt>
      <trkpt lat="43.91205" lon="5.23721">
        <ele>187</ele>
        <time>2021-03-27T00:48:29.818Z</time>
      </trkpt>
      <trkpt lat="43.91119" lon="5.23501">
        <ele>195</ele>
        <time>2021-03-27T00:50:24.084Z</time>
      </trkpt>
      <trkpt lat="43.91098" lon="5.23454">
        <ele>196</ele>
        <time>2021-03-27T00:50:43.546Z</time>
      </trkpt>
      <trkpt lat="43.91071" lon="5.23404">
        <ele>197</ele>
        <time>2021-03-27T00:51:04.806Z</time>
      </trkpt>
      <trkpt lat="43.91063" lon="5.23386">
        <ele>196</ele>
        <time>2021-03-27T00:51:06.664Z</time>
      </trkpt>
      <trkpt lat="43.91055" lon="5.23353">
        <ele>195</ele>
        <time>2021-03-27T00:51:10.474Z</time>
      </trkpt>
      <trkpt lat="43.91053" lon="5.23333">
        <ele>195</ele>
        <time>2021-03-27T00:51:15.946Z</time>
      </trkpt>
      <trkpt lat="43.91054" lon="5.23298">
        <ele>194</ele>
        <time>2021-03-27T00:51:19.786Z</time>
      </trkpt>
      <trkpt lat="43.91057" lon="5.23272">
        <ele>194</ele>
        <time>2021-03-27T00:51:26.922Z</time>
      </trkpt>
      <trkpt lat="43.91058" lon="5.23259">
        <ele>194</ele>
        <time>2021-03-27T00:51:30.465Z</time>
      </trkpt>
      <trkpt lat="43.9106" lon="5.23221">
        <ele>194</ele>
        <time>2021-03-27T00:51:40.791Z</time>
      </trkpt>
      <trkpt lat="43.91071" lon="5.23069">
        <ele>195</ele>
        <time>2021-03-27T00:52:25.948Z</time>
      </trkpt>
      <trkpt lat="43.91071" lon="5.23042">
        <ele>195</ele>
        <time>2021-03-27T00:52:33.265Z</time>
      </trkpt>
      <trkpt lat="43.91069" lon="5.23021">
        <ele>195</ele>
        <time>2021-03-27T00:52:39.006Z</time>
      </trkpt>
      <trkpt lat="43.91066" lon="5.23001">
        <ele>195</ele>
        <time>2021-03-27T00:52:44.542Z</time>
      </trkpt>
      <trkpt lat="43.91059" lon="5.22968">
        <ele>194</ele>
        <time>2021-03-27T00:52:48.288Z</time>
      </trkpt>
      <trkpt lat="43.91039" lon="5.22876">
        <ele>192</ele>
        <time>2021-03-27T00:53:00.027Z</time>
      </trkpt>
      <trkpt lat="43.91036" lon="5.22855">
        <ele>192</ele>
        <time>2021-03-27T00:53:05.829Z</time>
      </trkpt>
      <trkpt lat="43.91036" lon="5.22833">
        <ele>191</ele>
        <time>2021-03-27T00:53:07.801Z</time>
      </trkpt>
      <trkpt lat="43.91041" lon="5.22691">
        <ele>192</ele>
        <time>2021-03-27T00:53:50.113Z</time>
      </trkpt>
      <trkpt lat="43.91042" lon="5.22668">
        <ele>192</ele>
        <time>2021-03-27T00:53:56.357Z</time>
      </trkpt>
      <trkpt lat="43.91042" lon="5.22641">
        <ele>192</ele>
        <time>2021-03-27T00:54:03.674Z</time>
      </trkpt>
      <trkpt lat="43.91041" lon="5.22611">
        <ele>192</ele>
        <time>2021-03-27T00:54:11.813Z</time>
      </trkpt>
      <trkpt lat="43.91038" lon="5.22575">
        <ele>191</ele>
        <time>2021-03-27T00:54:15.838Z</time>
      </trkpt>
      <trkpt lat="43.91015" lon="5.22293">
        <ele>194</ele>
        <time>2021-03-27T00:55:44.690Z</time>
      </trkpt>
      <trkpt lat="43.91013" lon="5.22279">
        <ele>193</ele>
        <time>2021-03-27T00:55:46.048Z</time>
      </trkpt>
      <trkpt lat="43.91008" lon="5.22218">
        <ele>193</ele>
        <time>2021-03-27T00:56:02.686Z</time>
      </trkpt>
      <trkpt lat="43.91" lon="5.22132">
        <ele>194</ele>
        <time>2021-03-27T00:56:30.224Z</time>
      </trkpt>
      <trkpt lat="43.90998" lon="5.22115">
        <ele>194</ele>
        <time>2021-03-27T00:56:34.892Z</time>
      </trkpt>
      <trkpt lat="43.90996" lon="5.22077">
        <ele>195</ele>
        <time>2021-03-27T00:56:50.389Z</time>
      </trkpt>
      <trkpt lat="43.90997" lon="5.22058">
        <ele>195</ele>
        <time>2021-03-27T00:56:55.551Z</time>
      </trkpt>
      <trkpt lat="43.90998" lon="5.22048">
        <ele>196</ele>
        <time>2021-03-27T00:57:06.105Z</time>
      </trkpt>
      <trkpt lat="43.9103" lon="5.219">
        <ele>198</ele>
        <time>2021-03-27T00:57:56.229Z</time>
      </trkpt>
      <trkpt lat="43.91033" lon="5.21881">
        <ele>198</ele>
        <time>2021-03-27T00:58:01.501Z</time>
      </trkpt>
      <trkpt lat="43.91034" lon="5.21847">
        <ele>198</ele>
        <time>2021-03-27T00:58:10.722Z</time>
      </trkpt>
      <trkpt lat="43.91033" lon="5.21774">
        <ele>197</ele>
        <time>2021-03-27T00:58:20.687Z</time>
      </trkpt>
      <trkpt lat="43.91033" lon="5.21746">
        <ele>197</ele>
        <time>2021-03-27T00:58:28.275Z</time>
      </trkpt>
      <trkpt lat="43.91034" lon="5.21682">
        <ele>196</ele>
        <time>2021-03-27T00:58:36.743Z</time>
      </trkpt>
      <trkpt lat="43.91037" lon="5.21636">
        <ele>196</ele>
        <time>2021-03-27T00:58:49.260Z</time>
      </trkpt>
      <trkpt lat="43.91039" lon="5.21593">
        <ele>196</ele>
        <time>2021-03-27T00:59:00.937Z</time>
      </trkpt>
      <trkpt lat="43.91041" lon="5.21564">
        <ele>197</ele>
        <time>2021-03-27T00:59:14.532Z</time>
      </trkpt>
      <trkpt lat="43.91042" lon="5.21558">
        <ele>197</ele>
        <time>2021-03-27T00:59:16.201Z</time>
      </trkpt>
      <trkpt lat="43.91045" lon="5.2154">
        <ele>197</ele>
        <time>2021-03-27T00:59:21.208Z</time>
      </trkpt>
      <trkpt lat="43.91068" lon="5.21387">
        <ele>200</ele>
        <time>2021-03-27T01:00:17.238Z</time>
      </trkpt>
      <trkpt lat="43.91084" lon="5.2129">
        <ele>204</ele>
        <time>2021-03-27T01:01:06.253Z</time>
      </trkpt>
      <trkpt lat="43.91109" lon="5.21156">
        <ele>210</ele>
        <time>2021-03-27T01:02:16.527Z</time>
      </trkpt>
      <trkpt lat="43.91112" lon="5.21135">
        <ele>211</ele>
        <time>2021-03-27T01:02:27.764Z</time>
      </trkpt>
      <trkpt lat="43.91122" lon="5.2103">
        <ele>216</ele>
        <time>2021-03-27T01:03:23.637Z</time>
      </trkpt>
      <trkpt lat="43.91121" lon="5.21009">
        <ele>217</ele>
        <time>2021-03-27T01:03:34.774Z</time>
      </trkpt>
      <trkpt lat="43.91118" lon="5.2099">
        <ele>218</ele>
        <time>2021-03-27T01:03:45.491Z</time>
      </trkpt>
      <trkpt lat="43.9111" lon="5.20966">
        <ele>220</ele>
        <time>2021-03-27T01:04:05.078Z</time>
      </trkpt>
      <trkpt lat="43.91105" lon="5.20954">
        <ele>221</ele>
        <time>2021-03-27T01:04:14.860Z</time>
      </trkpt>
      <trkpt lat="43.911" lon="5.20946">
        <ele>221</ele>
        <time>2021-03-27T01:04:17.730Z</time>
      </trkpt>
      <trkpt lat="43.91095" lon="5.20941">
        <ele>221</ele>
        <time>2021-03-27T01:04:20.048Z</time>
      </trkpt>
      <trkpt lat="43.9109" lon="5.20937">
        <ele>221</ele>
        <time>2021-03-27T01:04:22.219Z</time>
      </trkpt>
      <trkpt lat="43.91083" lon="5.20934">
        <ele>220</ele>
        <time>2021-03-27T01:04:23.187Z</time>
      </trkpt>
      <trkpt lat="43.9106" lon="5.20929">
        <ele>220</ele>
        <time>2021-03-27T01:04:31.944Z</time>
      </trkpt>
      <trkpt lat="43.91043" lon="5.20924">
        <ele>219</ele>
        <time>2021-03-27T01:04:34.203Z</time>
      </trkpt>
      <trkpt lat="43.91034" lon="5.2092">
        <ele>219</ele>
        <time>2021-03-27T01:04:37.758Z</time>
      </trkpt>
      <trkpt lat="43.91021" lon="5.2091">
        <ele>219</ele>
        <time>2021-03-27T01:04:43.349Z</time>
      </trkpt>
      <trkpt lat="43.91012" lon="5.209">
        <ele>219</ele>
        <time>2021-03-27T01:04:47.685Z</time>
      </trkpt>
      <trkpt lat="43.91005" lon="5.20887">
        <ele>220</ele>
        <time>2021-03-27T01:04:57.709Z</time>
      </trkpt>
      <trkpt lat="43.90973" lon="5.20794">
        <ele>221</ele>
        <time>2021-03-27T01:05:29.570Z</time>
      </trkpt>
      <trkpt lat="43.90969" lon="5.2077">
        <ele>221</ele>
        <time>2021-03-27T01:05:36.246Z</time>
      </trkpt>
      <trkpt lat="43.90969" lon="5.20742">
        <ele>222</ele>
        <time>2021-03-27T01:05:49.477Z</time>
      </trkpt>
      <trkpt lat="43.90975" lon="5.20503">
        <ele>230</ele>
        <time>2021-03-27T01:07:40.213Z</time>
      </trkpt>
      <trkpt lat="43.90978" lon="5.20417">
        <ele>234</ele>
        <time>2021-03-27T01:08:25.292Z</time>
      </trkpt>
      <trkpt lat="43.90978" lon="5.20394">
        <ele>236</ele>
        <time>2021-03-27T01:08:45.597Z</time>
      </trkpt>
      <trkpt lat="43.90976" lon="5.20376">
        <ele>238</ele>
        <time>2021-03-27T01:09:04.635Z</time>
      </trkpt>
      <trkpt lat="43.9097" lon="5.20356">
        <ele>240</ele>
        <time>2021-03-27T01:09:25.671Z</time>
      </trkpt>
      <trkpt lat="43.90963" lon="5.20342">
        <ele>240</ele>
        <time>2021-03-27T01:09:30.289Z</time>
      </trkpt>
      <trkpt lat="43.90953" lon="5.20331">
        <ele>241</ele>
        <time>2021-03-27T01:09:40.598Z</time>
      </trkpt>
      <trkpt lat="43.90943" lon="5.20322">
        <ele>242</ele>
        <time>2021-03-27T01:09:50.677Z</time>
      </trkpt>
      <trkpt lat="43.90932" lon="5.20315">
        <ele>242</ele>
        <time>2021-03-27T01:09:55.229Z</time>
      </trkpt>
      <trkpt lat="43.90923" lon="5.2031">
        <ele>243</ele>
        <time>2021-03-27T01:10:05.012Z</time>
      </trkpt>
      <trkpt lat="43.9091" lon="5.20307">
        <ele>242</ele>
        <time>2021-03-27T01:10:06.753Z</time>
      </trkpt>
      <trkpt lat="43.90898" lon="5.20307">
        <ele>241</ele>
        <time>2021-03-27T01:10:08.338Z</time>
      </trkpt>
      <trkpt lat="43.90872" lon="5.20314">
        <ele>239</ele>
        <time>2021-03-27T01:10:11.837Z</time>
      </trkpt>
      <trkpt lat="43.90855" lon="5.20317">
        <ele>237</ele>
        <time>2021-03-27T01:10:14.100Z</time>
      </trkpt>
      <trkpt lat="43.90841" lon="5.20313">
        <ele>237</ele>
        <time>2021-03-27T01:10:19.477Z</time>
      </trkpt>
      <trkpt lat="43.90827" lon="5.20303">
        <ele>237</ele>
        <time>2021-03-27T01:10:25.400Z</time>
      </trkpt>
      <trkpt lat="43.90818" lon="5.20287">
        <ele>237</ele>
        <time>2021-03-27T01:10:30.901Z</time>
      </trkpt>
      <trkpt lat="43.90812" lon="5.20271">
        <ele>239</ele>
        <time>2021-03-27T01:10:49.757Z</time>
      </trkpt>
      <trkpt lat="43.90805" lon="5.20242">
        <ele>241</ele>
        <time>2021-03-27T01:11:09.532Z</time>
      </trkpt>
      <trkpt lat="43.908" lon="5.20212">
        <ele>241</ele>
        <time>2021-03-27T01:11:17.877Z</time>
      </trkpt>
      <trkpt lat="43.90797" lon="5.20191">
        <ele>241</ele>
        <time>2021-03-27T01:11:23.679Z</time>
      </trkpt>
      <trkpt lat="43.90794" lon="5.20143">
        <ele>244</ele>
        <time>2021-03-27T01:11:53.668Z</time>
      </trkpt>
      <trkpt lat="43.90793" lon="5.20088">
        <ele>248</ele>
        <time>2021-03-27T01:12:32.792Z</time>
      </trkpt>
      <trkpt lat="43.9079" lon="5.2007">
        <ele>249</ele>
        <time>2021-03-27T01:12:43.272Z</time>
      </trkpt>
      <trkpt lat="43.90788" lon="5.20064">
        <ele>250</ele>
        <time>2021-03-27T01:12:50.183Z</time>
      </trkpt>
      <trkpt lat="43.90785" lon="5.2006">
        <ele>250</ele>
        <time>2021-03-27T01:12:51.748Z</time>
      </trkpt>
      <trkpt lat="43.90782" lon="5.20056">
        <ele>251</ele>
        <time>2021-03-27T01:12:57.784Z</time>
      </trkpt>
      <trkpt lat="43.90774" lon="5.20053">
        <ele>251</ele>
        <time>2021-03-27T01:13:00.901Z</time>
      </trkpt>
      <trkpt lat="43.90768" lon="5.20054">
        <ele>250</ele>
        <time>2021-03-27T01:13:01.699Z</time>
      </trkpt>
      <trkpt lat="43.90715" lon="5.20066">
        <ele>248</ele>
        <time>2021-03-27T01:13:10.063Z</time>
      </trkpt>
      <trkpt lat="43.90698" lon="5.20067">
        <ele>248</ele>
        <time>2021-03-27T01:13:16.463Z</time>
      </trkpt>
      <trkpt lat="43.90654" lon="5.20066">
        <ele>249</ele>
        <time>2021-03-27T01:13:37.368Z</time>
      </trkpt>
      <trkpt lat="43.90573" lon="5.20055">
        <ele>251</ele>
        <time>2021-03-27T01:14:16.876Z</time>
      </trkpt>
      <trkpt lat="43.90516" lon="5.20064">
        <ele>248</ele>
        <time>2021-03-27T01:14:24.667Z</time>
      </trkpt>
      <trkpt lat="43.90484" lon="5.20066">
        <ele>247</ele>
        <time>2021-03-27T01:14:29.967Z</time>
      </trkpt>
      <trkpt lat="43.90455" lon="5.20062">
        <ele>247</ele>
        <time>2021-03-27T01:14:40.930Z</time>
      </trkpt>
      <trkpt lat="43.90444" lon="5.20058">
        <ele>248</ele>
        <time>2021-03-27T01:14:50.884Z</time>
      </trkpt>
      <trkpt lat="43.90432" lon="5.20053">
        <ele>248</ele>
        <time>2021-03-27T01:14:55.597Z</time>
      </trkpt>
      <trkpt lat="43.90427" lon="5.20049">
        <ele>249</ele>
        <time>2021-03-27T01:15:03.971Z</time>
      </trkpt>
      <trkpt lat="43.90412" lon="5.20035">
        <ele>250</ele>
        <time>2021-03-27T01:15:16.290Z</time>
      </trkpt>
      <trkpt lat="43.90391" lon="5.20006">
        <ele>253</ele>
        <time>2021-03-27T01:15:45.632Z</time>
      </trkpt>
      <trkpt lat="43.90379" lon="5.19994">
        <ele>254</ele>
        <time>2021-03-27T01:15:56.629Z</time>
      </trkpt>
      <trkpt lat="43.90313" lon="5.19939">
        <ele>255</ele>
        <time>2021-03-27T01:16:29.499Z</time>
      </trkpt>
      <trkpt lat="43.90276" lon="5.19898">
        <ele>255</ele>
        <time>2021-03-27T01:16:47.309Z</time>
      </trkpt>
      <trkpt lat="43.90265" lon="5.19885">
        <ele>255</ele>
        <time>2021-03-27T01:16:52.744Z</time>
      </trkpt>
      <trkpt lat="43.90255" lon="5.19869">
        <ele>255</ele>
        <time>2021-03-27T01:16:58.485Z</time>
      </trkpt>
      <trkpt lat="43.90235" lon="5.19831">
        <ele>257</ele>
        <time>2021-03-27T01:17:22.182Z</time>
      </trkpt>
      <trkpt lat="43.90196" lon="5.19769">
        <ele>263</ele>
        <time>2021-03-27T01:18:20.866Z</time>
      </trkpt>
      <trkpt lat="43.90097" lon="5.1962">
        <ele>272</ele>
        <time>2021-03-27T01:20:04.845Z</time>
      </trkpt>
      <trkpt lat="43.90092" lon="5.19609">
        <ele>272</ele>
        <time>2021-03-27T01:20:08.370Z</time>
      </trkpt>
      <trkpt lat="43.90089" lon="5.19588">
        <ele>274</ele>
        <time>2021-03-27T01:20:29.592Z</time>
      </trkpt>
      <trkpt lat="43.90089" lon="5.19577">
        <ele>275</ele>
        <time>2021-03-27T01:20:39.999Z</time>
      </trkpt>
      <trkpt lat="43.90095" lon="5.19557">
        <ele>277</ele>
        <time>2021-03-27T01:21:01.034Z</time>
      </trkpt>
      <trkpt lat="43.90121" lon="5.19495">
        <ele>281</ele>
        <time>2021-03-27T01:21:42.467Z</time>
      </trkpt>
      <trkpt lat="43.90133" lon="5.19467">
        <ele>280</ele>
        <time>2021-03-27T01:21:45.941Z</time>
      </trkpt>
      <trkpt lat="43.90147" lon="5.19436">
        <ele>278</ele>
        <time>2021-03-27T01:21:49.423Z</time>
      </trkpt>
      <trkpt lat="43.90152" lon="5.19429">
        <ele>277</ele>
        <time>2021-03-27T01:21:50.361Z</time>
      </trkpt>
      <trkpt lat="43.90157" lon="5.19424">
        <ele>277</ele>
        <time>2021-03-27T01:21:52.679Z</time>
      </trkpt>
      <trkpt lat="43.9016" lon="5.19421">
        <ele>277</ele>
        <time>2021-03-27T01:21:54.070Z</time>
      </trkpt>
      <trkpt lat="43.90161" lon="5.19422">
        <ele>277</ele>
        <time>2021-03-27T01:21:54.534Z</time>
      </trkpt>
      <trkpt lat="43.90161" lon="5.19422">
        <ele>277</ele>
        <time>2021-03-27T01:21:54.534Z</time>
      </trkpt>
      <trkpt lat="43.90163" lon="5.19421">
        <ele>277</ele>
        <time>2021-03-27T01:21:55.334Z</time>
      </trkpt>
      <trkpt lat="43.90229" lon="5.19433">
        <ele>280</ele>
        <time>2021-03-27T01:22:37.746Z</time>
      </trkpt>
      <trkpt lat="43.90256" lon="5.1944">
        <ele>282</ele>
        <time>2021-03-27T01:22:58.988Z</time>
      </trkpt>
      <trkpt lat="43.90268" lon="5.19447">
        <ele>283</ele>
        <time>2021-03-27T01:23:09.375Z</time>
      </trkpt>
      <trkpt lat="43.90302" lon="5.19473">
        <ele>286</ele>
        <time>2021-03-27T01:23:40.467Z</time>
      </trkpt>
      <trkpt lat="43.90324" lon="5.1948">
        <ele>288</ele>
        <time>2021-03-27T01:24:00.340Z</time>
      </trkpt>
      <trkpt lat="43.90406" lon="5.1948">
        <ele>293</ele>
        <time>2021-03-27T01:24:58.455Z</time>
      </trkpt>
      <trkpt lat="43.90427" lon="5.19475">
        <ele>294</ele>
        <time>2021-03-27T01:25:12.194Z</time>
      </trkpt>
      <trkpt lat="43.90482" lon="5.19455">
        <ele>294</ele>
        <time>2021-03-27T01:25:33.581Z</time>
      </trkpt>
      <trkpt lat="43.90488" lon="5.19456">
        <ele>294</ele>
        <time>2021-03-27T01:25:35.855Z</time>
      </trkpt>
      <trkpt lat="43.90495" lon="5.1946">
        <ele>295</ele>
        <time>2021-03-27T01:25:46.630Z</time>
      </trkpt>
      <trkpt lat="43.90508" lon="5.19473">
        <ele>296</ele>
        <time>2021-03-27T01:25:58.102Z</time>
      </trkpt>
      <trkpt lat="43.90514" lon="5.19485">
        <ele>298</ele>
        <time>2021-03-27T01:26:13.372Z</time>
      </trkpt>
      <trkpt lat="43.90516" lon="5.19494">
        <ele>298</ele>
        <time>2021-03-27T01:26:15.924Z</time>
      </trkpt>
      <trkpt lat="43.90513" lon="5.19516">
        <ele>299</ele>
        <time>2021-03-27T01:26:27.440Z</time>
      </trkpt>
      <trkpt lat="43.90509" lon="5.19528">
        <ele>300</ele>
        <time>2021-03-27T01:26:37.233Z</time>
      </trkpt>
      <trkpt lat="43.90502" lon="5.19541">
        <ele>301</ele>
        <time>2021-03-27T01:26:47.257Z</time>
      </trkpt>
      <trkpt lat="43.90453" lon="5.19609">
        <ele>301</ele>
        <time>2021-03-27T01:27:13.323Z</time>
      </trkpt>
      <trkpt lat="43.90446" lon="5.1963">
        <ele>302</ele>
        <time>2021-03-27T01:27:25.056Z</time>
      </trkpt>
      <trkpt lat="43.90446" lon="5.19653">
        <ele>303</ele>
        <time>2021-03-27T01:27:36.748Z</time>
      </trkpt>
      <trkpt lat="43.90448" lon="5.19662">
        <ele>303</ele>
        <time>2021-03-27T01:27:39.301Z</time>
      </trkpt>
      <trkpt lat="43.90452" lon="5.19669">
        <ele>304</ele>
        <time>2021-03-27T01:27:48.641Z</time>
      </trkpt>
      <trkpt lat="43.90458" lon="5.19676">
        <ele>304</ele>
        <time>2021-03-27T01:27:51.589Z</time>
      </trkpt>
      <trkpt lat="43.9047" lon="5.19685">
        <ele>305</ele>
        <time>2021-03-27T01:28:02.179Z</time>
      </trkpt>
      <trkpt lat="43.90577" lon="5.19738">
        <ele>314</ele>
        <time>2021-03-27T01:29:34.599Z</time>
      </trkpt>
      <trkpt lat="43.90596" lon="5.19743">
        <ele>315</ele>
        <time>2021-03-27T01:29:47.463Z</time>
      </trkpt>
      <trkpt lat="43.90616" lon="5.1974">
        <ele>316</ele>
        <time>2021-03-27T01:30:00.670Z</time>
      </trkpt>
      <trkpt lat="43.90706" lon="5.19714">
        <ele>321</ele>
        <time>2021-03-27T01:31:02.927Z</time>
      </trkpt>
      <trkpt lat="43.90726" lon="5.19712">
        <ele>322</ele>
        <time>2021-03-27T01:31:16.105Z</time>
      </trkpt>
      <trkpt lat="43.90737" lon="5.19716">
        <ele>323</ele>
        <time>2021-03-27T01:31:26.059Z</time>
      </trkpt>
      <trkpt lat="43.9082" lon="5.19771">
        <ele>321</ele>
        <time>2021-03-27T01:31:42.935Z</time>
      </trkpt>
      <trkpt lat="43.90834" lon="5.19773">
        <ele>320</ele>
        <time>2021-03-27T01:31:44.794Z</time>
      </trkpt>
      <trkpt lat="43.90876" lon="5.19767">
        <ele>320</ele>
        <time>2021-03-27T01:32:00.676Z</time>
      </trkpt>
      <trkpt lat="43.90891" lon="5.19761">
        <ele>321</ele>
        <time>2021-03-27T01:32:11.986Z</time>
      </trkpt>
      <trkpt lat="43.90929" lon="5.19739">
        <ele>326</ele>
        <time>2021-03-27T01:33:02.899Z</time>
      </trkpt>
      <trkpt lat="43.90946" lon="5.19733">
        <ele>326</ele>
        <time>2021-03-27T01:33:09.497Z</time>
      </trkpt>
      <trkpt lat="43.91011" lon="5.1972">
        <ele>328</ele>
        <time>2021-03-27T01:33:43.758Z</time>
      </trkpt>
      <trkpt lat="43.9104" lon="5.19708">
        <ele>328</ele>
        <time>2021-03-27T01:33:55.141Z</time>
      </trkpt>
      <trkpt lat="43.91104" lon="5.19673">
        <ele>335</ele>
        <time>2021-03-27T01:35:03.607Z</time>
      </trkpt>
      <trkpt lat="43.91152" lon="5.19658">
        <ele>338</ele>
        <time>2021-03-27T01:35:38.477Z</time>
      </trkpt>
      <trkpt lat="43.91181" lon="5.19646">
        <ele>340</ele>
        <time>2021-03-27T01:36:00.727Z</time>
      </trkpt>
      <trkpt lat="43.9119" lon="5.19644">
        <ele>341</ele>
        <time>2021-03-27T01:36:10.575Z</time>
      </trkpt>
      <trkpt lat="43.91232" lon="5.19647">
        <ele>343</ele>
        <time>2021-03-27T01:36:37.801Z</time>
      </trkpt>
      <trkpt lat="43.91264" lon="5.19659">
        <ele>344</ele>
        <time>2021-03-27T01:36:55.032Z</time>
      </trkpt>
      <trkpt lat="43.91312" lon="5.19666">
        <ele>346</ele>
        <time>2021-03-27T01:37:24.294Z</time>
      </trkpt>
      <trkpt lat="43.91334" lon="5.19673">
        <ele>347</ele>
        <time>2021-03-27T01:37:38.584Z</time>
      </trkpt>
      <trkpt lat="43.91355" lon="5.19681">
        <ele>350</ele>
        <time>2021-03-27T01:38:10.180Z</time>
      </trkpt>
      <trkpt lat="43.91375" lon="5.19696">
        <ele>352</ele>
        <time>2021-03-27T01:38:30.086Z</time>
      </trkpt>
      <trkpt lat="43.91383" lon="5.19707">
        <ele>352</ele>
        <time>2021-03-27T01:38:34.322Z</time>
      </trkpt>
      <trkpt lat="43.91386" lon="5.19719">
        <ele>352</ele>
        <time>2021-03-27T01:38:37.764Z</time>
      </trkpt>
      <trkpt lat="43.91386" lon="5.19726">
        <ele>352</ele>
        <time>2021-03-27T01:38:39.661Z</time>
      </trkpt>
      <trkpt lat="43.9138" lon="5.19739">
        <ele>351</ele>
        <time>2021-03-27T01:38:41.130Z</time>
      </trkpt>
      <trkpt lat="43.91373" lon="5.19746">
        <ele>350</ele>
        <time>2021-03-27T01:38:42.269Z</time>
      </trkpt>
      <trkpt lat="43.91301" lon="5.19777">
        <ele>348</ele>
        <time>2021-03-27T01:38:55.380Z</time>
      </trkpt>
      <trkpt lat="43.9129" lon="5.19781">
        <ele>347</ele>
        <time>2021-03-27T01:38:56.882Z</time>
      </trkpt>
      <trkpt lat="43.9124" lon="5.1979">
        <ele>342</ele>
        <time>2021-03-27T01:39:03.542Z</time>
      </trkpt>
      <trkpt lat="43.91224" lon="5.19799">
        <ele>342</ele>
        <time>2021-03-27T01:39:10.036Z</time>
      </trkpt>
      <trkpt lat="43.91211" lon="5.1981">
        <ele>341</ele>
        <time>2021-03-27T01:39:11.892Z</time>
      </trkpt>
      <trkpt lat="43.91163" lon="5.19876">
        <ele>344</ele>
        <time>2021-03-27T01:39:54.730Z</time>
      </trkpt>
      <trkpt lat="43.91137" lon="5.19942">
        <ele>348</ele>
        <time>2021-03-27T01:40:36.965Z</time>
      </trkpt>
      <trkpt lat="43.91125" lon="5.19964">
        <ele>348</ele>
        <time>2021-03-27T01:40:44.443Z</time>
      </trkpt>
      <trkpt lat="43.91125" lon="5.19971">
        <ele>349</ele>
        <time>2021-03-27T01:40:51.760Z</time>
      </trkpt>
      <trkpt lat="43.91129" lon="5.19975">
        <ele>350</ele>
        <time>2021-03-27T01:40:58.913Z</time>
      </trkpt>
      <trkpt lat="43.91148" lon="5.19984">
        <ele>353</ele>
        <time>2021-03-27T01:41:28.041Z</time>
      </trkpt>
      <trkpt lat="43.91185" lon="5.19988">
        <ele>357</ele>
        <time>2021-03-27T01:42:07.324Z</time>
      </trkpt>
      <trkpt lat="43.91202" lon="5.19991">
        <ele>359</ele>
        <time>2021-03-27T01:42:27.348Z</time>
      </trkpt>
      <trkpt lat="43.91219" lon="5.19997">
        <ele>361</ele>
        <time>2021-03-27T01:42:47.222Z</time>
      </trkpt>
      <trkpt lat="43.91231" lon="5.20003">
        <ele>363</ele>
        <time>2021-03-27T01:43:05.728Z</time>
      </trkpt>
      <trkpt lat="43.91311" lon="5.20055">
        <ele>367</ele>
        <time>2021-03-27T01:44:02.089Z</time>
      </trkpt>
      <trkpt lat="43.91323" lon="5.20061">
        <ele>368</ele>
        <time>2021-03-27T01:44:12.397Z</time>
      </trkpt>
      <trkpt lat="43.91332" lon="5.20062">
        <ele>369</ele>
        <time>2021-03-27T01:44:22.263Z</time>
      </trkpt>
      <trkpt lat="43.91419" lon="5.20058">
        <ele>374</ele>
        <time>2021-03-27T01:45:22.453Z</time>
      </trkpt>
      <trkpt lat="43.9143" lon="5.20059">
        <ele>375</ele>
        <time>2021-03-27T01:45:32.342Z</time>
      </trkpt>
      <trkpt lat="43.9147" lon="5.2007">
        <ele>378</ele>
        <time>2021-03-27T01:46:04.062Z</time>
      </trkpt>
      <trkpt lat="43.91533" lon="5.20104">
        <ele>383</ele>
        <time>2021-03-27T01:46:56.806Z</time>
      </trkpt>
      <trkpt lat="43.91549" lon="5.2011">
        <ele>385</ele>
        <time>2021-03-27T01:47:17.109Z</time>
      </trkpt>
      <trkpt lat="43.91614" lon="5.20129">
        <ele>389</ele>
        <time>2021-03-27T01:48:03.936Z</time>
      </trkpt>
      <trkpt lat="43.9167" lon="5.20155">
        <ele>393</ele>
        <time>2021-03-27T01:48:47.884Z</time>
      </trkpt>
      <trkpt lat="43.91703" lon="5.20163">
        <ele>395</ele>
        <time>2021-03-27T01:49:11.414Z</time>
      </trkpt>
      <trkpt lat="43.91735" lon="5.20168">
        <ele>396</ele>
        <time>2021-03-27T01:49:28.343Z</time>
      </trkpt>
      <trkpt lat="43.91759" lon="5.20177">
        <ele>397</ele>
        <time>2021-03-27T01:49:43.150Z</time>
      </trkpt>
      <trkpt lat="43.91821" lon="5.20209">
        <ele>402</ele>
        <time>2021-03-27T01:50:35.423Z</time>
      </trkpt>
      <trkpt lat="43.91848" lon="5.20228">
        <ele>404</ele>
        <time>2021-03-27T01:50:57.677Z</time>
      </trkpt>
      <trkpt lat="43.91864" lon="5.20243">
        <ele>405</ele>
        <time>2021-03-27T01:51:10.527Z</time>
      </trkpt>
      <trkpt lat="43.91872" lon="5.20248">
        <ele>406</ele>
        <time>2021-03-27T01:51:20.463Z</time>
      </trkpt>
      <trkpt lat="43.91894" lon="5.20252">
        <ele>408</ele>
        <time>2021-03-27T01:51:40.265Z</time>
      </trkpt>
      <trkpt lat="43.91969" lon="5.20249">
        <ele>411</ele>
        <time>2021-03-27T01:52:24.800Z</time>
      </trkpt>
      <trkpt lat="43.91995" lon="5.20249">
        <ele>413</ele>
        <time>2021-03-27T01:52:45.564Z</time>
      </trkpt>
      <trkpt lat="43.92021" lon="5.20256">
        <ele>414</ele>
        <time>2021-03-27T01:53:00.794Z</time>
      </trkpt>
      <trkpt lat="43.92084" lon="5.20285">
        <ele>420</ele>
        <time>2021-03-27T01:54:00.167Z</time>
      </trkpt>
      <trkpt lat="43.92099" lon="5.20294">
        <ele>421</ele>
        <time>2021-03-27T01:54:11.766Z</time>
      </trkpt>
      <trkpt lat="43.9222" lon="5.20386">
        <ele>425</ele>
        <time>2021-03-27T01:55:22.428Z</time>
      </trkpt>
      <trkpt lat="43.92242" lon="5.20396">
        <ele>425</ele>
        <time>2021-03-27T01:55:31.136Z</time>
      </trkpt>
      <trkpt lat="43.92252" lon="5.20399">
        <ele>425</ele>
        <time>2021-03-27T01:55:34.984Z</time>
      </trkpt>
      <trkpt lat="43.9228" lon="5.20399">
        <ele>426</ele>
        <time>2021-03-27T01:55:50.638Z</time>
      </trkpt>
      <trkpt lat="43.92375" lon="5.20391">
        <ele>430</ele>
        <time>2021-03-27T01:56:48.849Z</time>
      </trkpt>
      <trkpt lat="43.924" lon="5.20395">
        <ele>432</ele>
        <time>2021-03-27T01:57:09.363Z</time>
      </trkpt>
      <trkpt lat="43.92558" lon="5.2046">
        <ele>444</ele>
        <time>2021-03-27T01:59:16.810Z</time>
      </trkpt>
      <trkpt lat="43.92571" lon="5.2047">
        <ele>444</ele>
        <time>2021-03-27T01:59:22.401Z</time>
      </trkpt>
      <trkpt lat="43.92584" lon="5.20486">
        <ele>445</ele>
        <time>2021-03-27T01:59:34.423Z</time>
      </trkpt>
      <trkpt lat="43.92611" lon="5.20542">
        <ele>447</ele>
        <time>2021-03-27T02:00:03.750Z</time>
      </trkpt>
      <trkpt lat="43.92624" lon="5.20574">
        <ele>448</ele>
        <time>2021-03-27T02:00:18.974Z</time>
      </trkpt>
      <trkpt lat="43.92717" lon="5.20775">
        <ele>453</ele>
        <time>2021-03-27T02:01:47.176Z</time>
      </trkpt>
      <trkpt lat="43.92726" lon="5.20785">
        <ele>453</ele>
        <time>2021-03-27T02:01:51.512Z</time>
      </trkpt>
      <trkpt lat="43.92735" lon="5.20792">
        <ele>453</ele>
        <time>2021-03-27T02:01:55.393Z</time>
      </trkpt>
      <trkpt lat="43.92758" lon="5.20798">
        <ele>454</ele>
        <time>2021-03-27T02:02:09.858Z</time>
      </trkpt>
      <trkpt lat="43.92805" lon="5.20816">
        <ele>456</ele>
        <time>2021-03-27T02:02:39.237Z</time>
      </trkpt>
      <trkpt lat="43.92829" lon="5.20837">
        <ele>457</ele>
        <time>2021-03-27T02:02:54.997Z</time>
      </trkpt>
      <trkpt lat="43.92849" lon="5.20866">
        <ele>459</ele>
        <time>2021-03-27T02:03:16.749Z</time>
      </trkpt>
      <trkpt lat="43.92866" lon="5.20905">
        <ele>460</ele>
        <time>2021-03-27T02:03:33.878Z</time>
      </trkpt>
      <trkpt lat="43.92884" lon="5.20958">
        <ele>460</ele>
        <time>2021-03-27T02:03:49.753Z</time>
      </trkpt>
      <trkpt lat="43.929" lon="5.20995">
        <ele>460</ele>
        <time>2021-03-27T02:04:01.445Z</time>
      </trkpt>
      <trkpt lat="43.92916" lon="5.21018">
        <ele>461</ele>
        <time>2021-03-27T02:04:15.829Z</time>
      </trkpt>
      <trkpt lat="43.92934" lon="5.21036">
        <ele>463</ele>
        <time>2021-03-27T02:04:35.630Z</time>
      </trkpt>
      <trkpt lat="43.92982" lon="5.21078">
        <ele>468</ele>
        <time>2021-03-27T02:05:25.376Z</time>
      </trkpt>
      <trkpt lat="43.93033" lon="5.21141">
        <ele>468</ele>
        <time>2021-03-27T02:05:51.054Z</time>
      </trkpt>
      <trkpt lat="43.93047" lon="5.21151">
        <ele>468</ele>
        <time>2021-03-27T02:05:56.976Z</time>
      </trkpt>
      <trkpt lat="43.93055" lon="5.21153">
        <ele>468</ele>
        <time>2021-03-27T02:06:00.034Z</time>
      </trkpt>
      <trkpt lat="43.93074" lon="5.21147">
        <ele>471</ele>
        <time>2021-03-27T02:06:28.306Z</time>
      </trkpt>
      <trkpt lat="43.93097" lon="5.21134">
        <ele>476</ele>
        <time>2021-03-27T02:07:04.336Z</time>
      </trkpt>
      <trkpt lat="43.93111" lon="5.21134">
        <ele>478</ele>
        <time>2021-03-27T02:07:24.649Z</time>
      </trkpt>
      <trkpt lat="43.93123" lon="5.21145">
        <ele>478</ele>
        <time>2021-03-27T02:07:30.058Z</time>
      </trkpt>
      <trkpt lat="43.93126" lon="5.21154">
        <ele>478</ele>
        <time>2021-03-27T02:07:32.745Z</time>
      </trkpt>
      <trkpt lat="43.9313" lon="5.21188">
        <ele>474</ele>
        <time>2021-03-27T02:07:36.022Z</time>
      </trkpt>
      <trkpt lat="43.93133" lon="5.21198">
        <ele>473</ele>
        <time>2021-03-27T02:07:37.053Z</time>
      </trkpt>
      <trkpt lat="43.93137" lon="5.21205">
        <ele>472</ele>
        <time>2021-03-27T02:07:37.903Z</time>
      </trkpt>
      <trkpt lat="43.9315" lon="5.21218">
        <ele>473</ele>
        <time>2021-03-27T02:07:49.374Z</time>
      </trkpt>
      <trkpt lat="43.93204" lon="5.21232">
        <ele>477</ele>
        <time>2021-03-27T02:08:31.857Z</time>
      </trkpt>
      <trkpt lat="43.93232" lon="5.21234">
        <ele>480</ele>
        <time>2021-03-27T02:09:01.292Z</time>
      </trkpt>
      <trkpt lat="43.93245" lon="5.21232">
        <ele>481</ele>
        <time>2021-03-27T02:09:11.699Z</time>
      </trkpt>
      <trkpt lat="43.93274" lon="5.21223">
        <ele>484</ele>
        <time>2021-03-27T02:09:41.041Z</time>
      </trkpt>
      <trkpt lat="43.93374" lon="5.21175">
        <ele>495</ele>
        <time>2021-03-27T02:11:28.702Z</time>
      </trkpt>
      <trkpt lat="43.93453" lon="5.21129">
        <ele>503</ele>
        <time>2021-03-27T02:12:47.428Z</time>
      </trkpt>
      <trkpt lat="43.93476" lon="5.2112">
        <ele>505</ele>
        <time>2021-03-27T02:13:07.599Z</time>
      </trkpt>
      <trkpt lat="43.93557" lon="5.21094">
        <ele>511</ele>
        <time>2021-03-27T02:14:11.576Z</time>
      </trkpt>
      <trkpt lat="43.93571" lon="5.21093">
        <ele>511</ele>
        <time>2021-03-27T02:14:16.849Z</time>
      </trkpt>
      <trkpt lat="43.93585" lon="5.21096">
        <ele>511</ele>
        <time>2021-03-27T02:14:22.178Z</time>
      </trkpt>
      <trkpt lat="43.93607" lon="5.21105">
        <ele>511</ele>
        <time>2021-03-27T02:14:30.805Z</time>
      </trkpt>
      <trkpt lat="43.93614" lon="5.21106">
        <ele>511</ele>
        <time>2021-03-27T02:14:33.452Z</time>
      </trkpt>
      <trkpt lat="43.93623" lon="5.21105">
        <ele>512</ele>
        <time>2021-03-27T02:14:43.319Z</time>
      </trkpt>
      <trkpt lat="43.93638" lon="5.21092">
        <ele>514</ele>
        <time>2021-03-27T02:15:03.149Z</time>
      </trkpt>
      <trkpt lat="43.93678" lon="5.21044">
        <ele>524</ele>
        <time>2021-03-27T02:16:19.854Z</time>
      </trkpt>
      <trkpt lat="43.93697" lon="5.21027">
        <ele>527</ele>
        <time>2021-03-27T02:16:52.318Z</time>
      </trkpt>
      <trkpt lat="43.93717" lon="5.21013">
        <ele>527</ele>
        <time>2021-03-27T02:17:00.743Z</time>
      </trkpt>
      <trkpt lat="43.93748" lon="5.20994">
        <ele>527</ele>
        <time>2021-03-27T02:17:13.490Z</time>
      </trkpt>
      <trkpt lat="43.93765" lon="5.20987">
        <ele>528</ele>
        <time>2021-03-27T02:17:25.663Z</time>
      </trkpt>
      <trkpt lat="43.93782" lon="5.20981">
        <ele>529</ele>
        <time>2021-03-27T02:17:37.756Z</time>
      </trkpt>
      <trkpt lat="43.94014" lon="5.20948">
        <ele>522</ele>
        <time>2021-03-27T02:18:16.832Z</time>
      </trkpt>
      <trkpt lat="43.94034" lon="5.20947">
        <ele>521</ele>
        <time>2021-03-27T02:18:19.605Z</time>
      </trkpt>
      <trkpt lat="43.94056" lon="5.20949">
        <ele>520</ele>
        <time>2021-03-27T02:18:22.787Z</time>
      </trkpt>
      <trkpt lat="43.94074" lon="5.20956">
        <ele>520</ele>
        <time>2021-03-27T02:18:29.818Z</time>
      </trkpt>
      <trkpt lat="43.94096" lon="5.20967">
        <ele>520</ele>
        <time>2021-03-27T02:18:38.614Z</time>
      </trkpt>
      <trkpt lat="43.94114" lon="5.20981">
        <ele>520</ele>
        <time>2021-03-27T02:18:46.374Z</time>
      </trkpt>
      <trkpt lat="43.94441" lon="5.21345">
        <ele>525</ele>
        <time>2021-03-27T02:21:43.358Z</time>
      </trkpt>
      <trkpt lat="43.94455" lon="5.21356">
        <ele>524</ele>
        <time>2021-03-27T02:21:45.373Z</time>
      </trkpt>
      <trkpt lat="43.94503" lon="5.21395">
        <ele>522</ele>
        <time>2021-03-27T02:21:54.144Z</time>
      </trkpt>
      <trkpt lat="43.94603" lon="5.21472">
        <ele>517</ele>
        <time>2021-03-27T02:22:10.892Z</time>
      </trkpt>
      <trkpt lat="43.94618" lon="5.21487">
        <ele>516</ele>
        <time>2021-03-27T02:22:13.364Z</time>
      </trkpt>
      <trkpt lat="43.94637" lon="5.21516">
        <ele>514</ele>
        <time>2021-03-27T02:22:17.093Z</time>
      </trkpt>
      <trkpt lat="43.94644" lon="5.21536">
        <ele>513</ele>
        <time>2021-03-27T02:22:19.094Z</time>
      </trkpt>
      <trkpt lat="43.9465" lon="5.21563">
        <ele>512</ele>
        <time>2021-03-27T02:22:21.933Z</time>
      </trkpt>
      <trkpt lat="43.94654" lon="5.21681">
        <ele>507</ele>
        <time>2021-03-27T02:22:32.879Z</time>
      </trkpt>
      <trkpt lat="43.94661" lon="5.2171">
        <ele>506</ele>
        <time>2021-03-27T02:22:36.055Z</time>
      </trkpt>
      <trkpt lat="43.94673" lon="5.21734">
        <ele>507</ele>
        <time>2021-03-27T02:22:49.673Z</time>
      </trkpt>
      <trkpt lat="43.94677" lon="5.2174">
        <ele>507</ele>
        <time>2021-03-27T02:22:51.888Z</time>
      </trkpt>
      <trkpt lat="43.9468" lon="5.21744">
        <ele>506</ele>
        <time>2021-03-27T02:22:52.437Z</time>
      </trkpt>
      <trkpt lat="43.94704" lon="5.21765">
        <ele>506</ele>
        <time>2021-03-27T02:23:03.107Z</time>
      </trkpt>
      <trkpt lat="43.94715" lon="5.21772">
        <ele>506</ele>
        <time>2021-03-27T02:23:07.659Z</time>
      </trkpt>
      <trkpt lat="43.94775" lon="5.21787">
        <ele>505</ele>
        <time>2021-03-27T02:23:19.576Z</time>
      </trkpt>
      <trkpt lat="43.94791" lon="5.21792">
        <ele>505</ele>
        <time>2021-03-27T02:23:25.745Z</time>
      </trkpt>
      <trkpt lat="43.94811" lon="5.21804">
        <ele>504</ele>
        <time>2021-03-27T02:23:28.874Z</time>
      </trkpt>
      <trkpt lat="43.94859" lon="5.21836">
        <ele>500</ele>
        <time>2021-03-27T02:23:35.907Z</time>
      </trkpt>
      <trkpt lat="43.94878" lon="5.2185">
        <ele>498</ele>
        <time>2021-03-27T02:23:38.748Z</time>
      </trkpt>
      <trkpt lat="43.94896" lon="5.2186">
        <ele>497</ele>
        <time>2021-03-27T02:23:41.397Z</time>
      </trkpt>
      <trkpt lat="43.94909" lon="5.21865">
        <ele>496</ele>
        <time>2021-03-27T02:23:43.179Z</time>
      </trkpt>
      <trkpt lat="43.94925" lon="5.21868">
        <ele>495</ele>
        <time>2021-03-27T02:23:45.205Z</time>
      </trkpt>
      <trkpt lat="43.9509" lon="5.21865">
        <ele>488</ele>
        <time>2021-03-27T02:24:09.669Z</time>
      </trkpt>
      <trkpt lat="43.95179" lon="5.21861">
        <ele>487</ele>
        <time>2021-03-27T02:24:28.253Z</time>
      </trkpt>
      <trkpt lat="43.95195" lon="5.21863">
        <ele>486</ele>
        <time>2021-03-27T02:24:30.265Z</time>
      </trkpt>
      <trkpt lat="43.95207" lon="5.21869">
        <ele>485</ele>
        <time>2021-03-27T02:24:31.949Z</time>
      </trkpt>
      <trkpt lat="43.95297" lon="5.21947">
        <ele>480</ele>
        <time>2021-03-27T02:24:47.017Z</time>
      </trkpt>
      <trkpt lat="43.95305" lon="5.21961">
        <ele>479</ele>
        <time>2021-03-27T02:24:48.717Z</time>
      </trkpt>
      <trkpt lat="43.95307" lon="5.21966">
        <ele>478</ele>
        <time>2021-03-27T02:24:49.261Z</time>
      </trkpt>
      <trkpt lat="43.95312" lon="5.21978">
        <ele>478</ele>
        <time>2021-03-27T02:24:53.015Z</time>
      </trkpt>
      <trkpt lat="43.95314" lon="5.21993">
        <ele>477</ele>
        <time>2021-03-27T02:24:54.466Z</time>
      </trkpt>
      <trkpt lat="43.95314" lon="5.22002">
        <ele>476</ele>
        <time>2021-03-27T02:24:55.322Z</time>
      </trkpt>
      <trkpt lat="43.95313" lon="5.22011">
        <ele>477</ele>
        <time>2021-03-27T02:25:04.834Z</time>
      </trkpt>
      <trkpt lat="43.9531" lon="5.22026">
        <ele>477</ele>
        <time>2021-03-27T02:25:09.050Z</time>
      </trkpt>
      <trkpt lat="43.95305" lon="5.22038">
        <ele>477</ele>
        <time>2021-03-27T02:25:12.805Z</time>
      </trkpt>
      <trkpt lat="43.95298" lon="5.2205">
        <ele>477</ele>
        <time>2021-03-27T02:25:16.987Z</time>
      </trkpt>
      <trkpt lat="43.95283" lon="5.22065">
        <ele>476</ele>
        <time>2021-03-27T02:25:19.459Z</time>
      </trkpt>
      <trkpt lat="43.95215" lon="5.22094">
        <ele>470</ele>
        <time>2021-03-27T02:25:28.855Z</time>
      </trkpt>
      <trkpt lat="43.95195" lon="5.22105">
        <ele>468</ele>
        <time>2021-03-27T02:25:31.697Z</time>
      </trkpt>
      <trkpt lat="43.95182" lon="5.22116">
        <ele>468</ele>
        <time>2021-03-27T02:25:37.423Z</time>
      </trkpt>
      <trkpt lat="43.95171" lon="5.2213">
        <ele>467</ele>
        <time>2021-03-27T02:25:39.394Z</time>
      </trkpt>
      <trkpt lat="43.95042" lon="5.22338">
        <ele>459</ele>
        <time>2021-03-27T02:26:09.235Z</time>
      </trkpt>
      <trkpt lat="43.95031" lon="5.22365">
        <ele>458</ele>
        <time>2021-03-27T02:26:12.475Z</time>
      </trkpt>
      <trkpt lat="43.95027" lon="5.22387">
        <ele>459</ele>
        <time>2021-03-27T02:26:24.072Z</time>
      </trkpt>
      <trkpt lat="43.95027" lon="5.22408">
        <ele>459</ele>
        <time>2021-03-27T02:26:29.760Z</time>
      </trkpt>
      <trkpt lat="43.95029" lon="5.22429">
        <ele>459</ele>
        <time>2021-03-27T02:26:35.496Z</time>
      </trkpt>
      <trkpt lat="43.95039" lon="5.22491">
        <ele>459</ele>
        <time>2021-03-27T02:26:52.703Z</time>
      </trkpt>
      <trkpt lat="43.95044" lon="5.22504">
        <ele>459</ele>
        <time>2021-03-27T02:26:56.695Z</time>
      </trkpt>
      <trkpt lat="43.95051" lon="5.22515">
        <ele>458</ele>
        <time>2021-03-27T02:26:58.091Z</time>
      </trkpt>
      <trkpt lat="43.95063" lon="5.22526">
        <ele>458</ele>
        <time>2021-03-27T02:27:03.500Z</time>
      </trkpt>
      <trkpt lat="43.95108" lon="5.22553">
        <ele>455</ele>
        <time>2021-03-27T02:27:09.688Z</time>
      </trkpt>
      <trkpt lat="43.95121" lon="5.2256">
        <ele>453</ele>
        <time>2021-03-27T02:27:11.529Z</time>
      </trkpt>
      <trkpt lat="43.95131" lon="5.22564">
        <ele>453</ele>
        <time>2021-03-27T02:27:15.444Z</time>
      </trkpt>
      <trkpt lat="43.95141" lon="5.22564">
        <ele>452</ele>
        <time>2021-03-27T02:27:16.765Z</time>
      </trkpt>
      <trkpt lat="43.95152" lon="5.22561">
        <ele>452</ele>
        <time>2021-03-27T02:27:20.982Z</time>
      </trkpt>
      <trkpt lat="43.95161" lon="5.22555">
        <ele>452</ele>
        <time>2021-03-27T02:27:24.737Z</time>
      </trkpt>
      <trkpt lat="43.95169" lon="5.22546">
        <ele>452</ele>
        <time>2021-03-27T02:27:28.610Z</time>
      </trkpt>
      <trkpt lat="43.95219" lon="5.22483">
        <ele>452</ele>
        <time>2021-03-27T02:27:54.003Z</time>
      </trkpt>
      <trkpt lat="43.95228" lon="5.22476">
        <ele>452</ele>
        <time>2021-03-27T02:27:57.883Z</time>
      </trkpt>
      <trkpt lat="43.95238" lon="5.22473">
        <ele>451</ele>
        <time>2021-03-27T02:27:59.235Z</time>
      </trkpt>
      <trkpt lat="43.95248" lon="5.22475">
        <ele>450</ele>
        <time>2021-03-27T02:28:00.569Z</time>
      </trkpt>
      <trkpt lat="43.95258" lon="5.2248">
        <ele>449</ele>
        <time>2021-03-27T02:28:01.973Z</time>
      </trkpt>
      <trkpt lat="43.95267" lon="5.22489">
        <ele>448</ele>
        <time>2021-03-27T02:28:03.438Z</time>
      </trkpt>
      <trkpt lat="43.95273" lon="5.225">
        <ele>447</ele>
        <time>2021-03-27T02:28:04.750Z</time>
      </trkpt>
      <trkpt lat="43.95277" lon="5.22513">
        <ele>448</ele>
        <time>2021-03-27T02:28:14.540Z</time>
      </trkpt>
      <trkpt lat="43.95279" lon="5.22531">
        <ele>449</ele>
        <time>2021-03-27T02:28:24.957Z</time>
      </trkpt>
      <trkpt lat="43.95278" lon="5.22548">
        <ele>450</ele>
        <time>2021-03-27T02:28:35.129Z</time>
      </trkpt>
      <trkpt lat="43.95274" lon="5.22562">
        <ele>450</ele>
        <time>2021-03-27T02:28:39.208Z</time>
      </trkpt>
      <trkpt lat="43.95225" lon="5.22654">
        <ele>448</ele>
        <time>2021-03-27T02:28:53.898Z</time>
      </trkpt>
      <trkpt lat="43.95218" lon="5.22673">
        <ele>447</ele>
        <time>2021-03-27T02:28:55.780Z</time>
      </trkpt>
      <trkpt lat="43.95213" lon="5.22691">
        <ele>446</ele>
        <time>2021-03-27T02:28:57.614Z</time>
      </trkpt>
      <trkpt lat="43.95214" lon="5.22732">
        <ele>445</ele>
        <time>2021-03-27T02:29:02.371Z</time>
      </trkpt>
      <trkpt lat="43.95218" lon="5.22754">
        <ele>444</ele>
        <time>2021-03-27T02:29:04.433Z</time>
      </trkpt>
      <trkpt lat="43.95225" lon="5.2277">
        <ele>444</ele>
        <time>2021-03-27T02:29:09.503Z</time>
      </trkpt>
      <trkpt lat="43.95235" lon="5.22782">
        <ele>444</ele>
        <time>2021-03-27T02:29:14.474Z</time>
      </trkpt>
      <trkpt lat="43.95247" lon="5.2279">
        <ele>444</ele>
        <time>2021-03-27T02:29:19.481Z</time>
      </trkpt>
      <trkpt lat="43.95259" lon="5.22792">
        <ele>445</ele>
        <time>2021-03-27T02:29:29.602Z</time>
      </trkpt>
      <trkpt lat="43.9539" lon="5.22797">
        <ele>444</ele>
        <time>2021-03-27T02:29:58.303Z</time>
      </trkpt>
      <trkpt lat="43.95412" lon="5.22801">
        <ele>443</ele>
        <time>2021-03-27T02:30:01.513Z</time>
      </trkpt>
      <trkpt lat="43.95423" lon="5.22807">
        <ele>443</ele>
        <time>2021-03-27T02:30:05.959Z</time>
      </trkpt>
      <trkpt lat="43.9543" lon="5.22817">
        <ele>442</ele>
        <time>2021-03-27T02:30:07.285Z</time>
      </trkpt>
      <trkpt lat="43.9544" lon="5.22849">
        <ele>441</ele>
        <time>2021-03-27T02:30:11.101Z</time>
      </trkpt>
      <trkpt lat="43.95441" lon="5.22863">
        <ele>441</ele>
        <time>2021-03-27T02:30:14.910Z</time>
      </trkpt>
      <trkpt lat="43.9544" lon="5.22871">
        <ele>441</ele>
        <time>2021-03-27T02:30:17.109Z</time>
      </trkpt>
      <trkpt lat="43.95439" lon="5.22926">
        <ele>440</ele>
        <time>2021-03-27T02:30:24.095Z</time>
      </trkpt>
      <trkpt lat="43.95436" lon="5.22942">
        <ele>441</ele>
        <time>2021-03-27T02:30:34.169Z</time>
      </trkpt>
      <trkpt lat="43.95432" lon="5.22955">
        <ele>442</ele>
        <time>2021-03-27T02:30:43.959Z</time>
      </trkpt>
      <trkpt lat="43.95426" lon="5.22967">
        <ele>442</ele>
        <time>2021-03-27T02:30:47.915Z</time>
      </trkpt>
      <trkpt lat="43.95416" lon="5.22978">
        <ele>443</ele>
        <time>2021-03-27T02:30:58.223Z</time>
      </trkpt>
      <trkpt lat="43.95406" lon="5.22985">
        <ele>443</ele>
        <time>2021-03-27T02:31:02.436Z</time>
      </trkpt>
      <trkpt lat="43.95397" lon="5.2299">
        <ele>443</ele>
        <time>2021-03-27T02:31:06.082Z</time>
      </trkpt>
      <trkpt lat="43.95235" lon="5.23032">
        <ele>444</ele>
        <time>2021-03-27T02:32:11.722Z</time>
      </trkpt>
      <trkpt lat="43.95222" lon="5.23044">
        <ele>444</ele>
        <time>2021-03-27T02:32:17.594Z</time>
      </trkpt>
      <trkpt lat="43.95219" lon="5.23055">
        <ele>445</ele>
        <time>2021-03-27T02:32:27.650Z</time>
      </trkpt>
      <trkpt lat="43.95218" lon="5.23067">
        <ele>446</ele>
        <time>2021-03-27T02:32:37.612Z</time>
      </trkpt>
      <trkpt lat="43.95221" lon="5.23079">
        <ele>448</ele>
        <time>2021-03-27T02:32:50.881Z</time>
      </trkpt>
      <trkpt lat="43.95225" lon="5.2309">
        <ele>448</ele>
        <time>2021-03-27T02:32:54.219Z</time>
      </trkpt>
      <trkpt lat="43.95232" lon="5.23099">
        <ele>449</ele>
        <time>2021-03-27T02:33:04.011Z</time>
      </trkpt>
      <trkpt lat="43.95241" lon="5.23104">
        <ele>449</ele>
        <time>2021-03-27T02:33:07.657Z</time>
      </trkpt>
      <trkpt lat="43.95316" lon="5.23112">
        <ele>454</ele>
        <time>2021-03-27T02:34:03.120Z</time>
      </trkpt>
      <trkpt lat="43.95328" lon="5.23115">
        <ele>455</ele>
        <time>2021-03-27T02:34:13.268Z</time>
      </trkpt>
      <trkpt lat="43.95339" lon="5.23122">
        <ele>456</ele>
        <time>2021-03-27T02:34:23.392Z</time>
      </trkpt>
      <trkpt lat="43.95462" lon="5.23242">
        <ele>466</ele>
        <time>2021-03-27T02:36:14.266Z</time>
      </trkpt>
      <trkpt lat="43.95477" lon="5.23252">
        <ele>468</ele>
        <time>2021-03-27T02:36:34.532Z</time>
      </trkpt>
      <trkpt lat="43.9552" lon="5.23272">
        <ele>472</ele>
        <time>2021-03-27T02:37:14.320Z</time>
      </trkpt>
      <trkpt lat="43.95525" lon="5.23277">
        <ele>472</ele>
        <time>2021-03-27T02:37:16.637Z</time>
      </trkpt>
      <trkpt lat="43.95528" lon="5.23284">
        <ele>472</ele>
        <time>2021-03-27T02:37:18.843Z</time>
      </trkpt>
      <trkpt lat="43.95531" lon="5.23295">
        <ele>471</ele>
        <time>2021-03-27T02:37:19.962Z</time>
      </trkpt>
      <trkpt lat="43.95529" lon="5.23315">
        <ele>469</ele>
        <time>2021-03-27T02:37:21.882Z</time>
      </trkpt>
      <trkpt lat="43.95527" lon="5.23327">
        <ele>468</ele>
        <time>2021-03-27T02:37:23.053Z</time>
      </trkpt>
      <trkpt lat="43.95515" lon="5.23389">
        <ele>471</ele>
        <time>2021-03-27T02:37:56.745Z</time>
      </trkpt>
      <trkpt lat="43.95511" lon="5.23405">
        <ele>472</ele>
        <time>2021-03-27T02:38:06.893Z</time>
      </trkpt>
      <trkpt lat="43.95501" lon="5.23421">
        <ele>474</ele>
        <time>2021-03-27T02:38:28.308Z</time>
      </trkpt>
      <trkpt lat="43.95483" lon="5.23432">
        <ele>474</ele>
        <time>2021-03-27T02:38:35.706Z</time>
      </trkpt>
      <trkpt lat="43.95434" lon="5.23437">
        <ele>471</ele>
        <time>2021-03-27T02:38:41.915Z</time>
      </trkpt>
      <trkpt lat="43.95425" lon="5.23441">
        <ele>470</ele>
        <time>2021-03-27T02:38:43.163Z</time>
      </trkpt>
      <trkpt lat="43.95417" lon="5.23449">
        <ele>471</ele>
        <time>2021-03-27T02:38:52.944Z</time>
      </trkpt>
      <trkpt lat="43.95412" lon="5.23458">
        <ele>471</ele>
        <time>2021-03-27T02:38:56.022Z</time>
      </trkpt>
      <trkpt lat="43.95408" lon="5.2347">
        <ele>472</ele>
        <time>2021-03-27T02:39:05.816Z</time>
      </trkpt>
      <trkpt lat="43.95397" lon="5.23558">
        <ele>480</ele>
        <time>2021-03-27T02:40:28.355Z</time>
      </trkpt>
      <trkpt lat="43.95392" lon="5.23581">
        <ele>481</ele>
        <time>2021-03-27T02:40:40.346Z</time>
      </trkpt>
      <trkpt lat="43.95387" lon="5.23594">
        <ele>482</ele>
        <time>2021-03-27T02:40:50.175Z</time>
      </trkpt>
      <trkpt lat="43.95381" lon="5.23605">
        <ele>483</ele>
        <time>2021-03-27T02:40:59.956Z</time>
      </trkpt>
      <trkpt lat="43.9536" lon="5.23628">
        <ele>485</ele>
        <time>2021-03-27T02:41:20.956Z</time>
      </trkpt>
      <trkpt lat="43.95313" lon="5.23671">
        <ele>488</ele>
        <time>2021-03-27T02:41:58.793Z</time>
      </trkpt>
      <trkpt lat="43.95297" lon="5.23687">
        <ele>487</ele>
        <time>2021-03-27T02:42:01.507Z</time>
      </trkpt>
      <trkpt lat="43.95285" lon="5.23707">
        <ele>487</ele>
        <time>2021-03-27T02:42:08.558Z</time>
      </trkpt>
      <trkpt lat="43.95277" lon="5.23729">
        <ele>487</ele>
        <time>2021-03-27T02:42:15.232Z</time>
      </trkpt>
      <trkpt lat="43.95277" lon="5.23768">
        <ele>489</ele>
        <time>2021-03-27T02:42:36.684Z</time>
      </trkpt>
      <trkpt lat="43.95281" lon="5.23801">
        <ele>491</ele>
        <time>2021-03-27T02:42:56.905Z</time>
      </trkpt>
      <trkpt lat="43.95283" lon="5.23818">
        <ele>492</ele>
        <time>2021-03-27T02:43:07.110Z</time>
      </trkpt>
      <trkpt lat="43.95285" lon="5.23846">
        <ele>493</ele>
        <time>2021-03-27T02:43:20.379Z</time>
      </trkpt>
      <trkpt lat="43.95286" lon="5.23857">
        <ele>494</ele>
        <time>2021-03-27T02:43:30.740Z</time>
      </trkpt>
      <trkpt lat="43.95291" lon="5.23903">
        <ele>496</ele>
        <time>2021-03-27T02:43:54.267Z</time>
      </trkpt>
      <trkpt lat="43.95291" lon="5.23921">
        <ele>497</ele>
        <time>2021-03-27T02:44:04.636Z</time>
      </trkpt>
      <trkpt lat="43.95288" lon="5.23952">
        <ele>498</ele>
        <time>2021-03-27T02:44:18.915Z</time>
      </trkpt>
      <trkpt lat="43.95271" lon="5.24035">
        <ele>500</ele>
        <time>2021-03-27T02:44:52.057Z</time>
      </trkpt>
      <trkpt lat="43.95268" lon="5.24052">
        <ele>501</ele>
        <time>2021-03-27T02:45:02.320Z</time>
      </trkpt>
      <trkpt lat="43.95269" lon="5.2406">
        <ele>502</ele>
        <time>2021-03-27T02:45:10.801Z</time>
      </trkpt>
      <trkpt lat="43.9528" lon="5.24048">
        <ele>502</ele>
        <time>2021-03-27T02:45:16.063Z</time>
      </trkpt>
      <trkpt lat="43.953" lon="5.24026">
        <ele>504</ele>
        <time>2021-03-27T02:45:36.679Z</time>
      </trkpt>
      <trkpt lat="43.95305" lon="5.24016">
        <ele>504</ele>
        <time>2021-03-27T02:45:39.976Z</time>
      </trkpt>
      <trkpt lat="43.95305" lon="5.24014">
        <ele>503</ele>
        <time>2021-03-27T02:45:40.166Z</time>
      </trkpt>
      <trkpt lat="43.95307" lon="5.23994">
        <ele>503</ele>
        <time>2021-03-27T02:45:45.634Z</time>
      </trkpt>
      <trkpt lat="43.95304" lon="5.23966">
        <ele>501</ele>
        <time>2021-03-27T02:45:48.326Z</time>
      </trkpt>
      <trkpt lat="43.95306" lon="5.23938">
        <ele>500</ele>
        <time>2021-03-27T02:45:51.147Z</time>
      </trkpt>
      <trkpt lat="43.95309" lon="5.23924">
        <ele>500</ele>
        <time>2021-03-27T02:45:55.103Z</time>
      </trkpt>
      <trkpt lat="43.95316" lon="5.23912">
        <ele>501</ele>
        <time>2021-03-27T02:46:05.008Z</time>
      </trkpt>
      <trkpt lat="43.95428" lon="5.23778">
        <ele>506</ele>
        <time>2021-03-27T02:47:25.575Z</time>
      </trkpt>
      <trkpt lat="43.95486" lon="5.23693">
        <ele>504</ele>
        <time>2021-03-27T02:47:40.701Z</time>
      </trkpt>
      <trkpt lat="43.95507" lon="5.23667">
        <ele>504</ele>
        <time>2021-03-27T02:47:51.283Z</time>
      </trkpt>
      <trkpt lat="43.95532" lon="5.23649">
        <ele>504</ele>
        <time>2021-03-27T02:48:01.875Z</time>
      </trkpt>
      <trkpt lat="43.9558" lon="5.23629">
        <ele>506</ele>
        <time>2021-03-27T02:48:31.588Z</time>
      </trkpt>
      <trkpt lat="43.956" lon="5.23622">
        <ele>505</ele>
        <time>2021-03-27T02:48:34.483Z</time>
      </trkpt>
      <trkpt lat="43.95613" lon="5.23619">
        <ele>505</ele>
        <time>2021-03-27T02:48:39.440Z</time>
      </trkpt>
      <trkpt lat="43.95644" lon="5.23618">
        <ele>506</ele>
        <time>2021-03-27T02:48:55.994Z</time>
      </trkpt>
      <trkpt lat="43.95699" lon="5.23624">
        <ele>506</ele>
        <time>2021-03-27T02:49:16.747Z</time>
      </trkpt>
      <trkpt lat="43.95731" lon="5.2363">
        <ele>507</ele>
        <time>2021-03-27T02:49:33.704Z</time>
      </trkpt>
      <trkpt lat="43.95761" lon="5.23642">
        <ele>508</ele>
        <time>2021-03-27T02:49:50.324Z</time>
      </trkpt>
      <trkpt lat="43.95832" lon="5.23675">
        <ele>509</ele>
        <time>2021-03-27T02:50:22.413Z</time>
      </trkpt>
      <trkpt lat="43.95858" lon="5.23692">
        <ele>510</ele>
        <time>2021-03-27T02:50:38.281Z</time>
      </trkpt>
      <trkpt lat="43.95986" lon="5.23825">
        <ele>514</ele>
        <time>2021-03-27T02:51:56.290Z</time>
      </trkpt>
      <trkpt lat="43.96002" lon="5.23847">
        <ele>513</ele>
        <time>2021-03-27T02:51:59.566Z</time>
      </trkpt>
      <trkpt lat="43.96054" lon="5.23944">
        <ele>515</ele>
        <time>2021-03-27T02:52:41.043Z</time>
      </trkpt>
      <trkpt lat="43.96163" lon="5.24156">
        <ele>512</ele>
        <time>2021-03-27T02:53:17.885Z</time>
      </trkpt>
      <trkpt lat="43.96177" lon="5.24177">
        <ele>512</ele>
        <time>2021-03-27T02:53:25.636Z</time>
      </trkpt>
      <trkpt lat="43.96183" lon="5.24183">
        <ele>512</ele>
        <time>2021-03-27T02:53:28.417Z</time>
      </trkpt>
      <trkpt lat="43.96194" lon="5.24188">
        <ele>513</ele>
        <time>2021-03-27T02:53:38.414Z</time>
      </trkpt>
      <trkpt lat="43.96208" lon="5.24187">
        <ele>512</ele>
        <time>2021-03-27T02:53:40.265Z</time>
      </trkpt>
      <trkpt lat="43.96278" lon="5.24169">
        <ele>510</ele>
        <time>2021-03-27T02:53:52.439Z</time>
      </trkpt>
      <trkpt lat="43.96298" lon="5.24166">
        <ele>509</ele>
        <time>2021-03-27T02:53:55.232Z</time>
      </trkpt>
      <trkpt lat="43.96317" lon="5.24165">
        <ele>510</ele>
        <time>2021-03-27T02:54:07.955Z</time>
      </trkpt>
      <trkpt lat="43.96344" lon="5.24168">
        <ele>510</ele>
        <time>2021-03-27T02:54:18.144Z</time>
      </trkpt>
      <trkpt lat="43.96387" lon="5.24179">
        <ele>511</ele>
        <time>2021-03-27T02:54:38.950Z</time>
      </trkpt>
      <trkpt lat="43.96414" lon="5.24189">
        <ele>511</ele>
        <time>2021-03-27T02:54:49.461Z</time>
      </trkpt>
      <trkpt lat="43.9644" lon="5.24205">
        <ele>511</ele>
        <time>2021-03-27T02:55:00.158Z</time>
      </trkpt>
      <trkpt lat="43.96455" lon="5.2422">
        <ele>511</ele>
        <time>2021-03-27T02:55:07.110Z</time>
      </trkpt>
      <trkpt lat="43.9647" lon="5.24238">
        <ele>510</ele>
        <time>2021-03-27T02:55:09.845Z</time>
      </trkpt>
      <trkpt lat="43.96477" lon="5.24254">
        <ele>510</ele>
        <time>2021-03-27T02:55:14.914Z</time>
      </trkpt>
      <trkpt lat="43.96489" lon="5.24293">
        <ele>511</ele>
        <time>2021-03-27T02:55:31.321Z</time>
      </trkpt>
      <trkpt lat="43.96498" lon="5.2431">
        <ele>510</ele>
        <time>2021-03-27T02:55:33.170Z</time>
      </trkpt>
      <trkpt lat="43.96507" lon="5.24322">
        <ele>510</ele>
        <time>2021-03-27T02:55:37.863Z</time>
      </trkpt>
      <trkpt lat="43.9653" lon="5.24341">
        <ele>511</ele>
        <time>2021-03-27T02:55:53.167Z</time>
      </trkpt>
      <trkpt lat="43.9655" lon="5.24345">
        <ele>512</ele>
        <time>2021-03-27T02:56:06.414Z</time>
      </trkpt>
      <trkpt lat="43.96558" lon="5.24344">
        <ele>512</ele>
        <time>2021-03-27T02:56:09.435Z</time>
      </trkpt>
      <trkpt lat="43.96565" lon="5.2434">
        <ele>511</ele>
        <time>2021-03-27T02:56:10.435Z</time>
      </trkpt>
      <trkpt lat="43.96571" lon="5.24333">
        <ele>511</ele>
        <time>2021-03-27T02:56:13.382Z</time>
      </trkpt>
      <trkpt lat="43.96575" lon="5.24324">
        <ele>510</ele>
        <time>2021-03-27T02:56:14.388Z</time>
      </trkpt>
      <trkpt lat="43.96584" lon="5.24291">
        <ele>507</ele>
        <time>2021-03-27T02:56:17.743Z</time>
      </trkpt>
      <trkpt lat="43.96589" lon="5.24278">
        <ele>506</ele>
        <time>2021-03-27T02:56:19.144Z</time>
      </trkpt>
      <trkpt lat="43.96602" lon="5.24265">
        <ele>506</ele>
        <time>2021-03-27T02:56:25.169Z</time>
      </trkpt>
      <trkpt lat="43.96611" lon="5.24261">
        <ele>505</ele>
        <time>2021-03-27T02:56:26.418Z</time>
      </trkpt>
      <trkpt lat="43.9662" lon="5.2426">
        <ele>505</ele>
        <time>2021-03-27T02:56:29.814Z</time>
      </trkpt>
      <trkpt lat="43.96633" lon="5.24261">
        <ele>506</ele>
        <time>2021-03-27T02:56:40.202Z</time>
      </trkpt>
      <trkpt lat="43.96692" lon="5.24279">
        <ele>509</ele>
        <time>2021-03-27T02:57:19.847Z</time>
      </trkpt>
      <trkpt lat="43.96719" lon="5.24291">
        <ele>511</ele>
        <time>2021-03-27T02:57:41.395Z</time>
      </trkpt>
      <trkpt lat="43.96727" lon="5.24289">
        <ele>511</ele>
        <time>2021-03-27T02:57:44.452Z</time>
      </trkpt>
      <trkpt lat="43.96736" lon="5.24284">
        <ele>511</ele>
        <time>2021-03-27T02:57:48.098Z</time>
      </trkpt>
      <trkpt lat="43.96754" lon="5.24254">
        <ele>509</ele>
        <time>2021-03-27T02:57:51.812Z</time>
      </trkpt>
      <trkpt lat="43.96764" lon="5.24241">
        <ele>509</ele>
        <time>2021-03-27T02:57:56.963Z</time>
      </trkpt>
      <trkpt lat="43.96771" lon="5.24226">
        <ele>510</ele>
        <time>2021-03-27T02:58:07.305Z</time>
      </trkpt>
      <trkpt lat="43.96773" lon="5.24216">
        <ele>510</ele>
        <time>2021-03-27T02:58:10.115Z</time>
      </trkpt>
      <trkpt lat="43.9677" lon="5.24183">
        <ele>509</ele>
        <time>2021-03-27T02:58:13.685Z</time>
      </trkpt>
      <trkpt lat="43.96773" lon="5.24174">
        <ele>509</ele>
        <time>2021-03-27T02:58:16.371Z</time>
      </trkpt>
      <trkpt lat="43.96776" lon="5.24169">
        <ele>509</ele>
        <time>2021-03-27T02:58:18.133Z</time>
      </trkpt>
      <trkpt lat="43.96783" lon="5.24165">
        <ele>509</ele>
        <time>2021-03-27T02:58:20.980Z</time>
      </trkpt>
      <trkpt lat="43.96828" lon="5.24151">
        <ele>512</ele>
        <time>2021-03-27T02:58:54.632Z</time>
      </trkpt>
      <trkpt lat="43.96846" lon="5.24144">
        <ele>513</ele>
        <time>2021-03-27T02:59:07.215Z</time>
      </trkpt>
      <trkpt lat="43.96857" lon="5.24137">
        <ele>514</ele>
        <time>2021-03-27T02:59:17.339Z</time>
      </trkpt>
      <trkpt lat="43.96876" lon="5.24131">
        <ele>514</ele>
        <time>2021-03-27T02:59:24.668Z</time>
      </trkpt>
      <trkpt lat="43.96886" lon="5.24127">
        <ele>514</ele>
        <time>2021-03-27T02:59:28.583Z</time>
      </trkpt>
      <trkpt lat="43.96899" lon="5.24114">
        <ele>515</ele>
        <time>2021-03-27T02:59:40.052Z</time>
      </trkpt>
      <trkpt lat="43.96909" lon="5.24098">
        <ele>517</ele>
        <time>2021-03-27T03:00:01.470Z</time>
      </trkpt>
      <trkpt lat="43.9694" lon="5.24059">
        <ele>521</ele>
        <time>2021-03-27T03:00:40.715Z</time>
      </trkpt>
      <trkpt lat="43.97002" lon="5.2402">
        <ele>526</ele>
        <time>2021-03-27T03:01:33.614Z</time>
      </trkpt>
      <trkpt lat="43.97068" lon="5.23974">
        <ele>532</ele>
        <time>2021-03-27T03:02:34.690Z</time>
      </trkpt>
      <trkpt lat="43.97096" lon="5.23956">
        <ele>534</ele>
        <time>2021-03-27T03:02:57.166Z</time>
      </trkpt>
      <trkpt lat="43.97112" lon="5.23948">
        <ele>534</ele>
        <time>2021-03-27T03:03:03.563Z</time>
      </trkpt>
      <trkpt lat="43.97235" lon="5.23905">
        <ele>539</ele>
        <time>2021-03-27T03:04:18.238Z</time>
      </trkpt>
      <trkpt lat="43.97244" lon="5.23902">
        <ele>539</ele>
        <time>2021-03-27T03:04:21.720Z</time>
      </trkpt>
      <trkpt lat="43.97272" lon="5.23903">
        <ele>540</ele>
        <time>2021-03-27T03:04:37.376Z</time>
      </trkpt>
      <trkpt lat="43.97323" lon="5.23914">
        <ele>542</ele>
        <time>2021-03-27T03:05:07.474Z</time>
      </trkpt>
      <trkpt lat="43.97333" lon="5.23915">
        <ele>542</ele>
        <time>2021-03-27T03:05:11.245Z</time>
      </trkpt>
      <trkpt lat="43.97341" lon="5.23914">
        <ele>543</ele>
        <time>2021-03-27T03:05:21.567Z</time>
      </trkpt>
      <trkpt lat="43.97347" lon="5.23909">
        <ele>545</ele>
        <time>2021-03-27T03:05:31.718Z</time>
      </trkpt>
      <trkpt lat="43.97351" lon="5.23902">
        <ele>546</ele>
        <time>2021-03-27T03:05:41.051Z</time>
      </trkpt>
      <trkpt lat="43.97354" lon="5.23894">
        <ele>547</ele>
        <time>2021-03-27T03:05:50.471Z</time>
      </trkpt>
      <trkpt lat="43.97355" lon="5.23883">
        <ele>548</ele>
        <time>2021-03-27T03:06:00.834Z</time>
      </trkpt>
      <trkpt lat="43.97354" lon="5.23874">
        <ele>548</ele>
        <time>2021-03-27T03:06:03.299Z</time>
      </trkpt>
      <trkpt lat="43.9735" lon="5.23858">
        <ele>549</ele>
        <time>2021-03-27T03:06:13.447Z</time>
      </trkpt>
      <trkpt lat="43.97342" lon="5.23843">
        <ele>549</ele>
        <time>2021-03-27T03:06:18.501Z</time>
      </trkpt>
      <trkpt lat="43.97335" lon="5.23834">
        <ele>548</ele>
        <time>2021-03-27T03:06:19.761Z</time>
      </trkpt>
      <trkpt lat="43.97326" lon="5.23826">
        <ele>549</ele>
        <time>2021-03-27T03:06:29.598Z</time>
      </trkpt>
      <trkpt lat="43.97233" lon="5.23771">
        <ele>554</ele>
        <time>2021-03-27T03:07:35.849Z</time>
      </trkpt>
      <trkpt lat="43.9722" lon="5.23761">
        <ele>555</ele>
        <time>2021-03-27T03:07:46.872Z</time>
      </trkpt>
      <trkpt lat="43.9721" lon="5.23751">
        <ele>556</ele>
        <time>2021-03-27T03:07:57.055Z</time>
      </trkpt>
      <trkpt lat="43.972" lon="5.23739">
        <ele>558</ele>
        <time>2021-03-27T03:08:16.226Z</time>
      </trkpt>
      <trkpt lat="43.97125" lon="5.23624">
        <ele>566</ele>
        <time>2021-03-27T03:09:41.820Z</time>
      </trkpt>
      <trkpt lat="43.97084" lon="5.23562">
        <ele>568</ele>
        <time>2021-03-27T03:10:14.492Z</time>
      </trkpt>
      <trkpt lat="43.97075" lon="5.23548">
        <ele>570</ele>
        <time>2021-03-27T03:10:34.094Z</time>
      </trkpt>
      <trkpt lat="43.97059" lon="5.23524">
        <ele>572</ele>
        <time>2021-03-27T03:10:54.180Z</time>
      </trkpt>
      <trkpt lat="43.96994" lon="5.23454">
        <ele>572</ele>
        <time>2021-03-27T03:11:25.115Z</time>
      </trkpt>
      <trkpt lat="43.96988" lon="5.23446">
        <ele>572</ele>
        <time>2021-03-27T03:11:28.243Z</time>
      </trkpt>
      <trkpt lat="43.96978" lon="5.23429">
        <ele>573</ele>
        <time>2021-03-27T03:11:39.628Z</time>
      </trkpt>
      <trkpt lat="43.96926" lon="5.23316">
        <ele>573</ele>
        <time>2021-03-27T03:12:15.939Z</time>
      </trkpt>
      <trkpt lat="43.96918" lon="5.23294">
        <ele>573</ele>
        <time>2021-03-27T03:12:22.613Z</time>
      </trkpt>
      <trkpt lat="43.96911" lon="5.23267">
        <ele>574</ele>
        <time>2021-03-27T03:12:36.059Z</time>
      </trkpt>
      <trkpt lat="43.96906" lon="5.23223">
        <ele>575</ele>
        <time>2021-03-27T03:12:52.942Z</time>
      </trkpt>
      <trkpt lat="43.96902" lon="5.23164">
        <ele>575</ele>
        <time>2021-03-27T03:13:08.986Z</time>
      </trkpt>
      <trkpt lat="43.96903" lon="5.23143">
        <ele>572</ele>
        <time>2021-03-27T03:13:10.987Z</time>
      </trkpt>
      <trkpt lat="43.9691" lon="5.23118">
        <ele>571</ele>
        <time>2021-03-27T03:13:13.620Z</time>
      </trkpt>
      <trkpt lat="43.96917" lon="5.23108">
        <ele>572</ele>
        <time>2021-03-27T03:13:23.404Z</time>
      </trkpt>
      <trkpt lat="43.96924" lon="5.23102">
        <ele>572</ele>
        <time>2021-03-27T03:13:26.498Z</time>
      </trkpt>
      <trkpt lat="43.96945" lon="5.23095">
        <ele>573</ele>
        <time>2021-03-27T03:13:40.367Z</time>
      </trkpt>
      <trkpt lat="43.97067" lon="5.23099">
        <ele>583</ele>
        <time>2021-03-27T03:15:21.882Z</time>
      </trkpt>
      <trkpt lat="43.97101" lon="5.23105">
        <ele>585</ele>
        <time>2021-03-27T03:15:45.731Z</time>
      </trkpt>
      <trkpt lat="43.97177" lon="5.23139">
        <ele>593</ele>
        <time>2021-03-27T03:17:03.986Z</time>
      </trkpt>
      <trkpt lat="43.97199" lon="5.23142">
        <ele>596</ele>
        <time>2021-03-27T03:17:36.060Z</time>
      </trkpt>
      <trkpt lat="43.97254" lon="5.23142">
        <ele>601</ele>
        <time>2021-03-27T03:18:25.484Z</time>
      </trkpt>
      <trkpt lat="43.97273" lon="5.23139">
        <ele>605</ele>
        <time>2021-03-27T03:18:53.229Z</time>
      </trkpt>
      <trkpt lat="43.97279" lon="5.23136">
        <ele>606</ele>
        <time>2021-03-27T03:19:02.481Z</time>
      </trkpt>
      <trkpt lat="43.97283" lon="5.23132">
        <ele>607</ele>
        <time>2021-03-27T03:19:09.632Z</time>
      </trkpt>
      <trkpt lat="43.97286" lon="5.23125">
        <ele>607</ele>
        <time>2021-03-27T03:19:11.837Z</time>
      </trkpt>
      <trkpt lat="43.97286" lon="5.23114">
        <ele>607</ele>
        <time>2021-03-27T03:19:14.815Z</time>
      </trkpt>
      <trkpt lat="43.97284" lon="5.231">
        <ele>605</ele>
        <time>2021-03-27T03:19:16.172Z</time>
      </trkpt>
      <trkpt lat="43.97274" lon="5.23078">
        <ele>601</ele>
        <time>2021-03-27T03:19:18.646Z</time>
      </trkpt>
      <trkpt lat="43.97251" lon="5.23041">
        <ele>596</ele>
        <time>2021-03-27T03:19:23.293Z</time>
      </trkpt>
      <trkpt lat="43.97245" lon="5.23029">
        <ele>596</ele>
        <time>2021-03-27T03:19:27.249Z</time>
      </trkpt>
      <trkpt lat="43.97238" lon="5.23011">
        <ele>595</ele>
        <time>2021-03-27T03:19:29.194Z</time>
      </trkpt>
      <trkpt lat="43.97233" lon="5.22987">
        <ele>594</ele>
        <time>2021-03-27T03:19:31.569Z</time>
      </trkpt>
      <trkpt lat="43.97231" lon="5.22966">
        <ele>594</ele>
        <time>2021-03-27T03:19:37.304Z</time>
      </trkpt>
      <trkpt lat="43.97231" lon="5.22942">
        <ele>594</ele>
        <time>2021-03-27T03:19:43.801Z</time>
      </trkpt>
      <trkpt lat="43.97245" lon="5.22876">
        <ele>596</ele>
        <time>2021-03-27T03:20:13.366Z</time>
      </trkpt>
      <trkpt lat="43.97256" lon="5.22835">
        <ele>592</ele>
        <time>2021-03-27T03:20:17.526Z</time>
      </trkpt>
      <trkpt lat="43.9726" lon="5.22827">
        <ele>592</ele>
        <time>2021-03-27T03:20:20.163Z</time>
      </trkpt>
      <trkpt lat="43.97267" lon="5.22821">
        <ele>592</ele>
        <time>2021-03-27T03:20:23.257Z</time>
      </trkpt>
      <trkpt lat="43.97279" lon="5.2282">
        <ele>594</ele>
        <time>2021-03-27T03:20:40.699Z</time>
      </trkpt>
      <trkpt lat="43.97412" lon="5.22845">
        <ele>610</ele>
        <time>2021-03-27T03:23:22.234Z</time>
      </trkpt>
      <trkpt lat="43.97507" lon="5.22885">
        <ele>620</ele>
        <time>2021-03-27T03:25:00.044Z</time>
      </trkpt>
      <trkpt lat="43.97516" lon="5.22885">
        <ele>620</ele>
        <time>2021-03-27T03:25:03.429Z</time>
      </trkpt>
      <trkpt lat="43.97522" lon="5.22881">
        <ele>621</ele>
        <time>2021-03-27T03:25:13.085Z</time>
      </trkpt>
      <trkpt lat="43.97526" lon="5.22874">
        <ele>621</ele>
        <time>2021-03-27T03:25:15.505Z</time>
      </trkpt>
      <trkpt lat="43.97527" lon="5.22867">
        <ele>621</ele>
        <time>2021-03-27T03:25:17.436Z</time>
      </trkpt>
      <trkpt lat="43.97527" lon="5.22861">
        <ele>620</ele>
        <time>2021-03-27T03:25:18.007Z</time>
      </trkpt>
      <trkpt lat="43.97527" lon="5.22854">
        <ele>620</ele>
        <time>2021-03-27T03:25:19.902Z</time>
      </trkpt>
      <trkpt lat="43.97523" lon="5.22846">
        <ele>620</ele>
        <time>2021-03-27T03:25:22.539Z</time>
      </trkpt>
      <trkpt lat="43.97516" lon="5.2284">
        <ele>619</ele>
        <time>2021-03-27T03:25:23.625Z</time>
      </trkpt>
      <trkpt lat="43.97485" lon="5.22821">
        <ele>616</ele>
        <time>2021-03-27T03:25:28.101Z</time>
      </trkpt>
      <trkpt lat="43.97468" lon="5.22803">
        <ele>615</ele>
        <time>2021-03-27T03:25:31.146Z</time>
      </trkpt>
      <trkpt lat="43.97459" lon="5.22786">
        <ele>615</ele>
        <time>2021-03-27T03:25:36.859Z</time>
      </trkpt>
      <trkpt lat="43.97453" lon="5.22765">
        <ele>615</ele>
        <time>2021-03-27T03:25:42.976Z</time>
      </trkpt>
      <trkpt lat="43.97448" lon="5.22757">
        <ele>615</ele>
        <time>2021-03-27T03:25:45.844Z</time>
      </trkpt>
      <trkpt lat="43.97421" lon="5.22733">
        <ele>610</ele>
        <time>2021-03-27T03:25:50.078Z</time>
      </trkpt>
      <trkpt lat="43.97413" lon="5.22724">
        <ele>609</ele>
        <time>2021-03-27T03:25:51.437Z</time>
      </trkpt>
      <trkpt lat="43.97408" lon="5.22708">
        <ele>609</ele>
        <time>2021-03-27T03:25:56.159Z</time>
      </trkpt>
      <trkpt lat="43.97408" lon="5.22702">
        <ele>609</ele>
        <time>2021-03-27T03:25:57.784Z</time>
      </trkpt>
      <trkpt lat="43.97412" lon="5.22694">
        <ele>610</ele>
        <time>2021-03-27T03:26:07.955Z</time>
      </trkpt>
      <trkpt lat="43.97417" lon="5.22688">
        <ele>611</ele>
        <time>2021-03-27T03:26:17.541Z</time>
      </trkpt>
      <trkpt lat="43.97425" lon="5.22683">
        <ele>613</ele>
        <time>2021-03-27T03:26:30.268Z</time>
      </trkpt>
      <trkpt lat="43.97464" lon="5.22667">
        <ele>618</ele>
        <time>2021-03-27T03:27:21.511Z</time>
      </trkpt>
      <trkpt lat="43.97496" lon="5.22657">
        <ele>621</ele>
        <time>2021-03-27T03:27:51.133Z</time>
      </trkpt>
      <trkpt lat="43.97519" lon="5.22657">
        <ele>622</ele>
        <time>2021-03-27T03:28:05.511Z</time>
      </trkpt>
      <trkpt lat="43.97669" lon="5.2267">
        <ele>628</ele>
        <time>2021-03-27T03:29:34.638Z</time>
      </trkpt>
      <trkpt lat="43.97687" lon="5.22665">
        <ele>629</ele>
        <time>2021-03-27T03:29:47.076Z</time>
      </trkpt>
      <trkpt lat="43.97697" lon="5.22651">
        <ele>629</ele>
        <time>2021-03-27T03:29:52.416Z</time>
      </trkpt>
      <trkpt lat="43.97701" lon="5.22643">
        <ele>629</ele>
        <time>2021-03-27T03:29:55.053Z</time>
      </trkpt>
      <trkpt lat="43.97703" lon="5.22634">
        <ele>629</ele>
        <time>2021-03-27T03:29:57.603Z</time>
      </trkpt>
      <trkpt lat="43.97705" lon="5.22621">
        <ele>629</ele>
        <time>2021-03-27T03:30:01.202Z</time>
      </trkpt>
      <trkpt lat="43.97706" lon="5.22612">
        <ele>628</ele>
        <time>2021-03-27T03:30:02.067Z</time>
      </trkpt>
      <trkpt lat="43.97708" lon="5.2259">
        <ele>628</ele>
        <time>2021-03-27T03:30:08.070Z</time>
      </trkpt>
      <trkpt lat="43.9771" lon="5.22573">
        <ele>628</ele>
        <time>2021-03-27T03:30:12.733Z</time>
      </trkpt>
      <trkpt lat="43.97713" lon="5.22554">
        <ele>628</ele>
        <time>2021-03-27T03:30:17.998Z</time>
      </trkpt>
      <trkpt lat="43.97717" lon="5.22542">
        <ele>628</ele>
        <time>2021-03-27T03:30:21.578Z</time>
      </trkpt>
      <trkpt lat="43.97723" lon="5.22532">
        <ele>628</ele>
        <time>2021-03-27T03:30:25.103Z</time>
      </trkpt>
      <trkpt lat="43.97733" lon="5.22525">
        <ele>628</ele>
        <time>2021-03-27T03:30:29.315Z</time>
      </trkpt>
      <trkpt lat="43.97769" lon="5.22514">
        <ele>625</ele>
        <time>2021-03-27T03:30:34.184Z</time>
      </trkpt>
      <trkpt lat="43.97781" lon="5.22507">
        <ele>624</ele>
        <time>2021-03-27T03:30:35.903Z</time>
      </trkpt>
      <trkpt lat="43.97816" lon="5.2248">
        <ele>621</ele>
        <time>2021-03-27T03:30:41.191Z</time>
      </trkpt>
      <trkpt lat="43.97825" lon="5.22477">
        <ele>620</ele>
        <time>2021-03-27T03:30:42.413Z</time>
      </trkpt>
      <trkpt lat="43.97835" lon="5.22479">
        <ele>619</ele>
        <time>2021-03-27T03:30:43.748Z</time>
      </trkpt>
      <trkpt lat="43.97843" lon="5.22482">
        <ele>619</ele>
        <time>2021-03-27T03:30:46.865Z</time>
      </trkpt>
      <trkpt lat="43.97854" lon="5.22489">
        <ele>619</ele>
        <time>2021-03-27T03:30:51.416Z</time>
      </trkpt>
      <trkpt lat="43.97863" lon="5.225">
        <ele>619</ele>
        <time>2021-03-27T03:30:55.924Z</time>
      </trkpt>
      <trkpt lat="43.97871" lon="5.22515">
        <ele>620</ele>
        <time>2021-03-27T03:31:06.446Z</time>
      </trkpt>
      <trkpt lat="43.97876" lon="5.22521">
        <ele>621</ele>
        <time>2021-03-27T03:31:16.031Z</time>
      </trkpt>
      <trkpt lat="43.97883" lon="5.22523">
        <ele>621</ele>
        <time>2021-03-27T03:31:18.719Z</time>
      </trkpt>
      <trkpt lat="43.97888" lon="5.22523">
        <ele>621</ele>
        <time>2021-03-27T03:31:20.600Z</time>
      </trkpt>
      <trkpt lat="43.97892" lon="5.2252">
        <ele>621</ele>
        <time>2021-03-27T03:31:22.310Z</time>
      </trkpt>
      <trkpt lat="43.97895" lon="5.22512">
        <ele>621</ele>
        <time>2021-03-27T03:31:24.752Z</time>
      </trkpt>
      <trkpt lat="43.97917" lon="5.2236">
        <ele>614</ele>
        <time>2021-03-27T03:31:38.667Z</time>
      </trkpt>
      <trkpt lat="43.97922" lon="5.22329">
        <ele>612</ele>
        <time>2021-03-27T03:31:41.686Z</time>
      </trkpt>
      <trkpt lat="43.97929" lon="5.22305">
        <ele>612</ele>
        <time>2021-03-27T03:31:48.696Z</time>
      </trkpt>
      <trkpt lat="43.97936" lon="5.22286">
        <ele>611</ele>
        <time>2021-03-27T03:31:50.577Z</time>
      </trkpt>
      <trkpt lat="43.97947" lon="5.22268">
        <ele>610</ele>
        <time>2021-03-27T03:31:52.763Z</time>
      </trkpt>
      <trkpt lat="43.98006" lon="5.22175">
        <ele>603</ele>
        <time>2021-03-27T03:32:04.548Z</time>
      </trkpt>
      <trkpt lat="43.98016" lon="5.22163">
        <ele>601</ele>
        <time>2021-03-27T03:32:06.293Z</time>
      </trkpt>
      <trkpt lat="43.98024" lon="5.22157">
        <ele>600</ele>
        <time>2021-03-27T03:32:07.494Z</time>
      </trkpt>
      <trkpt lat="43.98032" lon="5.22155">
        <ele>599</ele>
        <time>2021-03-27T03:32:08.567Z</time>
      </trkpt>
      <trkpt lat="43.98042" lon="5.22158">
        <ele>597</ele>
        <time>2021-03-27T03:32:09.919Z</time>
      </trkpt>
      <trkpt lat="43.9805" lon="5.22167">
        <ele>596</ele>
        <time>2021-03-27T03:32:11.278Z</time>
      </trkpt>
      <trkpt lat="43.98067" lon="5.22206">
        <ele>599</ele>
        <time>2021-03-27T03:32:40.902Z</time>
      </trkpt>
      <trkpt lat="43.98075" lon="5.22217">
        <ele>600</ele>
        <time>2021-03-27T03:32:50.833Z</time>
      </trkpt>
      <trkpt lat="43.98088" lon="5.22227">
        <ele>600</ele>
        <time>2021-03-27T03:32:56.422Z</time>
      </trkpt>
      <trkpt lat="43.981" lon="5.22232">
        <ele>600</ele>
        <time>2021-03-27T03:33:01.134Z</time>
      </trkpt>
      <trkpt lat="43.98114" lon="5.2223">
        <ele>600</ele>
        <time>2021-03-27T03:33:06.429Z</time>
      </trkpt>
      <trkpt lat="43.98126" lon="5.22224">
        <ele>599</ele>
        <time>2021-03-27T03:33:08.113Z</time>
      </trkpt>
      <trkpt lat="43.98152" lon="5.22201">
        <ele>596</ele>
        <time>2021-03-27T03:33:12.184Z</time>
      </trkpt>
      <trkpt lat="43.98157" lon="5.22199">
        <ele>596</ele>
        <time>2021-03-27T03:33:14.141Z</time>
      </trkpt>
      <trkpt lat="43.98166" lon="5.22198">
        <ele>596</ele>
        <time>2021-03-27T03:33:17.538Z</time>
      </trkpt>
      <trkpt lat="43.98186" lon="5.22207">
        <ele>597</ele>
        <time>2021-03-27T03:33:31.148Z</time>
      </trkpt>
      <trkpt lat="43.98192" lon="5.22201">
        <ele>597</ele>
        <time>2021-03-27T03:33:33.929Z</time>
      </trkpt>
      <trkpt lat="43.98194" lon="5.22197">
        <ele>597</ele>
        <time>2021-03-27T03:33:35.248Z</time>
      </trkpt>
      <trkpt lat="43.98195" lon="5.22186">
        <ele>596</ele>
        <time>2021-03-27T03:33:36.301Z</time>
      </trkpt>
      <trkpt lat="43.98193" lon="5.22181">
        <ele>596</ele>
        <time>2021-03-27T03:33:37.850Z</time>
      </trkpt>
      <trkpt lat="43.98191" lon="5.22177">
        <ele>596</ele>
        <time>2021-03-27T03:33:39.168Z</time>
      </trkpt>
      <trkpt lat="43.98187" lon="5.22174">
        <ele>595</ele>
        <time>2021-03-27T03:33:39.769Z</time>
      </trkpt>
      <trkpt lat="43.9818" lon="5.22172">
        <ele>594</ele>
        <time>2021-03-27T03:33:40.713Z</time>
      </trkpt>
      <trkpt lat="43.98158" lon="5.22169">
        <ele>593</ele>
        <time>2021-03-27T03:33:43.906Z</time>
      </trkpt>
      <trkpt lat="43.98146" lon="5.22171">
        <ele>593</ele>
        <time>2021-03-27T03:33:48.453Z</time>
      </trkpt>
      <trkpt lat="43.98124" lon="5.22183">
        <ele>594</ele>
        <time>2021-03-27T03:34:02.969Z</time>
      </trkpt>
      <trkpt lat="43.98118" lon="5.22184">
        <ele>594</ele>
        <time>2021-03-27T03:34:05.242Z</time>
      </trkpt>
      <trkpt lat="43.98113" lon="5.22183">
        <ele>594</ele>
        <time>2021-03-27T03:34:07.143Z</time>
      </trkpt>
      <trkpt lat="43.98108" lon="5.22179">
        <ele>594</ele>
        <time>2021-03-27T03:34:09.313Z</time>
      </trkpt>
      <trkpt lat="43.98105" lon="5.22173">
        <ele>593</ele>
        <time>2021-03-27T03:34:10.007Z</time>
      </trkpt>
      <trkpt lat="43.98103" lon="5.22164">
        <ele>592</ele>
        <time>2021-03-27T03:34:10.903Z</time>
      </trkpt>
      <trkpt lat="43.98102" lon="5.22156">
        <ele>592</ele>
        <time>2021-03-27T03:34:13.100Z</time>
      </trkpt>
      <trkpt lat="43.98104" lon="5.22142">
        <ele>591</ele>
        <time>2021-03-27T03:34:14.457Z</time>
      </trkpt>
      <trkpt lat="43.98119" lon="5.22082">
        <ele>590</ele>
        <time>2021-03-27T03:34:22.830Z</time>
      </trkpt>
      <trkpt lat="43.98126" lon="5.22065">
        <ele>589</ele>
        <time>2021-03-27T03:34:24.692Z</time>
      </trkpt>
      <trkpt lat="43.98152" lon="5.22035">
        <ele>589</ele>
        <time>2021-03-27T03:34:37.404Z</time>
      </trkpt>
      <trkpt lat="43.98157" lon="5.22019">
        <ele>588</ele>
        <time>2021-03-27T03:34:39.062Z</time>
      </trkpt>
      <trkpt lat="43.98157" lon="5.22008">
        <ele>588</ele>
        <time>2021-03-27T03:34:42.040Z</time>
      </trkpt>
      <trkpt lat="43.98147" lon="5.21984">
        <ele>589</ele>
        <time>2021-03-27T03:34:55.175Z</time>
      </trkpt>
      <trkpt lat="43.9814" lon="5.21975">
        <ele>589</ele>
        <time>2021-03-27T03:34:58.762Z</time>
      </trkpt>
      <trkpt lat="43.98132" lon="5.2197">
        <ele>589</ele>
        <time>2021-03-27T03:35:02.062Z</time>
      </trkpt>
      <trkpt lat="43.98122" lon="5.21967">
        <ele>588</ele>
        <time>2021-03-27T03:35:03.413Z</time>
      </trkpt>
      <trkpt lat="43.98089" lon="5.21972">
        <ele>585</ele>
        <time>2021-03-27T03:35:07.798Z</time>
      </trkpt>
      <trkpt lat="43.98079" lon="5.21962">
        <ele>585</ele>
        <time>2021-03-27T03:35:12.433Z</time>
      </trkpt>
      <trkpt lat="43.98075" lon="5.21953">
        <ele>586</ele>
        <time>2021-03-27T03:35:23.158Z</time>
      </trkpt>
      <trkpt lat="43.98068" lon="5.21845">
        <ele>583</ele>
        <time>2021-03-27T03:35:35.169Z</time>
      </trkpt>
      <trkpt lat="43.98074" lon="5.21778">
        <ele>579</ele>
        <time>2021-03-27T03:35:41.586Z</time>
      </trkpt>
      <trkpt lat="43.98073" lon="5.21767">
        <ele>579</ele>
        <time>2021-03-27T03:35:44.587Z</time>
      </trkpt>
      <trkpt lat="43.98069" lon="5.21758">
        <ele>579</ele>
        <time>2021-03-27T03:35:47.451Z</time>
      </trkpt>
      <trkpt lat="43.98045" lon="5.2172">
        <ele>579</ele>
        <time>2021-03-27T03:36:01.137Z</time>
      </trkpt>
      <trkpt lat="43.98042" lon="5.21711">
        <ele>579</ele>
        <time>2021-03-27T03:36:03.822Z</time>
      </trkpt>
      <trkpt lat="43.98041" lon="5.21699">
        <ele>579</ele>
        <time>2021-03-27T03:36:07.092Z</time>
      </trkpt>
      <trkpt lat="43.98049" lon="5.21672">
        <ele>578</ele>
        <time>2021-03-27T03:36:10.064Z</time>
      </trkpt>
      <trkpt lat="43.9805" lon="5.21657">
        <ele>577</ele>
        <time>2021-03-27T03:36:11.496Z</time>
      </trkpt>
      <trkpt lat="43.98049" lon="5.21619">
        <ele>573</ele>
        <time>2021-03-27T03:36:15.110Z</time>
      </trkpt>
      <trkpt lat="43.98082" lon="5.21528">
        <ele>565</ele>
        <time>2021-03-27T03:36:24.796Z</time>
      </trkpt>
      <trkpt lat="43.98094" lon="5.21488">
        <ele>565</ele>
        <time>2021-03-27T03:36:36.526Z</time>
      </trkpt>
      <trkpt lat="43.98097" lon="5.21474">
        <ele>567</ele>
        <time>2021-03-27T03:36:51.777Z</time>
      </trkpt>
      <trkpt lat="43.98098" lon="5.21448">
        <ele>568</ele>
        <time>2021-03-27T03:37:04.379Z</time>
      </trkpt>
      <trkpt lat="43.98093" lon="5.21429">
        <ele>569</ele>
        <time>2021-03-27T03:37:15.291Z</time>
      </trkpt>
      <trkpt lat="43.98087" lon="5.21419">
        <ele>568</ele>
        <time>2021-03-27T03:37:16.529Z</time>
      </trkpt>
      <trkpt lat="43.9807" lon="5.21412">
        <ele>566</ele>
        <time>2021-03-27T03:37:18.871Z</time>
      </trkpt>
      <trkpt lat="43.98055" lon="5.21415">
        <ele>563</ele>
        <time>2021-03-27T03:37:20.872Z</time>
      </trkpt>
      <trkpt lat="43.9805" lon="5.2142">
        <ele>562</ele>
        <time>2021-03-27T03:37:21.686Z</time>
      </trkpt>
      <trkpt lat="43.98043" lon="5.21434">
        <ele>561</ele>
        <time>2021-03-27T03:37:23.307Z</time>
      </trkpt>
      <trkpt lat="43.98028" lon="5.21475">
        <ele>559</ele>
        <time>2021-03-27T03:37:27.510Z</time>
      </trkpt>
      <trkpt lat="43.97996" lon="5.2152">
        <ele>560</ele>
        <time>2021-03-27T03:37:48.949Z</time>
      </trkpt>
      <trkpt lat="43.97991" lon="5.21524">
        <ele>561</ele>
        <time>2021-03-27T03:37:57.320Z</time>
      </trkpt>
      <trkpt lat="43.97978" lon="5.21522">
        <ele>562</ele>
        <time>2021-03-27T03:38:07.727Z</time>
      </trkpt>
      <trkpt lat="43.97969" lon="5.21515">
        <ele>562</ele>
        <time>2021-03-27T03:38:11.607Z</time>
      </trkpt>
      <trkpt lat="43.9796" lon="5.21506">
        <ele>562</ele>
        <time>2021-03-27T03:38:15.778Z</time>
      </trkpt>
      <trkpt lat="43.97954" lon="5.21495">
        <ele>561</ele>
        <time>2021-03-27T03:38:17.090Z</time>
      </trkpt>
      <trkpt lat="43.97948" lon="5.21475">
        <ele>562</ele>
        <time>2021-03-27T03:38:28.392Z</time>
      </trkpt>
      <trkpt lat="43.9795" lon="5.2146">
        <ele>561</ele>
        <time>2021-03-27T03:38:29.842Z</time>
      </trkpt>
      <trkpt lat="43.97974" lon="5.21396">
        <ele>559</ele>
        <time>2021-03-27T03:38:37.831Z</time>
      </trkpt>
      <trkpt lat="43.97979" lon="5.21376">
        <ele>559</ele>
        <time>2021-03-27T03:38:43.563Z</time>
      </trkpt>
      <trkpt lat="43.97977" lon="5.21366">
        <ele>560</ele>
        <time>2021-03-27T03:38:54.399Z</time>
      </trkpt>
      <trkpt lat="43.97957" lon="5.21323">
        <ele>561</ele>
        <time>2021-03-27T03:39:12.844Z</time>
      </trkpt>
      <trkpt lat="43.97951" lon="5.21306">
        <ele>560</ele>
        <time>2021-03-27T03:39:14.644Z</time>
      </trkpt>
      <trkpt lat="43.9795" lon="5.21286">
        <ele>559</ele>
        <time>2021-03-27T03:39:16.549Z</time>
      </trkpt>
      <trkpt lat="43.97953" lon="5.21255">
        <ele>558</ele>
        <time>2021-03-27T03:39:19.825Z</time>
      </trkpt>
      <trkpt lat="43.97965" lon="5.21204">
        <ele>555</ele>
        <time>2021-03-27T03:39:24.925Z</time>
      </trkpt>
      <trkpt lat="43.97965" lon="5.21162">
        <ele>552</ele>
        <time>2021-03-27T03:39:28.918Z</time>
      </trkpt>
      <trkpt lat="43.97967" lon="5.21153">
        <ele>552</ele>
        <time>2021-03-27T03:39:31.467Z</time>
      </trkpt>
      <trkpt lat="43.97981" lon="5.21123">
        <ele>551</ele>
        <time>2021-03-27T03:39:35.412Z</time>
      </trkpt>
      <trkpt lat="43.97982" lon="5.21114">
        <ele>551</ele>
        <time>2021-03-27T03:39:37.877Z</time>
      </trkpt>
      <trkpt lat="43.9798" lon="5.211">
        <ele>551</ele>
        <time>2021-03-27T03:39:41.741Z</time>
      </trkpt>
      <trkpt lat="43.97971" lon="5.21081">
        <ele>551</ele>
        <time>2021-03-27T03:39:47.898Z</time>
      </trkpt>
      <trkpt lat="43.97967" lon="5.21063">
        <ele>551</ele>
        <time>2021-03-27T03:39:52.997Z</time>
      </trkpt>
      <trkpt lat="43.97969" lon="5.21047">
        <ele>550</ele>
        <time>2021-03-27T03:39:54.541Z</time>
      </trkpt>
      <trkpt lat="43.97982" lon="5.21011">
        <ele>547</ele>
        <time>2021-03-27T03:39:58.370Z</time>
      </trkpt>
      <trkpt lat="43.97983" lon="5.21">
        <ele>546</ele>
        <time>2021-03-27T03:39:59.423Z</time>
      </trkpt>
      <trkpt lat="43.97982" lon="5.20989">
        <ele>546</ele>
        <time>2021-03-27T03:40:02.425Z</time>
      </trkpt>
      <trkpt lat="43.97961" lon="5.20946">
        <ele>546</ele>
        <time>2021-03-27T03:40:16.492Z</time>
      </trkpt>
      <trkpt lat="43.97957" lon="5.20936">
        <ele>546</ele>
        <time>2021-03-27T03:40:19.589Z</time>
      </trkpt>
      <trkpt lat="43.97956" lon="5.20927">
        <ele>545</ele>
        <time>2021-03-27T03:40:20.454Z</time>
      </trkpt>
      <trkpt lat="43.9796" lon="5.2091">
        <ele>544</ele>
        <time>2021-03-27T03:40:22.154Z</time>
      </trkpt>
      <trkpt lat="43.97988" lon="5.20858">
        <ele>535</ele>
        <time>2021-03-27T03:40:28.328Z</time>
      </trkpt>
      <trkpt lat="43.97998" lon="5.20848">
        <ele>533</ele>
        <time>2021-03-27T03:40:29.955Z</time>
      </trkpt>
      <trkpt lat="43.98018" lon="5.20836">
        <ele>535</ele>
        <time>2021-03-27T03:40:49.690Z</time>
      </trkpt>
      <trkpt lat="43.98023" lon="5.2083">
        <ele>536</ele>
        <time>2021-03-27T03:40:59.275Z</time>
      </trkpt>
      <trkpt lat="43.98025" lon="5.20824">
        <ele>537</ele>
        <time>2021-03-27T03:41:06.179Z</time>
      </trkpt>
      <trkpt lat="43.98026" lon="5.20816">
        <ele>537</ele>
        <time>2021-03-27T03:41:08.377Z</time>
      </trkpt>
      <trkpt lat="43.98021" lon="5.20804">
        <ele>536</ele>
        <time>2021-03-27T03:41:09.695Z</time>
      </trkpt>
      <trkpt lat="43.98" lon="5.2079">
        <ele>530</ele>
        <time>2021-03-27T03:41:12.771Z</time>
      </trkpt>
      <trkpt lat="43.97994" lon="5.20783">
        <ele>531</ele>
        <time>2021-03-27T03:41:23.261Z</time>
      </trkpt>
      <trkpt lat="43.97988" lon="5.20761">
        <ele>531</ele>
        <time>2021-03-27T03:41:29.629Z</time>
      </trkpt>
      <trkpt lat="43.97985" lon="5.20712">
        <ele>531</ele>
        <time>2021-03-27T03:41:42.941Z</time>
      </trkpt>
      <trkpt lat="43.97977" lon="5.20693">
        <ele>530</ele>
        <time>2021-03-27T03:41:44.910Z</time>
      </trkpt>
      <trkpt lat="43.97969" lon="5.20685">
        <ele>529</ele>
        <time>2021-03-27T03:41:46.212Z</time>
      </trkpt>
      <trkpt lat="43.97943" lon="5.20678">
        <ele>526</ele>
        <time>2021-03-27T03:41:49.710Z</time>
      </trkpt>
      <trkpt lat="43.9793" lon="5.2067">
        <ele>523</ele>
        <time>2021-03-27T03:41:51.589Z</time>
      </trkpt>
      <trkpt lat="43.97925" lon="5.2066">
        <ele>522</ele>
        <time>2021-03-27T03:41:52.746Z</time>
      </trkpt>
      <trkpt lat="43.97917" lon="5.20623">
        <ele>521</ele>
        <time>2021-03-27T03:41:57.130Z</time>
      </trkpt>
      <trkpt lat="43.97915" lon="5.20612">
        <ele>520</ele>
        <time>2021-03-27T03:41:58.209Z</time>
      </trkpt>
      <trkpt lat="43.97916" lon="5.20601">
        <ele>520</ele>
        <time>2021-03-27T03:42:01.210Z</time>
      </trkpt>
      <trkpt lat="43.97921" lon="5.20585">
        <ele>520</ele>
        <time>2021-03-27T03:42:05.932Z</time>
      </trkpt>
      <trkpt lat="43.97934" lon="5.20572">
        <ele>523</ele>
        <time>2021-03-27T03:42:29.170Z</time>
      </trkpt>
      <trkpt lat="43.97945" lon="5.20566">
        <ele>524</ele>
        <time>2021-03-27T03:42:39.223Z</time>
      </trkpt>
      <trkpt lat="43.9797" lon="5.20557">
        <ele>524</ele>
        <time>2021-03-27T03:42:48.938Z</time>
      </trkpt>
      <trkpt lat="43.97974" lon="5.20554">
        <ele>524</ele>
        <time>2021-03-27T03:42:50.648Z</time>
      </trkpt>
      <trkpt lat="43.9798" lon="5.20545">
        <ele>524</ele>
        <time>2021-03-27T03:42:53.969Z</time>
      </trkpt>
      <trkpt lat="43.97989" lon="5.20523">
        <ele>524</ele>
        <time>2021-03-27T03:43:00.819Z</time>
      </trkpt>
      <trkpt lat="43.97994" lon="5.20515">
        <ele>523</ele>
        <time>2021-03-27T03:43:01.826Z</time>
      </trkpt>
      <trkpt lat="43.98003" lon="5.20508">
        <ele>522</ele>
        <time>2021-03-27T03:43:03.188Z</time>
      </trkpt>
      <trkpt lat="43.98066" lon="5.20468">
        <ele>522</ele>
        <time>2021-03-27T03:43:29.243Z</time>
      </trkpt>
      <trkpt lat="43.98086" lon="5.20458">
        <ele>520</ele>
        <time>2021-03-27T03:43:32.051Z</time>
      </trkpt>
      <trkpt lat="43.98111" lon="5.20451">
        <ele>519</ele>
        <time>2021-03-27T03:43:35.948Z</time>
      </trkpt>
      <trkpt lat="43.9812" lon="5.20446">
        <ele>518</ele>
        <time>2021-03-27T03:43:37.228Z</time>
      </trkpt>
      <trkpt lat="43.98128" lon="5.20439">
        <ele>517</ele>
        <time>2021-03-27T03:43:38.477Z</time>
      </trkpt>
      <trkpt lat="43.98134" lon="5.2043">
        <ele>516</ele>
        <time>2021-03-27T03:43:39.643Z</time>
      </trkpt>
      <trkpt lat="43.98138" lon="5.20419">
        <ele>515</ele>
        <time>2021-03-27T03:43:40.814Z</time>
      </trkpt>
      <trkpt lat="43.98144" lon="5.20385">
        <ele>514</ele>
        <time>2021-03-27T03:43:44.646Z</time>
      </trkpt>
      <trkpt lat="43.98149" lon="5.20375">
        <ele>513</ele>
        <time>2021-03-27T03:43:45.803Z</time>
      </trkpt>
      <trkpt lat="43.98154" lon="5.20369">
        <ele>512</ele>
        <time>2021-03-27T03:43:46.676Z</time>
      </trkpt>
      <trkpt lat="43.98163" lon="5.20364">
        <ele>509</ele>
        <time>2021-03-27T03:43:47.956Z</time>
      </trkpt>
      <trkpt lat="43.98177" lon="5.20355">
        <ele>510</ele>
        <time>2021-03-27T03:43:59.194Z</time>
      </trkpt>
      <trkpt lat="43.98191" lon="5.20338">
        <ele>513</ele>
        <time>2021-03-27T03:44:26.169Z</time>
      </trkpt>
      <trkpt lat="43.98198" lon="5.20318">
        <ele>513</ele>
        <time>2021-03-27T03:44:32.189Z</time>
      </trkpt>
      <trkpt lat="43.98198" lon="5.20307">
        <ele>513</ele>
        <time>2021-03-27T03:44:35.166Z</time>
      </trkpt>
      <trkpt lat="43.98196" lon="5.20292">
        <ele>512</ele>
        <time>2021-03-27T03:44:36.616Z</time>
      </trkpt>
      <trkpt lat="43.98178" lon="5.20259">
        <ele>508</ele>
        <time>2021-03-27T03:44:40.552Z</time>
      </trkpt>
      <trkpt lat="43.98174" lon="5.20249">
        <ele>507</ele>
        <time>2021-03-27T03:44:41.640Z</time>
      </trkpt>
      <trkpt lat="43.98171" lon="5.20238">
        <ele>506</ele>
        <time>2021-03-27T03:44:42.758Z</time>
      </trkpt>
      <trkpt lat="43.98172" lon="5.20228">
        <ele>505</ele>
        <time>2021-03-27T03:44:43.717Z</time>
      </trkpt>
      <trkpt lat="43.98178" lon="5.20211">
        <ele>505</ele>
        <time>2021-03-27T03:44:48.843Z</time>
      </trkpt>
      <trkpt lat="43.98187" lon="5.20198">
        <ele>504</ele>
        <time>2021-03-27T03:44:50.557Z</time>
      </trkpt>
      <trkpt lat="43.98192" lon="5.20183">
        <ele>503</ele>
        <time>2021-03-27T03:44:52.128Z</time>
      </trkpt>
      <trkpt lat="43.98206" lon="5.20126">
        <ele>504</ele>
        <time>2021-03-27T03:45:12.800Z</time>
      </trkpt>
      <trkpt lat="43.98211" lon="5.20113">
        <ele>504</ele>
        <time>2021-03-27T03:45:16.790Z</time>
      </trkpt>
      <trkpt lat="43.98221" lon="5.20101">
        <ele>503</ele>
        <time>2021-03-27T03:45:18.535Z</time>
      </trkpt>
      <trkpt lat="43.98234" lon="5.20092">
        <ele>501</ele>
        <time>2021-03-27T03:45:20.454Z</time>
      </trkpt>
      <trkpt lat="43.98249" lon="5.20086">
        <ele>497</ele>
        <time>2021-03-27T03:45:22.515Z</time>
      </trkpt>
      <trkpt lat="43.98263" lon="5.20084">
        <ele>496</ele>
        <time>2021-03-27T03:45:24.374Z</time>
      </trkpt>
      <trkpt lat="43.98303" lon="5.20089">
        <ele>494</ele>
        <time>2021-03-27T03:45:29.947Z</time>
      </trkpt>
      <trkpt lat="43.98312" lon="5.20089">
        <ele>493</ele>
        <time>2021-03-27T03:45:31.136Z</time>
      </trkpt>
      <trkpt lat="43.9832" lon="5.20085">
        <ele>492</ele>
        <time>2021-03-27T03:45:32.259Z</time>
      </trkpt>
      <trkpt lat="43.98328" lon="5.20075">
        <ele>492</ele>
        <time>2021-03-27T03:45:36.306Z</time>
      </trkpt>
      <trkpt lat="43.98354" lon="5.20032">
        <ele>493</ele>
        <time>2021-03-27T03:45:55.964Z</time>
      </trkpt>
      <trkpt lat="43.98373" lon="5.20011">
        <ele>491</ele>
        <time>2021-03-27T03:45:59.171Z</time>
      </trkpt>
      <trkpt lat="43.98377" lon="5.20003">
        <ele>490</ele>
        <time>2021-03-27T03:46:00.097Z</time>
      </trkpt>
      <trkpt lat="43.98377" lon="5.19989">
        <ele>490</ele>
        <time>2021-03-27T03:46:03.886Z</time>
      </trkpt>
      <trkpt lat="43.98374" lon="5.1997">
        <ele>490</ele>
        <time>2021-03-27T03:46:09.151Z</time>
      </trkpt>
      <trkpt lat="43.98379" lon="5.19946">
        <ele>489</ele>
        <time>2021-03-27T03:46:11.525Z</time>
      </trkpt>
      <trkpt lat="43.98385" lon="5.19939">
        <ele>488</ele>
        <time>2021-03-27T03:46:12.560Z</time>
      </trkpt>
      <trkpt lat="43.98408" lon="5.19917">
        <ele>482</ele>
        <time>2021-03-27T03:46:16.248Z</time>
      </trkpt>
      <trkpt lat="43.98421" lon="5.19907">
        <ele>481</ele>
        <time>2021-03-27T03:46:18.211Z</time>
      </trkpt>
      <trkpt lat="43.98433" lon="5.19902">
        <ele>481</ele>
        <time>2021-03-27T03:46:22.924Z</time>
      </trkpt>
      <trkpt lat="43.98442" lon="5.19901">
        <ele>481</ele>
        <time>2021-03-27T03:46:26.320Z</time>
      </trkpt>
      <trkpt lat="43.98456" lon="5.19903">
        <ele>480</ele>
        <time>2021-03-27T03:46:28.179Z</time>
      </trkpt>
      <trkpt lat="43.98527" lon="5.19942">
        <ele>479</ele>
        <time>2021-03-27T03:46:43.732Z</time>
      </trkpt>
      <trkpt lat="43.98534" lon="5.19943">
        <ele>480</ele>
        <time>2021-03-27T03:46:53.942Z</time>
      </trkpt>
      <trkpt lat="43.98541" lon="5.19939">
        <ele>480</ele>
        <time>2021-03-27T03:46:56.789Z</time>
      </trkpt>
      <trkpt lat="43.98543" lon="5.19933">
        <ele>479</ele>
        <time>2021-03-27T03:46:57.418Z</time>
      </trkpt>
      <trkpt lat="43.98543" lon="5.19921">
        <ele>479</ele>
        <time>2021-03-27T03:47:00.666Z</time>
      </trkpt>
      <trkpt lat="43.98544" lon="5.19897">
        <ele>480</ele>
        <time>2021-03-27T03:47:12.657Z</time>
      </trkpt>
      <trkpt lat="43.9855" lon="5.19871">
        <ele>481</ele>
        <time>2021-03-27T03:47:25.656Z</time>
      </trkpt>
      <trkpt lat="43.98554" lon="5.19847">
        <ele>482</ele>
        <time>2021-03-27T03:47:37.827Z</time>
      </trkpt>
      <trkpt lat="43.98557" lon="5.19788">
        <ele>481</ele>
        <time>2021-03-27T03:47:45.481Z</time>
      </trkpt>
      <trkpt lat="43.9856" lon="5.19779">
        <ele>481</ele>
        <time>2021-03-27T03:47:48.166Z</time>
      </trkpt>
      <trkpt lat="43.98571" lon="5.19766">
        <ele>478</ele>
        <time>2021-03-27T03:47:50.073Z</time>
      </trkpt>
      <trkpt lat="43.98574" lon="5.19759">
        <ele>477</ele>
        <time>2021-03-27T03:47:50.847Z</time>
      </trkpt>
      <trkpt lat="43.98575" lon="5.1975">
        <ele>476</ele>
        <time>2021-03-27T03:47:51.713Z</time>
      </trkpt>
      <trkpt lat="43.98571" lon="5.1973">
        <ele>476</ele>
        <time>2021-03-27T03:47:57.331Z</time>
      </trkpt>
      <trkpt lat="43.98571" lon="5.19717">
        <ele>476</ele>
        <time>2021-03-27T03:48:00.850Z</time>
      </trkpt>
      <trkpt lat="43.98612" lon="5.19582">
        <ele>473</ele>
        <time>2021-03-27T03:48:18.810Z</time>
      </trkpt>
      <trkpt lat="43.98619" lon="5.19567">
        <ele>474</ele>
        <time>2021-03-27T03:48:29.150Z</time>
      </trkpt>
      <trkpt lat="43.98624" lon="5.19561">
        <ele>474</ele>
        <time>2021-03-27T03:48:31.635Z</time>
      </trkpt>
      <trkpt lat="43.98632" lon="5.19559">
        <ele>473</ele>
        <time>2021-03-27T03:48:32.709Z</time>
      </trkpt>
      <trkpt lat="43.98641" lon="5.19561">
        <ele>472</ele>
        <time>2021-03-27T03:48:33.913Z</time>
      </trkpt>
      <trkpt lat="43.98652" lon="5.19566">
        <ele>470</ele>
        <time>2021-03-27T03:48:35.442Z</time>
      </trkpt>
      <trkpt lat="43.98659" lon="5.19566">
        <ele>470</ele>
        <time>2021-03-27T03:48:38.075Z</time>
      </trkpt>
      <trkpt lat="43.98667" lon="5.19561">
        <ele>469</ele>
        <time>2021-03-27T03:48:39.234Z</time>
      </trkpt>
      <trkpt lat="43.98672" lon="5.19554">
        <ele>469</ele>
        <time>2021-03-27T03:48:41.903Z</time>
      </trkpt>
      <trkpt lat="43.98719" lon="5.19451">
        <ele>469</ele>
        <time>2021-03-27T03:49:14.914Z</time>
      </trkpt>
      <trkpt lat="43.98753" lon="5.19387">
        <ele>460</ele>
        <time>2021-03-27T03:49:22.475Z</time>
      </trkpt>
      <trkpt lat="43.9879" lon="5.19319">
        <ele>463</ele>
        <time>2021-03-27T03:50:02.535Z</time>
      </trkpt>
      <trkpt lat="43.9882" lon="5.19267">
        <ele>459</ele>
        <time>2021-03-27T03:50:08.870Z</time>
      </trkpt>
      <trkpt lat="43.98832" lon="5.19239">
        <ele>455</ele>
        <time>2021-03-27T03:50:11.967Z</time>
      </trkpt>
      <trkpt lat="43.98835" lon="5.19226">
        <ele>454</ele>
        <time>2021-03-27T03:50:13.265Z</time>
      </trkpt>
      <trkpt lat="43.98835" lon="5.19213">
        <ele>454</ele>
        <time>2021-03-27T03:50:16.783Z</time>
      </trkpt>
      <trkpt lat="43.98833" lon="5.19198">
        <ele>453</ele>
        <time>2021-03-27T03:50:18.233Z</time>
      </trkpt>
      <trkpt lat="43.98821" lon="5.19168">
        <ele>452</ele>
        <time>2021-03-27T03:50:21.961Z</time>
      </trkpt>
      <trkpt lat="43.98813" lon="5.19126">
        <ele>452</ele>
        <time>2021-03-27T03:50:33.720Z</time>
      </trkpt>
      <trkpt lat="43.9881" lon="5.19117">
        <ele>452</ele>
        <time>2021-03-27T03:50:36.404Z</time>
      </trkpt>
      <trkpt lat="43.98805" lon="5.19112">
        <ele>452</ele>
        <time>2021-03-27T03:50:38.721Z</time>
      </trkpt>
      <trkpt lat="43.98797" lon="5.19109">
        <ele>451</ele>
        <time>2021-03-27T03:50:39.816Z</time>
      </trkpt>
      <trkpt lat="43.98773" lon="5.19112">
        <ele>450</ele>
        <time>2021-03-27T03:50:43.419Z</time>
      </trkpt>
      <trkpt lat="43.98767" lon="5.19108">
        <ele>449</ele>
        <time>2021-03-27T03:50:44.298Z</time>
      </trkpt>
      <trkpt lat="43.98759" lon="5.19093">
        <ele>447</ele>
        <time>2021-03-27T03:50:46.073Z</time>
      </trkpt>
      <trkpt lat="43.98745" lon="5.19054">
        <ele>446</ele>
        <time>2021-03-27T03:50:51.226Z</time>
      </trkpt>
      <trkpt lat="43.98735" lon="5.1904">
        <ele>446</ele>
        <time>2021-03-27T03:50:56.565Z</time>
      </trkpt>
      <trkpt lat="43.98723" lon="5.19032">
        <ele>446</ele>
        <time>2021-03-27T03:51:01.571Z</time>
      </trkpt>
      <trkpt lat="43.98699" lon="5.19022">
        <ele>444</ele>
        <time>2021-03-27T03:51:04.881Z</time>
      </trkpt>
      <trkpt lat="43.98589" lon="5.18994">
        <ele>434</ele>
        <time>2021-03-27T03:51:19.653Z</time>
      </trkpt>
      <trkpt lat="43.98584" lon="5.18995">
        <ele>433</ele>
        <time>2021-03-27T03:51:20.320Z</time>
      </trkpt>
      <trkpt lat="43.98579" lon="5.18999">
        <ele>432</ele>
        <time>2021-03-27T03:51:21.082Z</time>
      </trkpt>
      <trkpt lat="43.98574" lon="5.19011">
        <ele>434</ele>
        <time>2021-03-27T03:51:35.559Z</time>
      </trkpt>
      <trkpt lat="43.98576" lon="5.19038">
        <ele>439</ele>
        <time>2021-03-27T03:52:03.895Z</time>
      </trkpt>
      <trkpt lat="43.98571" lon="5.19051">
        <ele>441</ele>
        <time>2021-03-27T03:52:19.284Z</time>
      </trkpt>
      <trkpt lat="43.98562" lon="5.19055">
        <ele>442</ele>
        <time>2021-03-27T03:52:29.084Z</time>
      </trkpt>
      <trkpt lat="43.9855" lon="5.19052">
        <ele>442</ele>
        <time>2021-03-27T03:52:33.670Z</time>
      </trkpt>
      <trkpt lat="43.98516" lon="5.1903">
        <ele>438</ele>
        <time>2021-03-27T03:52:38.624Z</time>
      </trkpt>
      <trkpt lat="43.98479" lon="5.18997">
        <ele>433</ele>
        <time>2021-03-27T03:52:44.432Z</time>
      </trkpt>
      <trkpt lat="43.9841" lon="5.18952">
        <ele>430</ele>
        <time>2021-03-27T03:52:56.062Z</time>
      </trkpt>
      <trkpt lat="43.98405" lon="5.18944">
        <ele>430</ele>
        <time>2021-03-27T03:52:58.930Z</time>
      </trkpt>
      <trkpt lat="43.98404" lon="5.18924">
        <ele>427</ele>
        <time>2021-03-27T03:53:00.836Z</time>
      </trkpt>
      <trkpt lat="43.98408" lon="5.18906">
        <ele>425</ele>
        <time>2021-03-27T03:53:02.626Z</time>
      </trkpt>
      <trkpt lat="43.98416" lon="5.18886">
        <ele>422</ele>
        <time>2021-03-27T03:53:04.801Z</time>
      </trkpt>
      <trkpt lat="43.98422" lon="5.18859">
        <ele>423</ele>
        <time>2021-03-27T03:53:18.104Z</time>
      </trkpt>
      <trkpt lat="43.98424" lon="5.18799">
        <ele>419</ele>
        <time>2021-03-27T03:53:23.812Z</time>
      </trkpt>
      <trkpt lat="43.98428" lon="5.18789">
        <ele>419</ele>
        <time>2021-03-27T03:53:26.909Z</time>
      </trkpt>
      <trkpt lat="43.98434" lon="5.18782">
        <ele>418</ele>
        <time>2021-03-27T03:53:27.944Z</time>
      </trkpt>
      <trkpt lat="43.98441" lon="5.18779">
        <ele>418</ele>
        <time>2021-03-27T03:53:30.699Z</time>
      </trkpt>
      <trkpt lat="43.98451" lon="5.18779">
        <ele>418</ele>
        <time>2021-03-27T03:53:34.461Z</time>
      </trkpt>
      <trkpt lat="43.98471" lon="5.18783">
        <ele>419</ele>
        <time>2021-03-27T03:53:47.707Z</time>
      </trkpt>
      <trkpt lat="43.9848" lon="5.18781">
        <ele>419</ele>
        <time>2021-03-27T03:53:51.136Z</time>
      </trkpt>
      <trkpt lat="43.98498" lon="5.18769">
        <ele>416</ele>
        <time>2021-03-27T03:53:53.773Z</time>
      </trkpt>
      <trkpt lat="43.98507" lon="5.18761">
        <ele>416</ele>
        <time>2021-03-27T03:53:57.792Z</time>
      </trkpt>
      <trkpt lat="43.98515" lon="5.18751">
        <ele>417</ele>
        <time>2021-03-27T03:54:07.640Z</time>
      </trkpt>
      <trkpt lat="43.98521" lon="5.18737">
        <ele>418</ele>
        <time>2021-03-27T03:54:17.671Z</time>
      </trkpt>
      <trkpt lat="43.98534" lon="5.18696">
        <ele>418</ele>
        <time>2021-03-27T03:54:29.798Z</time>
      </trkpt>
      <trkpt lat="43.98536" lon="5.18683">
        <ele>417</ele>
        <time>2021-03-27T03:54:31.061Z</time>
      </trkpt>
      <trkpt lat="43.98536" lon="5.18667">
        <ele>415</ele>
        <time>2021-03-27T03:54:32.582Z</time>
      </trkpt>
      <trkpt lat="43.98533" lon="5.18653">
        <ele>415</ele>
        <time>2021-03-27T03:54:36.536Z</time>
      </trkpt>
      <trkpt lat="43.98527" lon="5.18641">
        <ele>415</ele>
        <time>2021-03-27T03:54:40.491Z</time>
      </trkpt>
      <trkpt lat="43.98519" lon="5.18632">
        <ele>413</ele>
        <time>2021-03-27T03:54:41.851Z</time>
      </trkpt>
      <trkpt lat="43.98509" lon="5.18626">
        <ele>410</ele>
        <time>2021-03-27T03:54:43.289Z</time>
      </trkpt>
      <trkpt lat="43.98497" lon="5.18624">
        <ele>407</ele>
        <time>2021-03-27T03:54:44.886Z</time>
      </trkpt>
      <trkpt lat="43.98433" lon="5.18628">
        <ele>396</ele>
        <time>2021-03-27T03:54:53.348Z</time>
      </trkpt>
      <trkpt lat="43.98421" lon="5.18627">
        <ele>394</ele>
        <time>2021-03-27T03:54:54.936Z</time>
      </trkpt>
      <trkpt lat="43.98411" lon="5.18619">
        <ele>395</ele>
        <time>2021-03-27T03:55:04.925Z</time>
      </trkpt>
      <trkpt lat="43.98404" lon="5.1861">
        <ele>397</ele>
        <time>2021-03-27T03:55:18.762Z</time>
      </trkpt>
      <trkpt lat="43.98399" lon="5.186">
        <ele>398</ele>
        <time>2021-03-27T03:55:28.701Z</time>
      </trkpt>
      <trkpt lat="43.98389" lon="5.18553">
        <ele>401</ele>
        <time>2021-03-27T03:55:58.817Z</time>
      </trkpt>
      <trkpt lat="43.98389" lon="5.1854">
        <ele>401</ele>
        <time>2021-03-27T03:56:02.336Z</time>
      </trkpt>
      <trkpt lat="43.98393" lon="5.18529">
        <ele>399</ele>
        <time>2021-03-27T03:56:03.507Z</time>
      </trkpt>
      <trkpt lat="43.984" lon="5.18518">
        <ele>396</ele>
        <time>2021-03-27T03:56:04.903Z</time>
      </trkpt>
      <trkpt lat="43.98411" lon="5.18508">
        <ele>392</ele>
        <time>2021-03-27T03:56:06.639Z</time>
      </trkpt>
      <trkpt lat="43.98417" lon="5.18498">
        <ele>390</ele>
        <time>2021-03-27T03:56:07.877Z</time>
      </trkpt>
      <trkpt lat="43.9842" lon="5.1849">
        <ele>392</ele>
        <time>2021-03-27T03:56:17.295Z</time>
      </trkpt>
      <trkpt lat="43.98418" lon="5.1847">
        <ele>392</ele>
        <time>2021-03-27T03:56:22.760Z</time>
      </trkpt>
      <trkpt lat="43.98408" lon="5.18448">
        <ele>395</ele>
        <time>2021-03-27T03:56:49.928Z</time>
      </trkpt>
      <trkpt lat="43.98367" lon="5.18378">
        <ele>399</ele>
        <time>2021-03-27T03:57:36.156Z</time>
      </trkpt>
      <trkpt lat="43.98356" lon="5.18349">
        <ele>397</ele>
        <time>2021-03-27T03:57:39.272Z</time>
      </trkpt>
      <trkpt lat="43.98352" lon="5.18313">
        <ele>394</ele>
        <time>2021-03-27T03:57:42.734Z</time>
      </trkpt>
      <trkpt lat="43.98353" lon="5.18302">
        <ele>394</ele>
        <time>2021-03-27T03:57:45.735Z</time>
      </trkpt>
      <trkpt lat="43.98357" lon="5.18294">
        <ele>393</ele>
        <time>2021-03-27T03:57:46.661Z</time>
      </trkpt>
      <trkpt lat="43.98363" lon="5.18286">
        <ele>392</ele>
        <time>2021-03-27T03:57:47.759Z</time>
      </trkpt>
      <trkpt lat="43.98372" lon="5.18281">
        <ele>391</ele>
        <time>2021-03-27T03:57:49.040Z</time>
      </trkpt>
      <trkpt lat="43.98388" lon="5.18266">
        <ele>389</ele>
        <time>2021-03-27T03:57:51.589Z</time>
      </trkpt>
      <trkpt lat="43.98396" lon="5.18247">
        <ele>386</ele>
        <time>2021-03-27T03:57:53.681Z</time>
      </trkpt>
      <trkpt lat="43.98397" lon="5.18237">
        <ele>385</ele>
        <time>2021-03-27T03:57:54.641Z</time>
      </trkpt>
      <trkpt lat="43.98396" lon="5.18227">
        <ele>384</ele>
        <time>2021-03-27T03:57:55.600Z</time>
      </trkpt>
      <trkpt lat="43.98392" lon="5.18218">
        <ele>384</ele>
        <time>2021-03-27T03:57:58.464Z</time>
      </trkpt>
      <trkpt lat="43.98371" lon="5.18194">
        <ele>384</ele>
        <time>2021-03-27T03:58:08.691Z</time>
      </trkpt>
      <trkpt lat="43.98363" lon="5.18168">
        <ele>382</ele>
        <time>2021-03-27T03:58:11.379Z</time>
      </trkpt>
      <trkpt lat="43.98361" lon="5.18152">
        <ele>381</ele>
        <time>2021-03-27T03:58:12.922Z</time>
      </trkpt>
      <trkpt lat="43.98363" lon="5.18135">
        <ele>378</ele>
        <time>2021-03-27T03:58:14.560Z</time>
      </trkpt>
      <trkpt lat="43.98367" lon="5.18122">
        <ele>376</ele>
        <time>2021-03-27T03:58:15.903Z</time>
      </trkpt>
      <trkpt lat="43.98373" lon="5.1811">
        <ele>374</ele>
        <time>2021-03-27T03:58:17.292Z</time>
      </trkpt>
      <trkpt lat="43.98392" lon="5.18085">
        <ele>370</ele>
        <time>2021-03-27T03:58:20.748Z</time>
      </trkpt>
      <trkpt lat="43.98398" lon="5.18079">
        <ele>369</ele>
        <time>2021-03-27T03:58:21.725Z</time>
      </trkpt>
      <trkpt lat="43.98412" lon="5.18069">
        <ele>367</ele>
        <time>2021-03-27T03:58:23.804Z</time>
      </trkpt>
      <trkpt lat="43.98461" lon="5.18021">
        <ele>364</ele>
        <time>2021-03-27T03:58:32.104Z</time>
      </trkpt>
      <trkpt lat="43.9847" lon="5.18015">
        <ele>363</ele>
        <time>2021-03-27T03:58:33.423Z</time>
      </trkpt>
      <trkpt lat="43.98479" lon="5.18013">
        <ele>363</ele>
        <time>2021-03-27T03:58:36.851Z</time>
      </trkpt>
      <trkpt lat="43.98515" lon="5.1801">
        <ele>362</ele>
        <time>2021-03-27T03:58:43.043Z</time>
      </trkpt>
      <trkpt lat="43.98569" lon="5.18005">
        <ele>358</ele>
        <time>2021-03-27T03:58:50.191Z</time>
      </trkpt>
      <trkpt lat="43.98586" lon="5.18001">
        <ele>356</ele>
        <time>2021-03-27T03:58:52.469Z</time>
      </trkpt>
      <trkpt lat="43.98598" lon="5.17993">
        <ele>357</ele>
        <time>2021-03-27T03:59:02.949Z</time>
      </trkpt>
      <trkpt lat="43.98604" lon="5.17986">
        <ele>357</ele>
        <time>2021-03-27T03:59:05.896Z</time>
      </trkpt>
      <trkpt lat="43.98612" lon="5.17962">
        <ele>356</ele>
        <time>2021-03-27T03:59:08.475Z</time>
      </trkpt>
      <trkpt lat="43.98622" lon="5.17912">
        <ele>354</ele>
        <time>2021-03-27T03:59:13.492Z</time>
      </trkpt>
      <trkpt lat="43.98629" lon="5.1785">
        <ele>353</ele>
        <time>2021-03-27T03:59:21.739Z</time>
      </trkpt>
      <trkpt lat="43.9863" lon="5.17829">
        <ele>352</ele>
        <time>2021-03-27T03:59:23.580Z</time>
      </trkpt>
      <trkpt lat="43.98628" lon="5.17807">
        <ele>352</ele>
        <time>2021-03-27T03:59:29.582Z</time>
      </trkpt>
      <trkpt lat="43.98624" lon="5.17788">
        <ele>352</ele>
        <time>2021-03-27T03:59:34.940Z</time>
      </trkpt>
      <trkpt lat="43.98613" lon="5.17755">
        <ele>351</ele>
        <time>2021-03-27T03:59:38.977Z</time>
      </trkpt>
      <trkpt lat="43.98599" lon="5.17734">
        <ele>348</ele>
        <time>2021-03-27T03:59:41.698Z</time>
      </trkpt>
      <trkpt lat="43.98549" lon="5.17676">
        <ele>344</ele>
        <time>2021-03-27T03:59:49.905Z</time>
      </trkpt>
      <trkpt lat="43.98485" lon="5.17596">
        <ele>338</ele>
        <time>2021-03-27T04:00:01.276Z</time>
      </trkpt>
      <trkpt lat="43.98475" lon="5.1758">
        <ele>337</ele>
        <time>2021-03-27T04:00:03.136Z</time>
      </trkpt>
      <trkpt lat="43.98469" lon="5.17569">
        <ele>336</ele>
        <time>2021-03-27T04:00:04.448Z</time>
      </trkpt>
      <trkpt lat="43.98466" lon="5.17557">
        <ele>335</ele>
        <time>2021-03-27T04:00:05.655Z</time>
      </trkpt>
      <trkpt lat="43.98466" lon="5.17546">
        <ele>334</ele>
        <time>2021-03-27T04:00:06.701Z</time>
      </trkpt>
      <trkpt lat="43.98469" lon="5.17535">
        <ele>334</ele>
        <time>2021-03-27T04:00:09.885Z</time>
      </trkpt>
      <trkpt lat="43.98474" lon="5.17526">
        <ele>335</ele>
        <time>2021-03-27T04:00:20.101Z</time>
      </trkpt>
      <trkpt lat="43.98567" lon="5.17411">
        <ele>333</ele>
        <time>2021-03-27T04:00:44.536Z</time>
      </trkpt>
      <trkpt lat="43.98617" lon="5.17346">
        <ele>331</ele>
        <time>2021-03-27T04:00:56.105Z</time>
      </trkpt>
      <trkpt lat="43.98657" lon="5.17295">
        <ele>329</ele>
        <time>2021-03-27T04:01:04.592Z</time>
      </trkpt>
      <trkpt lat="43.98778" lon="5.17136">
        <ele>325</ele>
        <time>2021-03-27T04:01:34.366Z</time>
      </trkpt>
      <trkpt lat="43.98836" lon="5.17066">
        <ele>319</ele>
        <time>2021-03-27T04:01:44.513Z</time>
      </trkpt>
      <trkpt lat="43.9893" lon="5.16902">
        <ele>309</ele>
        <time>2021-03-27T04:02:02.821Z</time>
      </trkpt>
      <trkpt lat="43.9901" lon="5.16759">
        <ele>304</ele>
        <time>2021-03-27T04:02:22.898Z</time>
      </trkpt>
      <trkpt lat="43.99031" lon="5.16721">
        <ele>303</ele>
        <time>2021-03-27T04:02:28.736Z</time>
      </trkpt>
      <trkpt lat="43.99052" lon="5.16692">
        <ele>300</ele>
        <time>2021-03-27T04:02:32.647Z</time>
      </trkpt>
      <trkpt lat="43.99122" lon="5.16606">
        <ele>291</ele>
        <time>2021-03-27T04:02:44.987Z</time>
      </trkpt>
      <trkpt lat="43.99137" lon="5.16589">
        <ele>290</ele>
        <time>2021-03-27T04:02:47.630Z</time>
      </trkpt>
      <trkpt lat="43.99191" lon="5.16548">
        <ele>286</ele>
        <time>2021-03-27T04:02:55.170Z</time>
      </trkpt>
      <trkpt lat="43.992" lon="5.16538">
        <ele>285</ele>
        <time>2021-03-27T04:02:56.692Z</time>
      </trkpt>
      <trkpt lat="43.99203" lon="5.16528">
        <ele>284</ele>
        <time>2021-03-27T04:02:57.722Z</time>
      </trkpt>
      <trkpt lat="43.99204" lon="5.16516">
        <ele>284</ele>
        <time>2021-03-27T04:03:00.991Z</time>
      </trkpt>
      <trkpt lat="43.99198" lon="5.16499">
        <ele>283</ele>
        <time>2021-03-27T04:03:02.791Z</time>
      </trkpt>
      <trkpt lat="43.99191" lon="5.16492">
        <ele>282</ele>
        <time>2021-03-27T04:03:03.930Z</time>
      </trkpt>
      <trkpt lat="43.99182" lon="5.1649">
        <ele>282</ele>
        <time>2021-03-27T04:03:07.358Z</time>
      </trkpt>
      <trkpt lat="43.99171" lon="5.16491">
        <ele>282</ele>
        <time>2021-03-27T04:03:11.505Z</time>
      </trkpt>
      <trkpt lat="43.99128" lon="5.16509">
        <ele>283</ele>
        <time>2021-03-27T04:03:32.726Z</time>
      </trkpt>
      <trkpt lat="43.99107" lon="5.16511">
        <ele>283</ele>
        <time>2021-03-27T04:03:40.645Z</time>
      </trkpt>
      <trkpt lat="43.99089" lon="5.16506">
        <ele>282</ele>
        <time>2021-03-27T04:03:43.092Z</time>
      </trkpt>
      <trkpt lat="43.99066" lon="5.16491">
        <ele>282</ele>
        <time>2021-03-27T04:03:52.649Z</time>
      </trkpt>
      <trkpt lat="43.99042" lon="5.16471">
        <ele>283</ele>
        <time>2021-03-27T04:04:08.297Z</time>
      </trkpt>
      <trkpt lat="43.99031" lon="5.1646">
        <ele>284</ele>
        <time>2021-03-27T04:04:18.857Z</time>
      </trkpt>
      <trkpt lat="43.99026" lon="5.16452">
        <ele>284</ele>
        <time>2021-03-27T04:04:21.725Z</time>
      </trkpt>
      <trkpt lat="43.99024" lon="5.16439">
        <ele>283</ele>
        <time>2021-03-27T04:04:22.988Z</time>
      </trkpt>
      <trkpt lat="43.99025" lon="5.16428">
        <ele>282</ele>
        <time>2021-03-27T04:04:24.042Z</time>
      </trkpt>
      <trkpt lat="43.99028" lon="5.16416">
        <ele>281</ele>
        <time>2021-03-27T04:04:25.249Z</time>
      </trkpt>
      <trkpt lat="43.99034" lon="5.16408">
        <ele>281</ele>
        <time>2021-03-27T04:04:28.377Z</time>
      </trkpt>
      <trkpt lat="43.99042" lon="5.16401">
        <ele>281</ele>
        <time>2021-03-27T04:04:31.933Z</time>
      </trkpt>
      <trkpt lat="43.99061" lon="5.16393">
        <ele>279</ele>
        <time>2021-03-27T04:04:34.555Z</time>
      </trkpt>
      <trkpt lat="43.99075" lon="5.16378">
        <ele>278</ele>
        <time>2021-03-27T04:04:36.872Z</time>
      </trkpt>
      <trkpt lat="43.99122" lon="5.1631">
        <ele>271</ele>
        <time>2021-03-27T04:04:45.833Z</time>
      </trkpt>
      <trkpt lat="43.99129" lon="5.16293">
        <ele>270</ele>
        <time>2021-03-27T04:04:47.694Z</time>
      </trkpt>
      <trkpt lat="43.99132" lon="5.16278">
        <ele>269</ele>
        <time>2021-03-27T04:04:49.174Z</time>
      </trkpt>
      <trkpt lat="43.99132" lon="5.16262">
        <ele>269</ele>
        <time>2021-03-27T04:04:53.504Z</time>
      </trkpt>
      <trkpt lat="43.99123" lon="5.16188">
        <ele>269</ele>
        <time>2021-03-27T04:05:13.815Z</time>
      </trkpt>
      <trkpt lat="43.99125" lon="5.16174">
        <ele>268</ele>
        <time>2021-03-27T04:05:15.171Z</time>
      </trkpt>
      <trkpt lat="43.99129" lon="5.16163">
        <ele>268</ele>
        <time>2021-03-27T04:05:18.507Z</time>
      </trkpt>
      <trkpt lat="43.99135" lon="5.16153">
        <ele>268</ele>
        <time>2021-03-27T04:05:22.031Z</time>
      </trkpt>
      <trkpt lat="43.99144" lon="5.16145">
        <ele>267</ele>
        <time>2021-03-27T04:05:23.442Z</time>
      </trkpt>
      <trkpt lat="43.99181" lon="5.1611">
        <ele>264</ele>
        <time>2021-03-27T04:05:29.354Z</time>
      </trkpt>
      <trkpt lat="43.99209" lon="5.16084">
        <ele>259</ele>
        <time>2021-03-27T04:05:33.802Z</time>
      </trkpt>
      <trkpt lat="43.99217" lon="5.16074">
        <ele>258</ele>
        <time>2021-03-27T04:05:35.223Z</time>
      </trkpt>
      <trkpt lat="43.99223" lon="5.16062">
        <ele>258</ele>
        <time>2021-03-27T04:05:39.178Z</time>
      </trkpt>
      <trkpt lat="43.99225" lon="5.16049">
        <ele>259</ele>
        <time>2021-03-27T04:05:48.969Z</time>
      </trkpt>
      <trkpt lat="43.99225" lon="5.16038">
        <ele>259</ele>
        <time>2021-03-27T04:05:51.946Z</time>
      </trkpt>
      <trkpt lat="43.99217" lon="5.15999">
        <ele>265</ele>
        <time>2021-03-27T04:06:34.278Z</time>
      </trkpt>
      <trkpt lat="43.99216" lon="5.15988">
        <ele>267</ele>
        <time>2021-03-27T04:06:45.852Z</time>
      </trkpt>
      <trkpt lat="43.99219" lon="5.15972">
        <ele>268</ele>
        <time>2021-03-27T04:06:55.925Z</time>
      </trkpt>
      <trkpt lat="43.99223" lon="5.15968">
        <ele>268</ele>
        <time>2021-03-27T04:06:57.778Z</time>
      </trkpt>
      <trkpt lat="43.9923" lon="5.15963">
        <ele>267</ele>
        <time>2021-03-27T04:06:58.818Z</time>
      </trkpt>
      <trkpt lat="43.99444" lon="5.15898">
        <ele>246</ele>
        <time>2021-03-27T04:07:27.752Z</time>
      </trkpt>
      <trkpt lat="43.99464" lon="5.15889">
        <ele>244</ele>
        <time>2021-03-27T04:07:30.529Z</time>
      </trkpt>
      <trkpt lat="43.99477" lon="5.1588">
        <ele>243</ele>
        <time>2021-03-27T04:07:32.448Z</time>
      </trkpt>
      <trkpt lat="43.99485" lon="5.1587">
        <ele>242</ele>
        <time>2021-03-27T04:07:33.869Z</time>
      </trkpt>
      <trkpt lat="43.99491" lon="5.15856">
        <ele>243</ele>
        <time>2021-03-27T04:07:43.900Z</time>
      </trkpt>
      <trkpt lat="43.99502" lon="5.15821">
        <ele>243</ele>
        <time>2021-03-27T04:07:54.236Z</time>
      </trkpt>
      <trkpt lat="43.99513" lon="5.15675">
        <ele>239</ele>
        <time>2021-03-27T04:08:10.582Z</time>
      </trkpt>
      <trkpt lat="43.99513" lon="5.15654">
        <ele>237</ele>
        <time>2021-03-27T04:08:12.578Z</time>
      </trkpt>
      <trkpt lat="43.9951" lon="5.15635">
        <ele>237</ele>
        <time>2021-03-27T04:08:17.842Z</time>
      </trkpt>
      <trkpt lat="43.99492" lon="5.15557">
        <ele>236</ele>
        <time>2021-03-27T04:08:29.282Z</time>
      </trkpt>
      <trkpt lat="43.9949" lon="5.1554">
        <ele>237</ele>
        <time>2021-03-27T04:08:39.486Z</time>
      </trkpt>
      <trkpt lat="43.99489" lon="5.15521">
        <ele>237</ele>
        <time>2021-03-27T04:08:44.641Z</time>
      </trkpt>
      <trkpt lat="43.99493" lon="5.15504">
        <ele>235</ele>
        <time>2021-03-27T04:08:46.341Z</time>
      </trkpt>
      <trkpt lat="43.995" lon="5.15482">
        <ele>235</ele>
        <time>2021-03-27T04:08:52.851Z</time>
      </trkpt>
      <trkpt lat="43.99528" lon="5.15427">
        <ele>232</ele>
        <time>2021-03-27T04:08:58.936Z</time>
      </trkpt>
      <trkpt lat="43.99577" lon="5.15344">
        <ele>226</ele>
        <time>2021-03-27T04:09:09.139Z</time>
      </trkpt>
      <trkpt lat="43.99594" lon="5.15299">
        <ele>227</ele>
        <time>2021-03-27T04:09:27.491Z</time>
      </trkpt>
      <trkpt lat="43.99603" lon="5.15281">
        <ele>227</ele>
        <time>2021-03-27T04:09:33.423Z</time>
      </trkpt>
      <trkpt lat="43.99615" lon="5.1526">
        <ele>226</ele>
        <time>2021-03-27T04:09:36.054Z</time>
      </trkpt>
      <trkpt lat="43.99641" lon="5.15224">
        <ele>220</ele>
        <time>2021-03-27T04:09:40.901Z</time>
      </trkpt>
      <trkpt lat="43.99654" lon="5.15201">
        <ele>217</ele>
        <time>2021-03-27T04:09:43.681Z</time>
      </trkpt>
      <trkpt lat="43.9966" lon="5.15186">
        <ele>216</ele>
        <time>2021-03-27T04:09:45.311Z</time>
      </trkpt>
      <trkpt lat="43.99743" lon="5.14878">
        <ele>205</ele>
        <time>2021-03-27T04:10:19.111Z</time>
      </trkpt>
      <trkpt lat="43.99749" lon="5.14857">
        <ele>205</ele>
        <time>2021-03-27T04:10:25.226Z</time>
      </trkpt>
      <trkpt lat="43.99753" lon="5.14846">
        <ele>205</ele>
        <time>2021-03-27T04:10:28.561Z</time>
      </trkpt>
      <trkpt lat="43.99759" lon="5.14832">
        <ele>205</ele>
        <time>2021-03-27T04:10:32.971Z</time>
      </trkpt>
      <trkpt lat="43.99767" lon="5.14821">
        <ele>205</ele>
        <time>2021-03-27T04:10:37.204Z</time>
      </trkpt>
      <trkpt lat="43.99955" lon="5.14512">
        <ele>196</ele>
        <time>2021-03-27T04:11:25.527Z</time>
      </trkpt>
      <trkpt lat="43.99965" lon="5.14497">
        <ele>195</ele>
        <time>2021-03-27T04:11:27.471Z</time>
      </trkpt>
      <trkpt lat="43.99983" lon="5.14473">
        <ele>191</ele>
        <time>2021-03-27T04:11:30.765Z</time>
      </trkpt>
      <trkpt lat="44.00008" lon="5.14454">
        <ele>185</ele>
        <time>2021-03-27T04:11:34.529Z</time>
      </trkpt>
      <trkpt lat="44.00016" lon="5.14449">
        <ele>185</ele>
        <time>2021-03-27T04:11:37.828Z</time>
      </trkpt>
      <trkpt lat="44.00029" lon="5.14446">
        <ele>184</ele>
        <time>2021-03-27T04:11:39.569Z</time>
      </trkpt>
      <trkpt lat="44.00043" lon="5.14443">
        <ele>183</ele>
        <time>2021-03-27T04:11:41.440Z</time>
      </trkpt>
      <trkpt lat="44.00056" lon="5.14444">
        <ele>182</ele>
        <time>2021-03-27T04:11:43.160Z</time>
      </trkpt>
      <trkpt lat="44.00064" lon="5.14444">
        <ele>182</ele>
        <time>2021-03-27T04:11:46.169Z</time>
      </trkpt>
      <trkpt lat="44.00193" lon="5.14445">
        <ele>178</ele>
        <time>2021-03-27T04:12:07.562Z</time>
      </trkpt>
      <trkpt lat="44.00553" lon="5.14355">
        <ele>168</ele>
        <time>2021-03-27T04:13:10.621Z</time>
      </trkpt>
      <trkpt lat="44.00586" lon="5.14349">
        <ele>168</ele>
        <time>2021-03-27T04:13:23.140Z</time>
      </trkpt>
      <trkpt lat="44.00606" lon="5.1435">
        <ele>168</ele>
        <time>2021-03-27T04:13:30.668Z</time>
      </trkpt>
      <trkpt lat="44.00627" lon="5.14355">
        <ele>167</ele>
        <time>2021-03-27T04:13:33.700Z</time>
      </trkpt>
      <trkpt lat="44.00651" lon="5.14365">
        <ele>167</ele>
        <time>2021-03-27T04:13:43.124Z</time>
      </trkpt>
      <trkpt lat="44.00661" lon="5.14368">
        <ele>167</ele>
        <time>2021-03-27T04:13:46.973Z</time>
      </trkpt>
      <trkpt lat="44.00682" lon="5.14375">
        <ele>167</ele>
        <time>2021-03-27T04:13:55.096Z</time>
      </trkpt>
      <trkpt lat="44.00713" lon="5.1438">
        <ele>167</ele>
        <time>2021-03-27T04:14:06.836Z</time>
      </trkpt>
      <trkpt lat="44.00844" lon="5.14374">
        <ele>169</ele>
        <time>2021-03-27T04:15:04.151Z</time>
      </trkpt>
      <trkpt lat="44.00884" lon="5.14372">
        <ele>170</ele>
        <time>2021-03-27T04:15:23.676Z</time>
      </trkpt>
      <trkpt lat="44.00903" lon="5.14371">
        <ele>170</ele>
        <time>2021-03-27T04:15:30.828Z</time>
      </trkpt>
      <trkpt lat="44.00915" lon="5.14369">
        <ele>171</ele>
        <time>2021-03-27T04:15:40.949Z</time>
      </trkpt>
      <trkpt lat="44.00927" lon="5.14366">
        <ele>171</ele>
        <time>2021-03-27T04:15:45.535Z</time>
      </trkpt>
      <trkpt lat="44.00936" lon="5.14362">
        <ele>171</ele>
        <time>2021-03-27T04:15:49.090Z</time>
      </trkpt>
      <trkpt lat="44.00941" lon="5.14358">
        <ele>170</ele>
        <time>2021-03-27T04:15:49.852Z</time>
      </trkpt>
      <trkpt lat="44.00947" lon="5.14352">
        <ele>170</ele>
        <time>2021-03-27T04:15:52.632Z</time>
      </trkpt>
      <trkpt lat="44.00968" lon="5.14319">
        <ele>169</ele>
        <time>2021-03-27T04:15:57.858Z</time>
      </trkpt>
      <trkpt lat="44.01045" lon="5.1415">
        <ele>165</ele>
        <time>2021-03-27T04:16:22.540Z</time>
      </trkpt>
      <trkpt lat="44.0106" lon="5.14121">
        <ele>164</ele>
        <time>2021-03-27T04:16:26.477Z</time>
      </trkpt>
      <trkpt lat="44.01127" lon="5.14023">
        <ele>163</ele>
        <time>2021-03-27T04:16:47.027Z</time>
      </trkpt>
      <trkpt lat="44.01142" lon="5.13998">
        <ele>163</ele>
        <time>2021-03-27T04:16:55.835Z</time>
      </trkpt>
      <trkpt lat="44.01208" lon="5.13875">
        <ele>162</ele>
        <time>2021-03-27T04:17:19.542Z</time>
      </trkpt>
      <trkpt lat="44.01264" lon="5.13763">
        <ele>160</ele>
        <time>2021-03-27T04:17:37.827Z</time>
      </trkpt>
      <trkpt lat="44.0134" lon="5.13614">
        <ele>160</ele>
        <time>2021-03-27T04:18:27.246Z</time>
      </trkpt>
      <trkpt lat="44.01403" lon="5.13514">
        <ele>159</ele>
        <time>2021-03-27T04:18:47.403Z</time>
      </trkpt>
      <trkpt lat="44.01471" lon="5.13411">
        <ele>158</ele>
        <time>2021-03-27T04:19:08.747Z</time>
      </trkpt>
      <trkpt lat="44.01489" lon="5.1338">
        <ele>158</ele>
        <time>2021-03-27T04:19:19.526Z</time>
      </trkpt>
      <trkpt lat="44.015" lon="5.13357">
        <ele>158</ele>
        <time>2021-03-27T04:19:26.998Z</time>
      </trkpt>
      <trkpt lat="44.01508" lon="5.13333">
        <ele>158</ele>
        <time>2021-03-27T04:19:34.154Z</time>
      </trkpt>
      <trkpt lat="44.01534" lon="5.13227">
        <ele>156</ele>
        <time>2021-03-27T04:19:48.426Z</time>
      </trkpt>
      <trkpt lat="44.0162" lon="5.12996">
        <ele>156</ele>
        <time>2021-03-27T04:20:58.794Z</time>
      </trkpt>
      <trkpt lat="44.01641" lon="5.12942">
        <ele>156</ele>
        <time>2021-03-27T04:21:15.401Z</time>
      </trkpt>
      <trkpt lat="44.01736" lon="5.1275">
        <ele>155</ele>
        <time>2021-03-27T04:22:13.166Z</time>
      </trkpt>
      <trkpt lat="44.01749" lon="5.12718">
        <ele>154</ele>
        <time>2021-03-27T04:22:17.259Z</time>
      </trkpt>
      <trkpt lat="44.01815" lon="5.12527">
        <ele>153</ele>
        <time>2021-03-27T04:23:09.345Z</time>
      </trkpt>
      <trkpt lat="44.01885" lon="5.12348">
        <ele>153</ele>
        <time>2021-03-27T04:24:04.463Z</time>
      </trkpt>
      <trkpt lat="44.01905" lon="5.12299">
        <ele>153</ele>
        <time>2021-03-27T04:24:19.704Z</time>
      </trkpt>
      <trkpt lat="44.0194" lon="5.1221">
        <ele>152</ele>
        <time>2021-03-27T04:24:34.450Z</time>
      </trkpt>
      <trkpt lat="44.01974" lon="5.12122">
        <ele>152</ele>
        <time>2021-03-27T04:25:01.473Z</time>
      </trkpt>
      <trkpt lat="44.01992" lon="5.12072">
        <ele>152</ele>
        <time>2021-03-27T04:25:16.598Z</time>
      </trkpt>
      <trkpt lat="44.02045" lon="5.11925">
        <ele>151</ele>
        <time>2021-03-27T04:25:42.206Z</time>
      </trkpt>
      <trkpt lat="44.02042" lon="5.11922">
        <ele>151</ele>
        <time>2021-03-27T04:25:43.596Z</time>
      </trkpt>
      <trkpt lat="44.01976" lon="5.1191">
        <ele>152</ele>
        <time>2021-03-27T04:26:12.630Z</time>
      </trkpt>
      <trkpt lat="44.01977" lon="5.11895">
        <ele>151</ele>
        <time>2021-03-27T04:26:14.060Z</time>
      </trkpt>
    </trkseg>
  </trk>
</gpx>